<?xml version="1.0" encoding="UTF-8" standalone="no" ?>
<gpx xmlns="http://www.topografix.com/GPX/1/1" xmlns:xsi="http://www.w3.org/2001/XMLSchema-instance" xsi:schemaLocation="http://www.topografix.com/GPX/1/1 http://www.topografix.com/GPX/1/1/gpx.xsd" version="1.1" creator="VisuGPX - https://www.visugpx.com">
  <metadata>
    <name>Trace VTT départ d'Armentière</name>
    <desc><![CDATA[Parcours vallonnée avec peu de route mais des chemins parfois très gras en hiver]]></desc>
  </metadata>
  <trk>
    <name><![CDATA[Sortie VTT avec Seb]]></name>
    <desc><![CDATA[Dans la joie et la gadoue 😂😂]]></desc>
    <trkseg>
      <trkpt lat="49.4601" lon="1.93165">
        <ele>123.40000152588</ele>
        <time>2020-01-02T12:50:20.000Z</time>
      </trkpt>
      <trkpt lat="49.46012" lon="1.93159">
        <ele>123.40000152588</ele>
        <time>2020-01-02T12:50:21.000Z</time>
      </trkpt>
      <trkpt lat="49.46016" lon="1.93134">
        <ele>123.19999694824</ele>
        <time>2020-01-02T12:50:25.000Z</time>
      </trkpt>
      <trkpt lat="49.46017" lon="1.9312">
        <ele>123</ele>
        <time>2020-01-02T12:50:27.000Z</time>
      </trkpt>
      <trkpt lat="49.46017" lon="1.93107">
        <ele>122.59999847412</ele>
        <time>2020-01-02T12:50:29.000Z</time>
      </trkpt>
      <trkpt lat="49.46017" lon="1.931">
        <ele>122.40000152588</ele>
        <time>2020-01-02T12:50:30.000Z</time>
      </trkpt>
      <trkpt lat="49.46016" lon="1.93085">
        <ele>122.19999694824</ele>
        <time>2020-01-02T12:50:32.000Z</time>
      </trkpt>
      <trkpt lat="49.46014" lon="1.93078">
        <ele>122.19999694824</ele>
        <time>2020-01-02T12:50:33.000Z</time>
      </trkpt>
      <trkpt lat="49.46012" lon="1.93056">
        <ele>122</ele>
        <time>2020-01-02T12:50:36.000Z</time>
      </trkpt>
      <trkpt lat="49.46014" lon="1.93041">
        <ele>121.80000305176</ele>
        <time>2020-01-02T12:50:38.000Z</time>
      </trkpt>
      <trkpt lat="49.46019" lon="1.93029">
        <ele>121.40000152588</ele>
        <time>2020-01-02T12:50:40.000Z</time>
      </trkpt>
      <trkpt lat="49.46026" lon="1.93022">
        <ele>121</ele>
        <time>2020-01-02T12:50:42.000Z</time>
      </trkpt>
      <trkpt lat="49.46038" lon="1.93022">
        <ele>120.80000305176</ele>
        <time>2020-01-02T12:50:45.000Z</time>
      </trkpt>
      <trkpt lat="49.46046" lon="1.93023">
        <ele>120.80000305176</ele>
        <time>2020-01-02T12:50:47.000Z</time>
      </trkpt>
      <trkpt lat="49.4606" lon="1.93011">
        <ele>121</ele>
        <time>2020-01-02T12:50:51.000Z</time>
      </trkpt>
      <trkpt lat="49.46075" lon="1.92989">
        <ele>122.59999847412</ele>
        <time>2020-01-02T12:50:56.000Z</time>
      </trkpt>
      <trkpt lat="49.46082" lon="1.9298">
        <ele>123.19999694824</ele>
        <time>2020-01-02T12:50:58.000Z</time>
      </trkpt>
      <trkpt lat="49.46089" lon="1.92972">
        <ele>124</ele>
        <time>2020-01-02T12:51:00.000Z</time>
      </trkpt>
      <trkpt lat="49.46101" lon="1.92961">
        <ele>125</ele>
        <time>2020-01-02T12:51:03.000Z</time>
      </trkpt>
      <trkpt lat="49.46109" lon="1.92954">
        <ele>125.19999694824</ele>
        <time>2020-01-02T12:51:05.000Z</time>
      </trkpt>
      <trkpt lat="49.46126" lon="1.9294">
        <ele>126</ele>
        <time>2020-01-02T12:51:09.000Z</time>
      </trkpt>
      <trkpt lat="49.46141" lon="1.92922">
        <ele>126.19999694824</ele>
        <time>2020-01-02T12:51:13.000Z</time>
      </trkpt>
      <trkpt lat="49.46168" lon="1.92875">
        <ele>126.40000152588</ele>
        <time>2020-01-02T12:51:21.000Z</time>
      </trkpt>
      <trkpt lat="49.46189" lon="1.92834">
        <ele>126.19999694824</ele>
        <time>2020-01-02T12:51:28.000Z</time>
      </trkpt>
      <trkpt lat="49.46192" lon="1.9283">
        <ele>126.19999694824</ele>
        <time>2020-01-02T12:51:29.000Z</time>
      </trkpt>
      <trkpt lat="49.46199" lon="1.92829">
        <ele>126.19999694824</ele>
        <time>2020-01-02T12:51:31.000Z</time>
      </trkpt>
      <trkpt lat="49.46211" lon="1.92845">
        <ele>126.19999694824</ele>
        <time>2020-01-02T12:51:35.000Z</time>
      </trkpt>
      <trkpt lat="49.4623" lon="1.92877">
        <ele>127</ele>
        <time>2020-01-02T12:51:42.000Z</time>
      </trkpt>
      <trkpt lat="49.46242" lon="1.92896">
        <ele>128</ele>
        <time>2020-01-02T12:51:46.000Z</time>
      </trkpt>
      <trkpt lat="49.46244" lon="1.92901">
        <ele>128.19999694824</ele>
        <time>2020-01-02T12:51:47.000Z</time>
      </trkpt>
      <trkpt lat="49.46252" lon="1.92915">
        <ele>129.39999389648</ele>
        <time>2020-01-02T12:51:50.000Z</time>
      </trkpt>
      <trkpt lat="49.46263" lon="1.92933">
        <ele>130.39999389648</ele>
        <time>2020-01-02T12:51:54.000Z</time>
      </trkpt>
      <trkpt lat="49.46269" lon="1.92942">
        <ele>131</ele>
        <time>2020-01-02T12:51:56.000Z</time>
      </trkpt>
      <trkpt lat="49.46276" lon="1.92956">
        <ele>131.60000610352</ele>
        <time>2020-01-02T12:51:59.000Z</time>
      </trkpt>
      <trkpt lat="49.46284" lon="1.9297">
        <ele>132.80000305176</ele>
        <time>2020-01-02T12:52:02.000Z</time>
      </trkpt>
      <trkpt lat="49.46295" lon="1.92987">
        <ele>134</ele>
        <time>2020-01-02T12:52:06.000Z</time>
      </trkpt>
      <trkpt lat="49.46302" lon="1.92999">
        <ele>134.80000305176</ele>
        <time>2020-01-02T12:52:09.000Z</time>
      </trkpt>
      <trkpt lat="49.46313" lon="1.93015">
        <ele>136</ele>
        <time>2020-01-02T12:52:13.000Z</time>
      </trkpt>
      <trkpt lat="49.46321" lon="1.93026">
        <ele>137</ele>
        <time>2020-01-02T12:52:16.000Z</time>
      </trkpt>
      <trkpt lat="49.46323" lon="1.93029">
        <ele>137.19999694824</ele>
        <time>2020-01-02T12:52:17.000Z</time>
      </trkpt>
      <trkpt lat="49.46339" lon="1.93041">
        <ele>138</ele>
        <time>2020-01-02T12:52:22.000Z</time>
      </trkpt>
      <trkpt lat="49.46342" lon="1.93041">
        <ele>138.39999389648</ele>
        <time>2020-01-02T12:52:23.000Z</time>
      </trkpt>
      <trkpt lat="49.46355" lon="1.93039">
        <ele>139.19999694824</ele>
        <time>2020-01-02T12:52:27.000Z</time>
      </trkpt>
      <trkpt lat="49.46368" lon="1.93034">
        <ele>140.39999389648</ele>
        <time>2020-01-02T12:52:31.000Z</time>
      </trkpt>
      <trkpt lat="49.46373" lon="1.93032">
        <ele>141.19999694824</ele>
        <time>2020-01-02T12:52:33.000Z</time>
      </trkpt>
      <trkpt lat="49.46378" lon="1.93029">
        <ele>141.60000610352</ele>
        <time>2020-01-02T12:52:35.000Z</time>
      </trkpt>
      <trkpt lat="49.46387" lon="1.93026">
        <ele>142.39999389648</ele>
        <time>2020-01-02T12:52:39.000Z</time>
      </trkpt>
      <trkpt lat="49.4639" lon="1.93026">
        <ele>142.60000610352</ele>
        <time>2020-01-02T12:52:40.000Z</time>
      </trkpt>
      <trkpt lat="49.46404" lon="1.93027">
        <ele>144</ele>
        <time>2020-01-02T12:52:44.000Z</time>
      </trkpt>
      <trkpt lat="49.46409" lon="1.93028">
        <ele>144</ele>
        <time>2020-01-02T12:52:45.000Z</time>
      </trkpt>
      <trkpt lat="49.46422" lon="1.93032">
        <ele>144.39999389648</ele>
        <time>2020-01-02T12:52:48.000Z</time>
      </trkpt>
      <trkpt lat="49.46436" lon="1.93039">
        <ele>144.39999389648</ele>
        <time>2020-01-02T12:52:51.000Z</time>
      </trkpt>
      <trkpt lat="49.46467" lon="1.93064">
        <ele>143.80000305176</ele>
        <time>2020-01-02T12:52:59.000Z</time>
      </trkpt>
      <trkpt lat="49.46495" lon="1.93088">
        <ele>143.19999694824</ele>
        <time>2020-01-02T12:53:06.000Z</time>
      </trkpt>
      <trkpt lat="49.46523" lon="1.93106">
        <ele>143</ele>
        <time>2020-01-02T12:53:13.000Z</time>
      </trkpt>
      <trkpt lat="49.46556" lon="1.93132">
        <ele>144</ele>
        <time>2020-01-02T12:53:21.000Z</time>
      </trkpt>
      <trkpt lat="49.46579" lon="1.9315">
        <ele>145</ele>
        <time>2020-01-02T12:53:27.000Z</time>
      </trkpt>
      <trkpt lat="49.46586" lon="1.93155">
        <ele>145.39999389648</ele>
        <time>2020-01-02T12:53:29.000Z</time>
      </trkpt>
      <trkpt lat="49.46599" lon="1.93166">
        <ele>146.19999694824</ele>
        <time>2020-01-02T12:53:33.000Z</time>
      </trkpt>
      <trkpt lat="49.46609" lon="1.93175">
        <ele>147.19999694824</ele>
        <time>2020-01-02T12:53:36.000Z</time>
      </trkpt>
      <trkpt lat="49.46622" lon="1.93186">
        <ele>148.39999389648</ele>
        <time>2020-01-02T12:53:40.000Z</time>
      </trkpt>
      <trkpt lat="49.46637" lon="1.93199">
        <ele>149.39999389648</ele>
        <time>2020-01-02T12:53:45.000Z</time>
      </trkpt>
      <trkpt lat="49.46644" lon="1.93204">
        <ele>149.80000305176</ele>
        <time>2020-01-02T12:53:47.000Z</time>
      </trkpt>
      <trkpt lat="49.4665" lon="1.93208">
        <ele>150.80000305176</ele>
        <time>2020-01-02T12:53:49.000Z</time>
      </trkpt>
      <trkpt lat="49.46668" lon="1.93216">
        <ele>151.80000305176</ele>
        <time>2020-01-02T12:53:54.000Z</time>
      </trkpt>
      <trkpt lat="49.46672" lon="1.93217">
        <ele>152</ele>
        <time>2020-01-02T12:53:55.000Z</time>
      </trkpt>
      <trkpt lat="49.46686" lon="1.93222">
        <ele>153.19999694824</ele>
        <time>2020-01-02T12:53:59.000Z</time>
      </trkpt>
      <trkpt lat="49.467" lon="1.93226">
        <ele>154</ele>
        <time>2020-01-02T12:54:03.000Z</time>
      </trkpt>
      <trkpt lat="49.46704" lon="1.93227">
        <ele>154.19999694824</ele>
        <time>2020-01-02T12:54:04.000Z</time>
      </trkpt>
      <trkpt lat="49.46721" lon="1.93235">
        <ele>155.39999389648</ele>
        <time>2020-01-02T12:54:09.000Z</time>
      </trkpt>
      <trkpt lat="49.46731" lon="1.93242">
        <ele>156.19999694824</ele>
        <time>2020-01-02T12:54:12.000Z</time>
      </trkpt>
      <trkpt lat="49.46735" lon="1.93245">
        <ele>156.60000610352</ele>
        <time>2020-01-02T12:54:13.000Z</time>
      </trkpt>
      <trkpt lat="49.46745" lon="1.93259">
        <ele>157.60000610352</ele>
        <time>2020-01-02T12:54:17.000Z</time>
      </trkpt>
      <trkpt lat="49.46748" lon="1.93263">
        <ele>157.80000305176</ele>
        <time>2020-01-02T12:54:18.000Z</time>
      </trkpt>
      <trkpt lat="49.46755" lon="1.93279">
        <ele>158.60000610352</ele>
        <time>2020-01-02T12:54:22.000Z</time>
      </trkpt>
      <trkpt lat="49.46757" lon="1.93288">
        <ele>159.19999694824</ele>
        <time>2020-01-02T12:54:24.000Z</time>
      </trkpt>
      <trkpt lat="49.4676" lon="1.93304">
        <ele>159.80000305176</ele>
        <time>2020-01-02T12:54:27.000Z</time>
      </trkpt>
      <trkpt lat="49.46763" lon="1.93324">
        <ele>160.60000610352</ele>
        <time>2020-01-02T12:54:31.000Z</time>
      </trkpt>
      <trkpt lat="49.46764" lon="1.93328">
        <ele>160.80000305176</ele>
        <time>2020-01-02T12:54:32.000Z</time>
      </trkpt>
      <trkpt lat="49.46767" lon="1.93347">
        <ele>162</ele>
        <time>2020-01-02T12:54:37.000Z</time>
      </trkpt>
      <trkpt lat="49.46769" lon="1.93367">
        <ele>163</ele>
        <time>2020-01-02T12:54:42.000Z</time>
      </trkpt>
      <trkpt lat="49.46769" lon="1.93371">
        <ele>163.39999389648</ele>
        <time>2020-01-02T12:54:43.000Z</time>
      </trkpt>
      <trkpt lat="49.4677" lon="1.9338">
        <ele>164.19999694824</ele>
        <time>2020-01-02T12:54:45.000Z</time>
      </trkpt>
      <trkpt lat="49.46774" lon="1.93407">
        <ele>165.39999389648</ele>
        <time>2020-01-02T12:54:51.000Z</time>
      </trkpt>
      <trkpt lat="49.46775" lon="1.93416">
        <ele>166</ele>
        <time>2020-01-02T12:54:53.000Z</time>
      </trkpt>
      <trkpt lat="49.46777" lon="1.93433">
        <ele>166.60000610352</ele>
        <time>2020-01-02T12:54:57.000Z</time>
      </trkpt>
      <trkpt lat="49.46779" lon="1.93451">
        <ele>167.39999389648</ele>
        <time>2020-01-02T12:55:01.000Z</time>
      </trkpt>
      <trkpt lat="49.46781" lon="1.93459">
        <ele>167.80000305176</ele>
        <time>2020-01-02T12:55:03.000Z</time>
      </trkpt>
      <trkpt lat="49.46785" lon="1.9348">
        <ele>168.80000305176</ele>
        <time>2020-01-02T12:55:08.000Z</time>
      </trkpt>
      <trkpt lat="49.46788" lon="1.93501">
        <ele>170</ele>
        <time>2020-01-02T12:55:13.000Z</time>
      </trkpt>
      <trkpt lat="49.46791" lon="1.93515">
        <ele>170.39999389648</ele>
        <time>2020-01-02T12:55:16.000Z</time>
      </trkpt>
      <trkpt lat="49.46792" lon="1.93524">
        <ele>171</ele>
        <time>2020-01-02T12:55:18.000Z</time>
      </trkpt>
      <trkpt lat="49.46798" lon="1.9355">
        <ele>172</ele>
        <time>2020-01-02T12:55:24.000Z</time>
      </trkpt>
      <trkpt lat="49.46799" lon="1.93554">
        <ele>172.19999694824</ele>
        <time>2020-01-02T12:55:25.000Z</time>
      </trkpt>
      <trkpt lat="49.46809" lon="1.93572">
        <ele>173.19999694824</ele>
        <time>2020-01-02T12:55:30.000Z</time>
      </trkpt>
      <trkpt lat="49.46816" lon="1.93581">
        <ele>173.80000305176</ele>
        <time>2020-01-02T12:55:33.000Z</time>
      </trkpt>
      <trkpt lat="49.46823" lon="1.93588">
        <ele>174.19999694824</ele>
        <time>2020-01-02T12:55:36.000Z</time>
      </trkpt>
      <trkpt lat="49.46833" lon="1.93598">
        <ele>175</ele>
        <time>2020-01-02T12:55:40.000Z</time>
      </trkpt>
      <trkpt lat="49.46836" lon="1.936">
        <ele>175.39999389648</ele>
        <time>2020-01-02T12:55:41.000Z</time>
      </trkpt>
      <trkpt lat="49.46848" lon="1.93611">
        <ele>176.39999389648</ele>
        <time>2020-01-02T12:55:46.000Z</time>
      </trkpt>
      <trkpt lat="49.4685" lon="1.93614">
        <ele>176.60000610352</ele>
        <time>2020-01-02T12:55:47.000Z</time>
      </trkpt>
      <trkpt lat="49.46861" lon="1.93623">
        <ele>177.39999389648</ele>
        <time>2020-01-02T12:55:51.000Z</time>
      </trkpt>
      <trkpt lat="49.46872" lon="1.93633">
        <ele>178.19999694824</ele>
        <time>2020-01-02T12:55:55.000Z</time>
      </trkpt>
      <trkpt lat="49.46877" lon="1.93638">
        <ele>178.60000610352</ele>
        <time>2020-01-02T12:55:57.000Z</time>
      </trkpt>
      <trkpt lat="49.46892" lon="1.9365">
        <ele>179.80000305176</ele>
        <time>2020-01-02T12:56:03.000Z</time>
      </trkpt>
      <trkpt lat="49.46895" lon="1.93652">
        <ele>180</ele>
        <time>2020-01-02T12:56:04.000Z</time>
      </trkpt>
      <trkpt lat="49.46902" lon="1.93655">
        <ele>180.80000305176</ele>
        <time>2020-01-02T12:56:07.000Z</time>
      </trkpt>
      <trkpt lat="49.46907" lon="1.93659">
        <ele>181.39999389648</ele>
        <time>2020-01-02T12:56:10.000Z</time>
      </trkpt>
      <trkpt lat="49.46908" lon="1.93661">
        <ele>181.60000610352</ele>
        <time>2020-01-02T12:56:11.000Z</time>
      </trkpt>
      <trkpt lat="49.46908" lon="1.93662">
        <ele>181.80000305176</ele>
        <time>2020-01-02T12:56:12.000Z</time>
      </trkpt>
      <trkpt lat="49.46906" lon="1.93665">
        <ele>182.19999694824</ele>
        <time>2020-01-02T12:56:14.000Z</time>
      </trkpt>
      <trkpt lat="49.46905" lon="1.93666">
        <ele>182.39999389648</ele>
        <time>2020-01-02T12:56:15.000Z</time>
      </trkpt>
      <trkpt lat="49.46902" lon="1.93667">
        <ele>182.80000305176</ele>
        <time>2020-01-02T12:56:17.000Z</time>
      </trkpt>
      <trkpt lat="49.46901" lon="1.93668">
        <ele>183</ele>
        <time>2020-01-02T12:56:18.000Z</time>
      </trkpt>
      <trkpt lat="49.46899" lon="1.93669">
        <ele>183.19999694824</ele>
        <time>2020-01-02T12:56:19.000Z</time>
      </trkpt>
      <trkpt lat="49.46891" lon="1.93671">
        <ele>184</ele>
        <time>2020-01-02T12:56:23.000Z</time>
      </trkpt>
      <trkpt lat="49.46885" lon="1.93674">
        <ele>184.39999389648</ele>
        <time>2020-01-02T12:56:26.000Z</time>
      </trkpt>
      <trkpt lat="49.46872" lon="1.93682">
        <ele>184.60000610352</ele>
        <time>2020-01-02T12:56:32.000Z</time>
      </trkpt>
      <trkpt lat="49.46862" lon="1.93685">
        <ele>184.80000305176</ele>
        <time>2020-01-02T12:56:37.000Z</time>
      </trkpt>
      <trkpt lat="49.46858" lon="1.93687">
        <ele>185.19999694824</ele>
        <time>2020-01-02T12:56:39.000Z</time>
      </trkpt>
      <trkpt lat="49.46852" lon="1.93688">
        <ele>185.60000610352</ele>
        <time>2020-01-02T12:56:41.000Z</time>
      </trkpt>
      <trkpt lat="49.46838" lon="1.93691">
        <ele>186</ele>
        <time>2020-01-02T12:56:47.000Z</time>
      </trkpt>
      <trkpt lat="49.46823" lon="1.93691">
        <ele>186</ele>
        <time>2020-01-02T12:56:52.000Z</time>
      </trkpt>
      <trkpt lat="49.4681" lon="1.93691">
        <ele>184.80000305176</ele>
        <time>2020-01-02T12:56:56.000Z</time>
      </trkpt>
      <trkpt lat="49.46804" lon="1.93691">
        <ele>184</ele>
        <time>2020-01-02T12:56:58.000Z</time>
      </trkpt>
      <trkpt lat="49.46795" lon="1.9369">
        <ele>183.80000305176</ele>
        <time>2020-01-02T12:57:01.000Z</time>
      </trkpt>
      <trkpt lat="49.46778" lon="1.93691">
        <ele>183.80000305176</ele>
        <time>2020-01-02T12:57:06.000Z</time>
      </trkpt>
      <trkpt lat="49.46764" lon="1.93687">
        <ele>184.19999694824</ele>
        <time>2020-01-02T12:57:10.000Z</time>
      </trkpt>
      <trkpt lat="49.46743" lon="1.93685">
        <ele>184.39999389648</ele>
        <time>2020-01-02T12:57:16.000Z</time>
      </trkpt>
      <trkpt lat="49.46728" lon="1.93685">
        <ele>185</ele>
        <time>2020-01-02T12:57:21.000Z</time>
      </trkpt>
      <trkpt lat="49.46726" lon="1.93685">
        <ele>185</ele>
        <time>2020-01-02T12:57:22.000Z</time>
      </trkpt>
      <trkpt lat="49.46719" lon="1.93687">
        <ele>185.19999694824</ele>
        <time>2020-01-02T12:57:25.000Z</time>
      </trkpt>
      <trkpt lat="49.46708" lon="1.93693">
        <ele>185.19999694824</ele>
        <time>2020-01-02T12:57:30.000Z</time>
      </trkpt>
      <trkpt lat="49.46699" lon="1.93699">
        <ele>184.80000305176</ele>
        <time>2020-01-02T12:57:34.000Z</time>
      </trkpt>
      <trkpt lat="49.46697" lon="1.93701">
        <ele>184.60000610352</ele>
        <time>2020-01-02T12:57:35.000Z</time>
      </trkpt>
      <trkpt lat="49.46693" lon="1.93703">
        <ele>183.60000610352</ele>
        <time>2020-01-02T12:57:38.000Z</time>
      </trkpt>
      <trkpt lat="49.46688" lon="1.93707">
        <ele>182.60000610352</ele>
        <time>2020-01-02T12:57:41.000Z</time>
      </trkpt>
      <trkpt lat="49.46685" lon="1.93709">
        <ele>182</ele>
        <time>2020-01-02T12:57:44.000Z</time>
      </trkpt>
      <trkpt lat="49.46681" lon="1.93714">
        <ele>181.39999389648</ele>
        <time>2020-01-02T12:57:47.000Z</time>
      </trkpt>
      <trkpt lat="49.46672" lon="1.93725">
        <ele>180</ele>
        <time>2020-01-02T12:57:54.000Z</time>
      </trkpt>
      <trkpt lat="49.46664" lon="1.93735">
        <ele>179</ele>
        <time>2020-01-02T12:58:02.000Z</time>
      </trkpt>
      <trkpt lat="49.46663" lon="1.93737">
        <ele>178.80000305176</ele>
        <time>2020-01-02T12:58:03.000Z</time>
      </trkpt>
      <trkpt lat="49.4666" lon="1.93741">
        <ele>178.39999389648</ele>
        <time>2020-01-02T12:58:06.000Z</time>
      </trkpt>
      <trkpt lat="49.46546" lon="1.9386">
        <ele>183.80000305176</ele>
        <time>2020-01-02T13:00:28.000Z</time>
      </trkpt>
      <trkpt lat="49.46542" lon="1.93864">
        <ele>183.80000305176</ele>
        <time>2020-01-02T13:00:30.000Z</time>
      </trkpt>
      <trkpt lat="49.46531" lon="1.93874">
        <ele>182.60000610352</ele>
        <time>2020-01-02T13:00:36.000Z</time>
      </trkpt>
      <trkpt lat="49.46524" lon="1.93882">
        <ele>181.60000610352</ele>
        <time>2020-01-02T13:00:40.000Z</time>
      </trkpt>
      <trkpt lat="49.46521" lon="1.93886">
        <ele>181</ele>
        <time>2020-01-02T13:00:43.000Z</time>
      </trkpt>
      <trkpt lat="49.4652" lon="1.93889">
        <ele>180.80000305176</ele>
        <time>2020-01-02T13:00:44.000Z</time>
      </trkpt>
      <trkpt lat="49.46509" lon="1.93898">
        <ele>179.19999694824</ele>
        <time>2020-01-02T13:00:55.000Z</time>
      </trkpt>
      <trkpt lat="49.46505" lon="1.939">
        <ele>179</ele>
        <time>2020-01-02T13:00:57.000Z</time>
      </trkpt>
      <trkpt lat="49.46497" lon="1.93907">
        <ele>179</ele>
        <time>2020-01-02T13:01:01.000Z</time>
      </trkpt>
      <trkpt lat="49.46493" lon="1.93912">
        <ele>178.60000610352</ele>
        <time>2020-01-02T13:01:03.000Z</time>
      </trkpt>
      <trkpt lat="49.46489" lon="1.93919">
        <ele>178.39999389648</ele>
        <time>2020-01-02T13:01:06.000Z</time>
      </trkpt>
      <trkpt lat="49.46485" lon="1.93924">
        <ele>178</ele>
        <time>2020-01-02T13:01:08.000Z</time>
      </trkpt>
      <trkpt lat="49.46479" lon="1.93932">
        <ele>177.80000305176</ele>
        <time>2020-01-02T13:01:10.000Z</time>
      </trkpt>
      <trkpt lat="49.46473" lon="1.93941">
        <ele>177.80000305176</ele>
        <time>2020-01-02T13:01:12.000Z</time>
      </trkpt>
      <trkpt lat="49.46466" lon="1.93945">
        <ele>177.60000610352</ele>
        <time>2020-01-02T13:01:14.000Z</time>
      </trkpt>
      <trkpt lat="49.46458" lon="1.93946">
        <ele>177.39999389648</ele>
        <time>2020-01-02T13:01:16.000Z</time>
      </trkpt>
      <trkpt lat="49.46447" lon="1.93947">
        <ele>177</ele>
        <time>2020-01-02T13:01:19.000Z</time>
      </trkpt>
      <trkpt lat="49.46434" lon="1.93944">
        <ele>176.39999389648</ele>
        <time>2020-01-02T13:01:23.000Z</time>
      </trkpt>
      <trkpt lat="49.46416" lon="1.93939">
        <ele>176</ele>
        <time>2020-01-02T13:01:29.000Z</time>
      </trkpt>
      <trkpt lat="49.46403" lon="1.93933">
        <ele>176</ele>
        <time>2020-01-02T13:01:34.000Z</time>
      </trkpt>
      <trkpt lat="49.46393" lon="1.93929">
        <ele>176.19999694824</ele>
        <time>2020-01-02T13:01:39.000Z</time>
      </trkpt>
      <trkpt lat="49.46392" lon="1.93929">
        <ele>176.39999389648</ele>
        <time>2020-01-02T13:01:41.000Z</time>
      </trkpt>
      <trkpt lat="49.46378" lon="1.93919">
        <ele>177.60000610352</ele>
        <time>2020-01-02T13:01:50.000Z</time>
      </trkpt>
      <trkpt lat="49.46373" lon="1.93916">
        <ele>177.60000610352</ele>
        <time>2020-01-02T13:01:52.000Z</time>
      </trkpt>
      <trkpt lat="49.46361" lon="1.93908">
        <ele>178</ele>
        <time>2020-01-02T13:01:56.000Z</time>
      </trkpt>
      <trkpt lat="49.46358" lon="1.93906">
        <ele>178.19999694824</ele>
        <time>2020-01-02T13:01:57.000Z</time>
      </trkpt>
      <trkpt lat="49.46353" lon="1.93904">
        <ele>178.39999389648</ele>
        <time>2020-01-02T13:01:59.000Z</time>
      </trkpt>
      <trkpt lat="49.46346" lon="1.93899">
        <ele>178.60000610352</ele>
        <time>2020-01-02T13:02:01.000Z</time>
      </trkpt>
      <trkpt lat="49.46334" lon="1.93888">
        <ele>179</ele>
        <time>2020-01-02T13:02:05.000Z</time>
      </trkpt>
      <trkpt lat="49.46331" lon="1.93887">
        <ele>179</ele>
        <time>2020-01-02T13:02:06.000Z</time>
      </trkpt>
      <trkpt lat="49.46314" lon="1.93879">
        <ele>180.19999694824</ele>
        <time>2020-01-02T13:02:12.000Z</time>
      </trkpt>
      <trkpt lat="49.46306" lon="1.93876">
        <ele>181.19999694824</ele>
        <time>2020-01-02T13:02:16.000Z</time>
      </trkpt>
      <trkpt lat="49.46301" lon="1.93875">
        <ele>181.60000610352</ele>
        <time>2020-01-02T13:02:18.000Z</time>
      </trkpt>
      <trkpt lat="49.46294" lon="1.93875">
        <ele>182.39999389648</ele>
        <time>2020-01-02T13:02:21.000Z</time>
      </trkpt>
      <trkpt lat="49.46291" lon="1.93874">
        <ele>182.80000305176</ele>
        <time>2020-01-02T13:02:23.000Z</time>
      </trkpt>
      <trkpt lat="49.46287" lon="1.93883">
        <ele>184.60000610352</ele>
        <time>2020-01-02T13:02:43.000Z</time>
      </trkpt>
      <trkpt lat="49.46283" lon="1.93888">
        <ele>184.60000610352</ele>
        <time>2020-01-02T13:02:46.000Z</time>
      </trkpt>
      <trkpt lat="49.4628" lon="1.93901">
        <ele>185</ele>
        <time>2020-01-02T13:02:51.000Z</time>
      </trkpt>
      <trkpt lat="49.46279" lon="1.93916">
        <ele>185.39999389648</ele>
        <time>2020-01-02T13:02:56.000Z</time>
      </trkpt>
      <trkpt lat="49.46276" lon="1.93926">
        <ele>185.60000610352</ele>
        <time>2020-01-02T13:02:59.000Z</time>
      </trkpt>
      <trkpt lat="49.46275" lon="1.93935">
        <ele>185.80000305176</ele>
        <time>2020-01-02T13:03:02.000Z</time>
      </trkpt>
      <trkpt lat="49.46271" lon="1.93946">
        <ele>186.19999694824</ele>
        <time>2020-01-02T13:03:09.000Z</time>
      </trkpt>
      <trkpt lat="49.46268" lon="1.93955">
        <ele>186.60000610352</ele>
        <time>2020-01-02T13:03:25.000Z</time>
      </trkpt>
      <trkpt lat="49.46267" lon="1.93961">
        <ele>186.60000610352</ele>
        <time>2020-01-02T13:03:27.000Z</time>
      </trkpt>
      <trkpt lat="49.46263" lon="1.9398">
        <ele>186.60000610352</ele>
        <time>2020-01-02T13:03:33.000Z</time>
      </trkpt>
      <trkpt lat="49.4626" lon="1.93997">
        <ele>186</ele>
        <time>2020-01-02T13:03:38.000Z</time>
      </trkpt>
      <trkpt lat="49.46257" lon="1.94014">
        <ele>185.39999389648</ele>
        <time>2020-01-02T13:03:43.000Z</time>
      </trkpt>
      <trkpt lat="49.46252" lon="1.94026">
        <ele>184.80000305176</ele>
        <time>2020-01-02T13:03:47.000Z</time>
      </trkpt>
      <trkpt lat="49.46251" lon="1.94035">
        <ele>184.80000305176</ele>
        <time>2020-01-02T13:03:49.000Z</time>
      </trkpt>
      <trkpt lat="49.46248" lon="1.94051">
        <ele>184.19999694824</ele>
        <time>2020-01-02T13:03:53.000Z</time>
      </trkpt>
      <trkpt lat="49.46246" lon="1.9406">
        <ele>183.60000610352</ele>
        <time>2020-01-02T13:03:55.000Z</time>
      </trkpt>
      <trkpt lat="49.46245" lon="1.94077">
        <ele>182.60000610352</ele>
        <time>2020-01-02T13:03:58.000Z</time>
      </trkpt>
      <trkpt lat="49.46245" lon="1.94081">
        <ele>182.19999694824</ele>
        <time>2020-01-02T13:03:59.000Z</time>
      </trkpt>
      <trkpt lat="49.46245" lon="1.94089">
        <ele>181.80000305176</ele>
        <time>2020-01-02T13:04:01.000Z</time>
      </trkpt>
      <trkpt lat="49.46244" lon="1.94097">
        <ele>181.39999389648</ele>
        <time>2020-01-02T13:04:03.000Z</time>
      </trkpt>
      <trkpt lat="49.46243" lon="1.94103">
        <ele>180.60000610352</ele>
        <time>2020-01-02T13:04:05.000Z</time>
      </trkpt>
      <trkpt lat="49.46242" lon="1.94107">
        <ele>180.19999694824</ele>
        <time>2020-01-02T13:04:06.000Z</time>
      </trkpt>
      <trkpt lat="49.4624" lon="1.94121">
        <ele>178.80000305176</ele>
        <time>2020-01-02T13:04:10.000Z</time>
      </trkpt>
      <trkpt lat="49.46237" lon="1.94139">
        <ele>177.39999389648</ele>
        <time>2020-01-02T13:04:14.000Z</time>
      </trkpt>
      <trkpt lat="49.46235" lon="1.94147">
        <ele>176.60000610352</ele>
        <time>2020-01-02T13:04:16.000Z</time>
      </trkpt>
      <trkpt lat="49.46232" lon="1.94155">
        <ele>176</ele>
        <time>2020-01-02T13:04:18.000Z</time>
      </trkpt>
      <trkpt lat="49.46226" lon="1.94175">
        <ele>175</ele>
        <time>2020-01-02T13:04:22.000Z</time>
      </trkpt>
      <trkpt lat="49.46226" lon="1.94179">
        <ele>174.80000305176</ele>
        <time>2020-01-02T13:04:23.000Z</time>
      </trkpt>
      <trkpt lat="49.46228" lon="1.94193">
        <ele>173.80000305176</ele>
        <time>2020-01-02T13:04:26.000Z</time>
      </trkpt>
      <trkpt lat="49.46229" lon="1.94199">
        <ele>173.39999389648</ele>
        <time>2020-01-02T13:04:27.000Z</time>
      </trkpt>
      <trkpt lat="49.4623" lon="1.94205">
        <ele>173</ele>
        <time>2020-01-02T13:04:28.000Z</time>
      </trkpt>
      <trkpt lat="49.46236" lon="1.94221">
        <ele>172.19999694824</ele>
        <time>2020-01-02T13:04:31.000Z</time>
      </trkpt>
      <trkpt lat="49.46243" lon="1.94233">
        <ele>171</ele>
        <time>2020-01-02T13:04:34.000Z</time>
      </trkpt>
      <trkpt lat="49.46248" lon="1.94241">
        <ele>170.60000610352</ele>
        <time>2020-01-02T13:04:36.000Z</time>
      </trkpt>
      <trkpt lat="49.4625" lon="1.94245">
        <ele>170</ele>
        <time>2020-01-02T13:04:37.000Z</time>
      </trkpt>
      <trkpt lat="49.46254" lon="1.94255">
        <ele>168.80000305176</ele>
        <time>2020-01-02T13:04:40.000Z</time>
      </trkpt>
      <trkpt lat="49.46257" lon="1.94274">
        <ele>167.60000610352</ele>
        <time>2020-01-02T13:04:44.000Z</time>
      </trkpt>
      <trkpt lat="49.46258" lon="1.94277">
        <ele>167</ele>
        <time>2020-01-02T13:04:45.000Z</time>
      </trkpt>
      <trkpt lat="49.46258" lon="1.9428">
        <ele>166.39999389648</ele>
        <time>2020-01-02T13:04:46.000Z</time>
      </trkpt>
      <trkpt lat="49.46259" lon="1.94287">
        <ele>165.39999389648</ele>
        <time>2020-01-02T13:04:48.000Z</time>
      </trkpt>
      <trkpt lat="49.46259" lon="1.94295">
        <ele>165</ele>
        <time>2020-01-02T13:04:50.000Z</time>
      </trkpt>
      <trkpt lat="49.4626" lon="1.94303">
        <ele>164.19999694824</ele>
        <time>2020-01-02T13:04:53.000Z</time>
      </trkpt>
      <trkpt lat="49.4626" lon="1.94305">
        <ele>164</ele>
        <time>2020-01-02T13:04:54.000Z</time>
      </trkpt>
      <trkpt lat="49.46257" lon="1.94312">
        <ele>163.19999694824</ele>
        <time>2020-01-02T13:04:57.000Z</time>
      </trkpt>
      <trkpt lat="49.46253" lon="1.9433">
        <ele>162.60000610352</ele>
        <time>2020-01-02T13:05:02.000Z</time>
      </trkpt>
      <trkpt lat="49.46251" lon="1.94337">
        <ele>161.80000305176</ele>
        <time>2020-01-02T13:05:04.000Z</time>
      </trkpt>
      <trkpt lat="49.46245" lon="1.94352">
        <ele>160.60000610352</ele>
        <time>2020-01-02T13:05:08.000Z</time>
      </trkpt>
      <trkpt lat="49.46243" lon="1.94363">
        <ele>159.80000305176</ele>
        <time>2020-01-02T13:05:11.000Z</time>
      </trkpt>
      <trkpt lat="49.46242" lon="1.94364">
        <ele>159.60000610352</ele>
        <time>2020-01-02T13:05:12.000Z</time>
      </trkpt>
      <trkpt lat="49.4624" lon="1.94366">
        <ele>159.19999694824</ele>
        <time>2020-01-02T13:05:13.000Z</time>
      </trkpt>
      <trkpt lat="49.46237" lon="1.94377">
        <ele>158.19999694824</ele>
        <time>2020-01-02T13:05:17.000Z</time>
      </trkpt>
      <trkpt lat="49.46235" lon="1.94383">
        <ele>157.60000610352</ele>
        <time>2020-01-02T13:05:19.000Z</time>
      </trkpt>
      <trkpt lat="49.46233" lon="1.94387">
        <ele>157.39999389648</ele>
        <time>2020-01-02T13:05:20.000Z</time>
      </trkpt>
      <trkpt lat="49.46232" lon="1.94391">
        <ele>157.19999694824</ele>
        <time>2020-01-02T13:05:21.000Z</time>
      </trkpt>
      <trkpt lat="49.46224" lon="1.94403">
        <ele>156.39999389648</ele>
        <time>2020-01-02T13:05:24.000Z</time>
      </trkpt>
      <trkpt lat="49.46221" lon="1.94409">
        <ele>156.19999694824</ele>
        <time>2020-01-02T13:05:27.000Z</time>
      </trkpt>
      <trkpt lat="49.46223" lon="1.94515">
        <ele>164.19999694824</ele>
        <time>2020-01-02T13:08:02.000Z</time>
      </trkpt>
      <trkpt lat="49.46227" lon="1.94521">
        <ele>164.19999694824</ele>
        <time>2020-01-02T13:08:06.000Z</time>
      </trkpt>
      <trkpt lat="49.46229" lon="1.94525">
        <ele>164.19999694824</ele>
        <time>2020-01-02T13:08:08.000Z</time>
      </trkpt>
      <trkpt lat="49.46231" lon="1.94527">
        <ele>164.19999694824</ele>
        <time>2020-01-02T13:08:09.000Z</time>
      </trkpt>
      <trkpt lat="49.46239" lon="1.94535">
        <ele>165.39999389648</ele>
        <time>2020-01-02T13:08:15.000Z</time>
      </trkpt>
      <trkpt lat="49.46246" lon="1.94544">
        <ele>166.39999389648</ele>
        <time>2020-01-02T13:08:19.000Z</time>
      </trkpt>
      <trkpt lat="49.46249" lon="1.94549">
        <ele>166.80000305176</ele>
        <time>2020-01-02T13:08:21.000Z</time>
      </trkpt>
      <trkpt lat="49.46254" lon="1.94554">
        <ele>167.19999694824</ele>
        <time>2020-01-02T13:08:25.000Z</time>
      </trkpt>
      <trkpt lat="49.46163" lon="1.94739">
        <ele>208.39999389648</ele>
        <time>2020-01-02T13:13:09.000Z</time>
      </trkpt>
      <trkpt lat="49.46162" lon="1.94741">
        <ele>208.60000610352</ele>
        <time>2020-01-02T13:13:10.000Z</time>
      </trkpt>
      <trkpt lat="49.46159" lon="1.94747">
        <ele>209.39999389648</ele>
        <time>2020-01-02T13:13:15.000Z</time>
      </trkpt>
      <trkpt lat="49.46158" lon="1.9475">
        <ele>209.80000305176</ele>
        <time>2020-01-02T13:13:17.000Z</time>
      </trkpt>
      <trkpt lat="49.46156" lon="1.94755">
        <ele>210.60000610352</ele>
        <time>2020-01-02T13:13:20.000Z</time>
      </trkpt>
      <trkpt lat="49.46154" lon="1.9476">
        <ele>211.39999389648</ele>
        <time>2020-01-02T13:13:24.000Z</time>
      </trkpt>
      <trkpt lat="49.46153" lon="1.94762">
        <ele>211.80000305176</ele>
        <time>2020-01-02T13:13:26.000Z</time>
      </trkpt>
      <trkpt lat="49.46151" lon="1.94765">
        <ele>212.80000305176</ele>
        <time>2020-01-02T13:13:32.000Z</time>
      </trkpt>
      <trkpt lat="49.46149" lon="1.94781">
        <ele>214.60000610352</ele>
        <time>2020-01-02T13:14:22.000Z</time>
      </trkpt>
      <trkpt lat="49.46151" lon="1.94793">
        <ele>215.60000610352</ele>
        <time>2020-01-02T13:14:27.000Z</time>
      </trkpt>
      <trkpt lat="49.46152" lon="1.94795">
        <ele>215.80000305176</ele>
        <time>2020-01-02T13:14:28.000Z</time>
      </trkpt>
      <trkpt lat="49.46152" lon="1.94797">
        <ele>216.60000610352</ele>
        <time>2020-01-02T13:14:29.000Z</time>
      </trkpt>
      <trkpt lat="49.46153" lon="1.94801">
        <ele>217.19999694824</ele>
        <time>2020-01-02T13:14:31.000Z</time>
      </trkpt>
      <trkpt lat="49.46154" lon="1.94806">
        <ele>217.80000305176</ele>
        <time>2020-01-02T13:14:33.000Z</time>
      </trkpt>
      <trkpt lat="49.46154" lon="1.94809">
        <ele>218</ele>
        <time>2020-01-02T13:14:34.000Z</time>
      </trkpt>
      <trkpt lat="49.46155" lon="1.94817">
        <ele>218.80000305176</ele>
        <time>2020-01-02T13:14:37.000Z</time>
      </trkpt>
      <trkpt lat="49.46156" lon="1.94821">
        <ele>219.39999389648</ele>
        <time>2020-01-02T13:14:39.000Z</time>
      </trkpt>
      <trkpt lat="49.46157" lon="1.94825">
        <ele>219.60000610352</ele>
        <time>2020-01-02T13:14:40.000Z</time>
      </trkpt>
      <trkpt lat="49.46157" lon="1.94829">
        <ele>220</ele>
        <time>2020-01-02T13:14:41.000Z</time>
      </trkpt>
      <trkpt lat="49.4616" lon="1.9484">
        <ele>221</ele>
        <time>2020-01-02T13:14:44.000Z</time>
      </trkpt>
      <trkpt lat="49.46162" lon="1.94845">
        <ele>221.39999389648</ele>
        <time>2020-01-02T13:14:45.000Z</time>
      </trkpt>
      <trkpt lat="49.46164" lon="1.94854">
        <ele>222.19999694824</ele>
        <time>2020-01-02T13:14:47.000Z</time>
      </trkpt>
      <trkpt lat="49.46168" lon="1.94864">
        <ele>223.19999694824</ele>
        <time>2020-01-02T13:14:50.000Z</time>
      </trkpt>
      <trkpt lat="49.46169" lon="1.94868">
        <ele>223.39999389648</ele>
        <time>2020-01-02T13:14:51.000Z</time>
      </trkpt>
      <trkpt lat="49.46173" lon="1.94884">
        <ele>223.80000305176</ele>
        <time>2020-01-02T13:14:55.000Z</time>
      </trkpt>
      <trkpt lat="49.46173" lon="1.94888">
        <ele>224</ele>
        <time>2020-01-02T13:14:56.000Z</time>
      </trkpt>
      <trkpt lat="49.46176" lon="1.94904">
        <ele>224</ele>
        <time>2020-01-02T13:15:00.000Z</time>
      </trkpt>
      <trkpt lat="49.46177" lon="1.94909">
        <ele>224</ele>
        <time>2020-01-02T13:15:01.000Z</time>
      </trkpt>
      <trkpt lat="49.46179" lon="1.94925">
        <ele>223.80000305176</ele>
        <time>2020-01-02T13:15:05.000Z</time>
      </trkpt>
      <trkpt lat="49.4618" lon="1.94932">
        <ele>223.80000305176</ele>
        <time>2020-01-02T13:15:07.000Z</time>
      </trkpt>
      <trkpt lat="49.46181" lon="1.9494">
        <ele>223.80000305176</ele>
        <time>2020-01-02T13:15:09.000Z</time>
      </trkpt>
      <trkpt lat="49.46185" lon="1.94952">
        <ele>223.80000305176</ele>
        <time>2020-01-02T13:15:12.000Z</time>
      </trkpt>
      <trkpt lat="49.46187" lon="1.94974">
        <ele>223.80000305176</ele>
        <time>2020-01-02T13:15:17.000Z</time>
      </trkpt>
      <trkpt lat="49.46194" lon="1.94996">
        <ele>223.60000610352</ele>
        <time>2020-01-02T13:15:22.000Z</time>
      </trkpt>
      <trkpt lat="49.46198" lon="1.95021">
        <ele>222.60000610352</ele>
        <time>2020-01-02T13:15:28.000Z</time>
      </trkpt>
      <trkpt lat="49.462" lon="1.9503">
        <ele>222</ele>
        <time>2020-01-02T13:15:30.000Z</time>
      </trkpt>
      <trkpt lat="49.46203" lon="1.95044">
        <ele>221.39999389648</ele>
        <time>2020-01-02T13:15:33.000Z</time>
      </trkpt>
      <trkpt lat="49.46205" lon="1.95052">
        <ele>221</ele>
        <time>2020-01-02T13:15:35.000Z</time>
      </trkpt>
      <trkpt lat="49.46209" lon="1.95063">
        <ele>220.19999694824</ele>
        <time>2020-01-02T13:15:38.000Z</time>
      </trkpt>
      <trkpt lat="49.46211" lon="1.95068">
        <ele>219.80000305176</ele>
        <time>2020-01-02T13:15:39.000Z</time>
      </trkpt>
      <trkpt lat="49.46215" lon="1.9508">
        <ele>218.80000305176</ele>
        <time>2020-01-02T13:15:42.000Z</time>
      </trkpt>
      <trkpt lat="49.46216" lon="1.95085">
        <ele>217.80000305176</ele>
        <time>2020-01-02T13:15:44.000Z</time>
      </trkpt>
      <trkpt lat="49.46217" lon="1.95087">
        <ele>217.39999389648</ele>
        <time>2020-01-02T13:15:45.000Z</time>
      </trkpt>
      <trkpt lat="49.46217" lon="1.95089">
        <ele>217.19999694824</ele>
        <time>2020-01-02T13:15:46.000Z</time>
      </trkpt>
      <trkpt lat="49.46212" lon="1.95088">
        <ele>215.39999389648</ele>
        <time>2020-01-02T13:15:53.000Z</time>
      </trkpt>
      <trkpt lat="49.4621" lon="1.95087">
        <ele>215.19999694824</ele>
        <time>2020-01-02T13:15:54.000Z</time>
      </trkpt>
      <trkpt lat="49.46199" lon="1.95082">
        <ele>214.60000610352</ele>
        <time>2020-01-02T13:15:58.000Z</time>
      </trkpt>
      <trkpt lat="49.46194" lon="1.95081">
        <ele>214.19999694824</ele>
        <time>2020-01-02T13:16:00.000Z</time>
      </trkpt>
      <trkpt lat="49.46189" lon="1.95078">
        <ele>214.19999694824</ele>
        <time>2020-01-02T13:16:02.000Z</time>
      </trkpt>
      <trkpt lat="49.46186" lon="1.95077">
        <ele>214</ele>
        <time>2020-01-02T13:16:03.000Z</time>
      </trkpt>
      <trkpt lat="49.46171" lon="1.95068">
        <ele>214</ele>
        <time>2020-01-02T13:16:08.000Z</time>
      </trkpt>
      <trkpt lat="49.46163" lon="1.95063">
        <ele>214</ele>
        <time>2020-01-02T13:16:10.000Z</time>
      </trkpt>
      <trkpt lat="49.46155" lon="1.95057">
        <ele>213.80000305176</ele>
        <time>2020-01-02T13:16:12.000Z</time>
      </trkpt>
      <trkpt lat="49.46147" lon="1.95051">
        <ele>213.80000305176</ele>
        <time>2020-01-02T13:16:14.000Z</time>
      </trkpt>
      <trkpt lat="49.46129" lon="1.95044">
        <ele>213.39999389648</ele>
        <time>2020-01-02T13:16:18.000Z</time>
      </trkpt>
      <trkpt lat="49.46125" lon="1.95043">
        <ele>213</ele>
        <time>2020-01-02T13:16:19.000Z</time>
      </trkpt>
      <trkpt lat="49.46116" lon="1.95043">
        <ele>212</ele>
        <time>2020-01-02T13:16:22.000Z</time>
      </trkpt>
      <trkpt lat="49.46113" lon="1.95043">
        <ele>211.80000305176</ele>
        <time>2020-01-02T13:16:23.000Z</time>
      </trkpt>
      <trkpt lat="49.461" lon="1.95044">
        <ele>211.39999389648</ele>
        <time>2020-01-02T13:16:26.000Z</time>
      </trkpt>
      <trkpt lat="49.4609" lon="1.95044">
        <ele>211</ele>
        <time>2020-01-02T13:16:28.000Z</time>
      </trkpt>
      <trkpt lat="49.46078" lon="1.95044">
        <ele>210.80000305176</ele>
        <time>2020-01-02T13:16:30.000Z</time>
      </trkpt>
      <trkpt lat="49.46054" lon="1.95039">
        <ele>209.80000305176</ele>
        <time>2020-01-02T13:16:35.000Z</time>
      </trkpt>
      <trkpt lat="49.46043" lon="1.95036">
        <ele>209</ele>
        <time>2020-01-02T13:16:38.000Z</time>
      </trkpt>
      <trkpt lat="49.4604" lon="1.95033">
        <ele>208.39999389648</ele>
        <time>2020-01-02T13:16:39.000Z</time>
      </trkpt>
      <trkpt lat="49.46037" lon="1.95032">
        <ele>208.19999694824</ele>
        <time>2020-01-02T13:16:40.000Z</time>
      </trkpt>
      <trkpt lat="49.46022" lon="1.95016">
        <ele>207.19999694824</ele>
        <time>2020-01-02T13:16:45.000Z</time>
      </trkpt>
      <trkpt lat="49.46016" lon="1.95008">
        <ele>206.80000305176</ele>
        <time>2020-01-02T13:16:47.000Z</time>
      </trkpt>
      <trkpt lat="49.46008" lon="1.94993">
        <ele>206.19999694824</ele>
        <time>2020-01-02T13:16:50.000Z</time>
      </trkpt>
      <trkpt lat="49.45997" lon="1.94983">
        <ele>205</ele>
        <time>2020-01-02T13:16:54.000Z</time>
      </trkpt>
      <trkpt lat="49.45993" lon="1.9498">
        <ele>204.80000305176</ele>
        <time>2020-01-02T13:16:55.000Z</time>
      </trkpt>
      <trkpt lat="49.45981" lon="1.9497">
        <ele>204</ele>
        <time>2020-01-02T13:16:58.000Z</time>
      </trkpt>
      <trkpt lat="49.45977" lon="1.94967">
        <ele>203.80000305176</ele>
        <time>2020-01-02T13:16:59.000Z</time>
      </trkpt>
      <trkpt lat="49.45961" lon="1.94955">
        <ele>203.60000610352</ele>
        <time>2020-01-02T13:17:03.000Z</time>
      </trkpt>
      <trkpt lat="49.45941" lon="1.94952">
        <ele>203.39999389648</ele>
        <time>2020-01-02T13:17:07.000Z</time>
      </trkpt>
      <trkpt lat="49.45932" lon="1.94955">
        <ele>203</ele>
        <time>2020-01-02T13:17:09.000Z</time>
      </trkpt>
      <trkpt lat="49.45919" lon="1.94956">
        <ele>202.60000610352</ele>
        <time>2020-01-02T13:17:12.000Z</time>
      </trkpt>
      <trkpt lat="49.45912" lon="1.94971">
        <ele>202.39999389648</ele>
        <time>2020-01-02T13:17:15.000Z</time>
      </trkpt>
      <trkpt lat="49.45905" lon="1.95001">
        <ele>202</ele>
        <time>2020-01-02T13:17:20.000Z</time>
      </trkpt>
      <trkpt lat="49.45903" lon="1.95011">
        <ele>201.60000610352</ele>
        <time>2020-01-02T13:17:22.000Z</time>
      </trkpt>
      <trkpt lat="49.45901" lon="1.95025">
        <ele>201.19999694824</ele>
        <time>2020-01-02T13:17:25.000Z</time>
      </trkpt>
      <trkpt lat="49.459" lon="1.95034">
        <ele>200.80000305176</ele>
        <time>2020-01-02T13:17:27.000Z</time>
      </trkpt>
      <trkpt lat="49.45897" lon="1.95046">
        <ele>200.39999389648</ele>
        <time>2020-01-02T13:17:30.000Z</time>
      </trkpt>
      <trkpt lat="49.45896" lon="1.95052">
        <ele>199.80000305176</ele>
        <time>2020-01-02T13:17:32.000Z</time>
      </trkpt>
      <trkpt lat="49.45896" lon="1.95058">
        <ele>199.39999389648</ele>
        <time>2020-01-02T13:17:34.000Z</time>
      </trkpt>
      <trkpt lat="49.45893" lon="1.95077">
        <ele>198.80000305176</ele>
        <time>2020-01-02T13:17:38.000Z</time>
      </trkpt>
      <trkpt lat="49.45889" lon="1.95092">
        <ele>198</ele>
        <time>2020-01-02T13:17:41.000Z</time>
      </trkpt>
      <trkpt lat="49.45887" lon="1.95101">
        <ele>197.80000305176</ele>
        <time>2020-01-02T13:17:43.000Z</time>
      </trkpt>
      <trkpt lat="49.45885" lon="1.95111">
        <ele>197.19999694824</ele>
        <time>2020-01-02T13:17:46.000Z</time>
      </trkpt>
      <trkpt lat="49.45882" lon="1.95119">
        <ele>196.60000610352</ele>
        <time>2020-01-02T13:17:48.000Z</time>
      </trkpt>
      <trkpt lat="49.45878" lon="1.95131">
        <ele>195.80000305176</ele>
        <time>2020-01-02T13:17:51.000Z</time>
      </trkpt>
      <trkpt lat="49.45876" lon="1.95135">
        <ele>195.60000610352</ele>
        <time>2020-01-02T13:17:52.000Z</time>
      </trkpt>
      <trkpt lat="49.45872" lon="1.95149">
        <ele>194.80000305176</ele>
        <time>2020-01-02T13:17:56.000Z</time>
      </trkpt>
      <trkpt lat="49.45871" lon="1.95153">
        <ele>194.39999389648</ele>
        <time>2020-01-02T13:17:57.000Z</time>
      </trkpt>
      <trkpt lat="49.45864" lon="1.9517">
        <ele>193.39999389648</ele>
        <time>2020-01-02T13:18:01.000Z</time>
      </trkpt>
      <trkpt lat="49.45862" lon="1.95173">
        <ele>193</ele>
        <time>2020-01-02T13:18:02.000Z</time>
      </trkpt>
      <trkpt lat="49.45859" lon="1.95181">
        <ele>192.39999389648</ele>
        <time>2020-01-02T13:18:04.000Z</time>
      </trkpt>
      <trkpt lat="49.45855" lon="1.95189">
        <ele>191.39999389648</ele>
        <time>2020-01-02T13:18:06.000Z</time>
      </trkpt>
      <trkpt lat="49.45853" lon="1.95193">
        <ele>191.19999694824</ele>
        <time>2020-01-02T13:18:07.000Z</time>
      </trkpt>
      <trkpt lat="49.45845" lon="1.95206">
        <ele>190</ele>
        <time>2020-01-02T13:18:10.000Z</time>
      </trkpt>
      <trkpt lat="49.45838" lon="1.95212">
        <ele>189</ele>
        <time>2020-01-02T13:18:12.000Z</time>
      </trkpt>
      <trkpt lat="49.45831" lon="1.95217">
        <ele>187.80000305176</ele>
        <time>2020-01-02T13:18:14.000Z</time>
      </trkpt>
      <trkpt lat="49.4582" lon="1.9522">
        <ele>186.19999694824</ele>
        <time>2020-01-02T13:18:17.000Z</time>
      </trkpt>
      <trkpt lat="49.45813" lon="1.95221">
        <ele>185.19999694824</ele>
        <time>2020-01-02T13:18:19.000Z</time>
      </trkpt>
      <trkpt lat="49.45801" lon="1.95224">
        <ele>183.60000610352</ele>
        <time>2020-01-02T13:18:22.000Z</time>
      </trkpt>
      <trkpt lat="49.45797" lon="1.95223">
        <ele>183.19999694824</ele>
        <time>2020-01-02T13:18:23.000Z</time>
      </trkpt>
      <trkpt lat="49.4579" lon="1.95222">
        <ele>182.39999389648</ele>
        <time>2020-01-02T13:18:25.000Z</time>
      </trkpt>
      <trkpt lat="49.45778" lon="1.9522">
        <ele>181.60000610352</ele>
        <time>2020-01-02T13:18:28.000Z</time>
      </trkpt>
      <trkpt lat="49.45774" lon="1.95219">
        <ele>181.39999389648</ele>
        <time>2020-01-02T13:18:29.000Z</time>
      </trkpt>
      <trkpt lat="49.45763" lon="1.95212">
        <ele>180.19999694824</ele>
        <time>2020-01-02T13:18:33.000Z</time>
      </trkpt>
      <trkpt lat="49.45748" lon="1.95192">
        <ele>179</ele>
        <time>2020-01-02T13:18:38.000Z</time>
      </trkpt>
      <trkpt lat="49.45739" lon="1.95184">
        <ele>177.80000305176</ele>
        <time>2020-01-02T13:18:41.000Z</time>
      </trkpt>
      <trkpt lat="49.45737" lon="1.95182">
        <ele>177.60000610352</ele>
        <time>2020-01-02T13:18:42.000Z</time>
      </trkpt>
      <trkpt lat="49.45731" lon="1.95177">
        <ele>176.39999389648</ele>
        <time>2020-01-02T13:18:45.000Z</time>
      </trkpt>
      <trkpt lat="49.45729" lon="1.95176">
        <ele>176</ele>
        <time>2020-01-02T13:18:46.000Z</time>
      </trkpt>
      <trkpt lat="49.45721" lon="1.95173">
        <ele>174.60000610352</ele>
        <time>2020-01-02T13:18:53.000Z</time>
      </trkpt>
      <trkpt lat="49.45704" lon="1.95161">
        <ele>174.39999389648</ele>
        <time>2020-01-02T13:18:58.000Z</time>
      </trkpt>
      <trkpt lat="49.45697" lon="1.95158">
        <ele>174</ele>
        <time>2020-01-02T13:19:00.000Z</time>
      </trkpt>
      <trkpt lat="49.45694" lon="1.95155">
        <ele>173.80000305176</ele>
        <time>2020-01-02T13:19:01.000Z</time>
      </trkpt>
      <trkpt lat="49.45692" lon="1.95152">
        <ele>173.39999389648</ele>
        <time>2020-01-02T13:19:02.000Z</time>
      </trkpt>
      <trkpt lat="49.45691" lon="1.95142">
        <ele>172.39999389648</ele>
        <time>2020-01-02T13:19:05.000Z</time>
      </trkpt>
      <trkpt lat="49.45692" lon="1.95128">
        <ele>171.19999694824</ele>
        <time>2020-01-02T13:19:09.000Z</time>
      </trkpt>
      <trkpt lat="49.45692" lon="1.95126">
        <ele>170.80000305176</ele>
        <time>2020-01-02T13:19:10.000Z</time>
      </trkpt>
      <trkpt lat="49.4569" lon="1.95123">
        <ele>170.60000610352</ele>
        <time>2020-01-02T13:19:11.000Z</time>
      </trkpt>
      <trkpt lat="49.45684" lon="1.9512">
        <ele>170</ele>
        <time>2020-01-02T13:19:13.000Z</time>
      </trkpt>
      <trkpt lat="49.45681" lon="1.95118">
        <ele>169.80000305176</ele>
        <time>2020-01-02T13:19:14.000Z</time>
      </trkpt>
      <trkpt lat="49.45664" lon="1.95114">
        <ele>168.80000305176</ele>
        <time>2020-01-02T13:19:19.000Z</time>
      </trkpt>
      <trkpt lat="49.45661" lon="1.95114">
        <ele>168.39999389648</ele>
        <time>2020-01-02T13:19:20.000Z</time>
      </trkpt>
      <trkpt lat="49.45651" lon="1.95113">
        <ele>167.60000610352</ele>
        <time>2020-01-02T13:19:23.000Z</time>
      </trkpt>
      <trkpt lat="49.45646" lon="1.95114">
        <ele>167.39999389648</ele>
        <time>2020-01-02T13:19:25.000Z</time>
      </trkpt>
      <trkpt lat="49.45635" lon="1.95116">
        <ele>166.60000610352</ele>
        <time>2020-01-02T13:19:30.000Z</time>
      </trkpt>
      <trkpt lat="49.45626" lon="1.95124">
        <ele>166.60000610352</ele>
        <time>2020-01-02T13:19:35.000Z</time>
      </trkpt>
      <trkpt lat="49.45619" lon="1.95126">
        <ele>166.80000305176</ele>
        <time>2020-01-02T13:19:42.000Z</time>
      </trkpt>
      <trkpt lat="49.45606" lon="1.95142">
        <ele>166.80000305176</ele>
        <time>2020-01-02T13:20:13.000Z</time>
      </trkpt>
      <trkpt lat="49.45591" lon="1.95155">
        <ele>166.80000305176</ele>
        <time>2020-01-02T13:20:19.000Z</time>
      </trkpt>
      <trkpt lat="49.45573" lon="1.95164">
        <ele>166</ele>
        <time>2020-01-02T13:20:25.000Z</time>
      </trkpt>
      <trkpt lat="49.45568" lon="1.95167">
        <ele>165.60000610352</ele>
        <time>2020-01-02T13:20:27.000Z</time>
      </trkpt>
      <trkpt lat="49.45558" lon="1.95179">
        <ele>165</ele>
        <time>2020-01-02T13:20:30.000Z</time>
      </trkpt>
      <trkpt lat="49.45549" lon="1.9519">
        <ele>164.39999389648</ele>
        <time>2020-01-02T13:20:33.000Z</time>
      </trkpt>
      <trkpt lat="49.45541" lon="1.95199">
        <ele>164</ele>
        <time>2020-01-02T13:20:35.000Z</time>
      </trkpt>
      <trkpt lat="49.45534" lon="1.95206">
        <ele>163.39999389648</ele>
        <time>2020-01-02T13:20:37.000Z</time>
      </trkpt>
      <trkpt lat="49.45522" lon="1.95219">
        <ele>162.60000610352</ele>
        <time>2020-01-02T13:20:40.000Z</time>
      </trkpt>
      <trkpt lat="49.45518" lon="1.95223">
        <ele>162</ele>
        <time>2020-01-02T13:20:41.000Z</time>
      </trkpt>
      <trkpt lat="49.45505" lon="1.95237">
        <ele>160.80000305176</ele>
        <time>2020-01-02T13:20:44.000Z</time>
      </trkpt>
      <trkpt lat="49.45498" lon="1.95246">
        <ele>160.19999694824</ele>
        <time>2020-01-02T13:20:46.000Z</time>
      </trkpt>
      <trkpt lat="49.45494" lon="1.95252">
        <ele>159.60000610352</ele>
        <time>2020-01-02T13:20:47.000Z</time>
      </trkpt>
      <trkpt lat="49.45482" lon="1.95269">
        <ele>158.39999389648</ele>
        <time>2020-01-02T13:20:50.000Z</time>
      </trkpt>
      <trkpt lat="49.45474" lon="1.95279">
        <ele>157.80000305176</ele>
        <time>2020-01-02T13:20:52.000Z</time>
      </trkpt>
      <trkpt lat="49.45451" lon="1.95298">
        <ele>157.39999389648</ele>
        <time>2020-01-02T13:20:57.000Z</time>
      </trkpt>
      <trkpt lat="49.45425" lon="1.95311">
        <ele>156.60000610352</ele>
        <time>2020-01-02T13:21:02.000Z</time>
      </trkpt>
      <trkpt lat="49.45414" lon="1.95315">
        <ele>156.39999389648</ele>
        <time>2020-01-02T13:21:04.000Z</time>
      </trkpt>
      <trkpt lat="49.45409" lon="1.95316">
        <ele>156.19999694824</ele>
        <time>2020-01-02T13:21:05.000Z</time>
      </trkpt>
      <trkpt lat="49.454" lon="1.95317">
        <ele>155.60000610352</ele>
        <time>2020-01-02T13:21:07.000Z</time>
      </trkpt>
      <trkpt lat="49.45395" lon="1.95318">
        <ele>155.19999694824</ele>
        <time>2020-01-02T13:21:08.000Z</time>
      </trkpt>
      <trkpt lat="49.45381" lon="1.95322">
        <ele>153.80000305176</ele>
        <time>2020-01-02T13:21:11.000Z</time>
      </trkpt>
      <trkpt lat="49.45377" lon="1.95323">
        <ele>153.19999694824</ele>
        <time>2020-01-02T13:21:12.000Z</time>
      </trkpt>
      <trkpt lat="49.45372" lon="1.95324">
        <ele>152.39999389648</ele>
        <time>2020-01-02T13:21:13.000Z</time>
      </trkpt>
      <trkpt lat="49.45362" lon="1.95324">
        <ele>151</ele>
        <time>2020-01-02T13:21:15.000Z</time>
      </trkpt>
      <trkpt lat="49.45352" lon="1.95324">
        <ele>150.19999694824</ele>
        <time>2020-01-02T13:21:17.000Z</time>
      </trkpt>
      <trkpt lat="49.45347" lon="1.95324">
        <ele>149.80000305176</ele>
        <time>2020-01-02T13:21:18.000Z</time>
      </trkpt>
      <trkpt lat="49.45342" lon="1.95325">
        <ele>149.39999389648</ele>
        <time>2020-01-02T13:21:19.000Z</time>
      </trkpt>
      <trkpt lat="49.45332" lon="1.95326">
        <ele>148.19999694824</ele>
        <time>2020-01-02T13:21:21.000Z</time>
      </trkpt>
      <trkpt lat="49.4532" lon="1.95327">
        <ele>147.19999694824</ele>
        <time>2020-01-02T13:21:23.000Z</time>
      </trkpt>
      <trkpt lat="49.45314" lon="1.95327">
        <ele>146.60000610352</ele>
        <time>2020-01-02T13:21:24.000Z</time>
      </trkpt>
      <trkpt lat="49.45302" lon="1.95328">
        <ele>145.19999694824</ele>
        <time>2020-01-02T13:21:26.000Z</time>
      </trkpt>
      <trkpt lat="49.45298" lon="1.95329">
        <ele>144.60000610352</ele>
        <time>2020-01-02T13:21:27.000Z</time>
      </trkpt>
      <trkpt lat="49.45292" lon="1.9533">
        <ele>144</ele>
        <time>2020-01-02T13:21:28.000Z</time>
      </trkpt>
      <trkpt lat="49.45281" lon="1.9533">
        <ele>143</ele>
        <time>2020-01-02T13:21:30.000Z</time>
      </trkpt>
      <trkpt lat="49.45276" lon="1.95329">
        <ele>142.19999694824</ele>
        <time>2020-01-02T13:21:31.000Z</time>
      </trkpt>
      <trkpt lat="49.45272" lon="1.95329">
        <ele>141.60000610352</ele>
        <time>2020-01-02T13:21:32.000Z</time>
      </trkpt>
      <trkpt lat="49.45263" lon="1.9533">
        <ele>140.39999389648</ele>
        <time>2020-01-02T13:21:34.000Z</time>
      </trkpt>
      <trkpt lat="49.45259" lon="1.9533">
        <ele>139.60000610352</ele>
        <time>2020-01-02T13:21:35.000Z</time>
      </trkpt>
      <trkpt lat="49.45253" lon="1.95331">
        <ele>139</ele>
        <time>2020-01-02T13:21:36.000Z</time>
      </trkpt>
      <trkpt lat="49.45237" lon="1.95329">
        <ele>138</ele>
        <time>2020-01-02T13:21:39.000Z</time>
      </trkpt>
      <trkpt lat="49.45227" lon="1.95325">
        <ele>136.80000305176</ele>
        <time>2020-01-02T13:21:41.000Z</time>
      </trkpt>
      <trkpt lat="49.45222" lon="1.95323">
        <ele>136.19999694824</ele>
        <time>2020-01-02T13:21:42.000Z</time>
      </trkpt>
      <trkpt lat="49.45217" lon="1.95321">
        <ele>135.80000305176</ele>
        <time>2020-01-02T13:21:43.000Z</time>
      </trkpt>
      <trkpt lat="49.45213" lon="1.95318">
        <ele>135.19999694824</ele>
        <time>2020-01-02T13:21:44.000Z</time>
      </trkpt>
      <trkpt lat="49.45208" lon="1.95316">
        <ele>134.39999389648</ele>
        <time>2020-01-02T13:21:45.000Z</time>
      </trkpt>
      <trkpt lat="49.45196" lon="1.95307">
        <ele>133</ele>
        <time>2020-01-02T13:21:48.000Z</time>
      </trkpt>
      <trkpt lat="49.45193" lon="1.95304">
        <ele>132.80000305176</ele>
        <time>2020-01-02T13:21:49.000Z</time>
      </trkpt>
      <trkpt lat="49.45179" lon="1.95296">
        <ele>132.19999694824</ele>
        <time>2020-01-02T13:21:52.000Z</time>
      </trkpt>
      <trkpt lat="49.45173" lon="1.95294">
        <ele>132</ele>
        <time>2020-01-02T13:21:53.000Z</time>
      </trkpt>
      <trkpt lat="49.45168" lon="1.95293">
        <ele>132</ele>
        <time>2020-01-02T13:21:54.000Z</time>
      </trkpt>
      <trkpt lat="49.45159" lon="1.95289">
        <ele>131.80000305176</ele>
        <time>2020-01-02T13:21:56.000Z</time>
      </trkpt>
      <trkpt lat="49.45138" lon="1.95279">
        <ele>131.60000610352</ele>
        <time>2020-01-02T13:22:00.000Z</time>
      </trkpt>
      <trkpt lat="49.45114" lon="1.95275">
        <ele>131.39999389648</ele>
        <time>2020-01-02T13:22:04.000Z</time>
      </trkpt>
      <trkpt lat="49.45104" lon="1.95274">
        <ele>131</ele>
        <time>2020-01-02T13:22:06.000Z</time>
      </trkpt>
      <trkpt lat="49.45099" lon="1.95274">
        <ele>130.60000610352</ele>
        <time>2020-01-02T13:22:07.000Z</time>
      </trkpt>
      <trkpt lat="49.45095" lon="1.95275">
        <ele>129.80000305176</ele>
        <time>2020-01-02T13:22:08.000Z</time>
      </trkpt>
      <trkpt lat="49.45086" lon="1.95275">
        <ele>128.80000305176</ele>
        <time>2020-01-02T13:22:10.000Z</time>
      </trkpt>
      <trkpt lat="49.45068" lon="1.95277">
        <ele>127.59999847412</ele>
        <time>2020-01-02T13:22:14.000Z</time>
      </trkpt>
      <trkpt lat="49.45065" lon="1.95278">
        <ele>127.40000152588</ele>
        <time>2020-01-02T13:22:15.000Z</time>
      </trkpt>
      <trkpt lat="49.4505" lon="1.95277">
        <ele>126.40000152588</ele>
        <time>2020-01-02T13:22:19.000Z</time>
      </trkpt>
      <trkpt lat="49.45046" lon="1.95278">
        <ele>125.80000305176</ele>
        <time>2020-01-02T13:22:20.000Z</time>
      </trkpt>
      <trkpt lat="49.45039" lon="1.95281">
        <ele>125.19999694824</ele>
        <time>2020-01-02T13:22:22.000Z</time>
      </trkpt>
      <trkpt lat="49.45033" lon="1.95283">
        <ele>124.59999847412</ele>
        <time>2020-01-02T13:22:24.000Z</time>
      </trkpt>
      <trkpt lat="49.45027" lon="1.95288">
        <ele>124.19999694824</ele>
        <time>2020-01-02T13:22:26.000Z</time>
      </trkpt>
      <trkpt lat="49.45024" lon="1.95292">
        <ele>124.19999694824</ele>
        <time>2020-01-02T13:22:27.000Z</time>
      </trkpt>
      <trkpt lat="49.45021" lon="1.95295">
        <ele>124</ele>
        <time>2020-01-02T13:22:28.000Z</time>
      </trkpt>
      <trkpt lat="49.45009" lon="1.95308">
        <ele>123.19999694824</ele>
        <time>2020-01-02T13:22:32.000Z</time>
      </trkpt>
      <trkpt lat="49.44998" lon="1.95324">
        <ele>123.19999694824</ele>
        <time>2020-01-02T13:22:37.000Z</time>
      </trkpt>
      <trkpt lat="49.4499" lon="1.95339">
        <ele>124.80000305176</ele>
        <time>2020-01-02T13:22:43.000Z</time>
      </trkpt>
      <trkpt lat="49.44986" lon="1.95348">
        <ele>125.19999694824</ele>
        <time>2020-01-02T13:22:45.000Z</time>
      </trkpt>
      <trkpt lat="49.44981" lon="1.95359">
        <ele>126.19999694824</ele>
        <time>2020-01-02T13:22:48.000Z</time>
      </trkpt>
      <trkpt lat="49.44972" lon="1.95379">
        <ele>127.59999847412</ele>
        <time>2020-01-02T13:22:52.000Z</time>
      </trkpt>
      <trkpt lat="49.44966" lon="1.95394">
        <ele>128.80000305176</ele>
        <time>2020-01-02T13:22:56.000Z</time>
      </trkpt>
      <trkpt lat="49.44964" lon="1.95397">
        <ele>129</ele>
        <time>2020-01-02T13:22:57.000Z</time>
      </trkpt>
      <trkpt lat="49.44961" lon="1.95407">
        <ele>129.80000305176</ele>
        <time>2020-01-02T13:22:59.000Z</time>
      </trkpt>
      <trkpt lat="49.44958" lon="1.95418">
        <ele>130.80000305176</ele>
        <time>2020-01-02T13:23:01.000Z</time>
      </trkpt>
      <trkpt lat="49.44955" lon="1.95429">
        <ele>131.19999694824</ele>
        <time>2020-01-02T13:23:03.000Z</time>
      </trkpt>
      <trkpt lat="49.44945" lon="1.95463">
        <ele>131.39999389648</ele>
        <time>2020-01-02T13:23:09.000Z</time>
      </trkpt>
      <trkpt lat="49.44925" lon="1.95494">
        <ele>131.39999389648</ele>
        <time>2020-01-02T13:23:17.000Z</time>
      </trkpt>
      <trkpt lat="49.44897" lon="1.95519">
        <ele>131.39999389648</ele>
        <time>2020-01-02T13:23:25.000Z</time>
      </trkpt>
      <trkpt lat="49.44876" lon="1.95532">
        <ele>131.60000610352</ele>
        <time>2020-01-02T13:23:31.000Z</time>
      </trkpt>
      <trkpt lat="49.44852" lon="1.95539">
        <ele>131.60000610352</ele>
        <time>2020-01-02T13:23:37.000Z</time>
      </trkpt>
      <trkpt lat="49.44831" lon="1.9554">
        <ele>131.60000610352</ele>
        <time>2020-01-02T13:23:42.000Z</time>
      </trkpt>
      <trkpt lat="49.44806" lon="1.95552">
        <ele>131.39999389648</ele>
        <time>2020-01-02T13:23:48.000Z</time>
      </trkpt>
      <trkpt lat="49.44779" lon="1.95575">
        <ele>131.60000610352</ele>
        <time>2020-01-02T13:23:55.000Z</time>
      </trkpt>
      <trkpt lat="49.4477" lon="1.95583">
        <ele>131.80000305176</ele>
        <time>2020-01-02T13:23:57.000Z</time>
      </trkpt>
      <trkpt lat="49.44749" lon="1.95611">
        <ele>132.60000610352</ele>
        <time>2020-01-02T13:24:03.000Z</time>
      </trkpt>
      <trkpt lat="49.44734" lon="1.95628">
        <ele>132.60000610352</ele>
        <time>2020-01-02T13:24:09.000Z</time>
      </trkpt>
      <trkpt lat="49.44732" lon="1.95631">
        <ele>132.80000305176</ele>
        <time>2020-01-02T13:24:10.000Z</time>
      </trkpt>
      <trkpt lat="49.44729" lon="1.95633">
        <ele>133</ele>
        <time>2020-01-02T13:24:12.000Z</time>
      </trkpt>
      <trkpt lat="49.44726" lon="1.95636">
        <ele>133.19999694824</ele>
        <time>2020-01-02T13:24:14.000Z</time>
      </trkpt>
      <trkpt lat="49.44722" lon="1.95642">
        <ele>133.19999694824</ele>
        <time>2020-01-02T13:24:16.000Z</time>
      </trkpt>
      <trkpt lat="49.44718" lon="1.95652">
        <ele>133.19999694824</ele>
        <time>2020-01-02T13:24:18.000Z</time>
      </trkpt>
      <trkpt lat="49.4471" lon="1.95669">
        <ele>133</ele>
        <time>2020-01-02T13:24:22.000Z</time>
      </trkpt>
      <trkpt lat="49.44711" lon="1.95675">
        <ele>132.80000305176</ele>
        <time>2020-01-02T13:24:23.000Z</time>
      </trkpt>
      <trkpt lat="49.44708" lon="1.95685">
        <ele>132.80000305176</ele>
        <time>2020-01-02T13:24:25.000Z</time>
      </trkpt>
      <trkpt lat="49.44705" lon="1.95697">
        <ele>132.60000610352</ele>
        <time>2020-01-02T13:24:27.000Z</time>
      </trkpt>
      <trkpt lat="49.44701" lon="1.9572">
        <ele>132.60000610352</ele>
        <time>2020-01-02T13:24:31.000Z</time>
      </trkpt>
      <trkpt lat="49.447" lon="1.95746">
        <ele>132.60000610352</ele>
        <time>2020-01-02T13:24:36.000Z</time>
      </trkpt>
      <trkpt lat="49.44698" lon="1.95751">
        <ele>132.60000610352</ele>
        <time>2020-01-02T13:24:37.000Z</time>
      </trkpt>
      <trkpt lat="49.44695" lon="1.95766">
        <ele>132.39999389648</ele>
        <time>2020-01-02T13:24:40.000Z</time>
      </trkpt>
      <trkpt lat="49.44694" lon="1.95777">
        <ele>131.80000305176</ele>
        <time>2020-01-02T13:24:43.000Z</time>
      </trkpt>
      <trkpt lat="49.44692" lon="1.95782">
        <ele>131.60000610352</ele>
        <time>2020-01-02T13:24:44.000Z</time>
      </trkpt>
      <trkpt lat="49.44688" lon="1.95795">
        <ele>130.60000610352</ele>
        <time>2020-01-02T13:24:47.000Z</time>
      </trkpt>
      <trkpt lat="49.44686" lon="1.95803">
        <ele>130.19999694824</ele>
        <time>2020-01-02T13:24:49.000Z</time>
      </trkpt>
      <trkpt lat="49.44683" lon="1.95813">
        <ele>129.60000610352</ele>
        <time>2020-01-02T13:24:51.000Z</time>
      </trkpt>
      <trkpt lat="49.44679" lon="1.9583">
        <ele>128.80000305176</ele>
        <time>2020-01-02T13:24:54.000Z</time>
      </trkpt>
      <trkpt lat="49.44677" lon="1.95844">
        <ele>128.60000610352</ele>
        <time>2020-01-02T13:24:57.000Z</time>
      </trkpt>
      <trkpt lat="49.44676" lon="1.95849">
        <ele>128.19999694824</ele>
        <time>2020-01-02T13:24:59.000Z</time>
      </trkpt>
      <trkpt lat="49.44676" lon="1.95854">
        <ele>128.19999694824</ele>
        <time>2020-01-02T13:25:01.000Z</time>
      </trkpt>
      <trkpt lat="49.44675" lon="1.9587">
        <ele>128</ele>
        <time>2020-01-02T13:25:06.000Z</time>
      </trkpt>
      <trkpt lat="49.44673" lon="1.95882">
        <ele>127.80000305176</ele>
        <time>2020-01-02T13:25:12.000Z</time>
      </trkpt>
      <trkpt lat="49.44671" lon="1.95899">
        <ele>127.80000305176</ele>
        <time>2020-01-02T13:25:18.000Z</time>
      </trkpt>
      <trkpt lat="49.4467" lon="1.95906">
        <ele>128</ele>
        <time>2020-01-02T13:25:20.000Z</time>
      </trkpt>
      <trkpt lat="49.44665" lon="1.95928">
        <ele>128</ele>
        <time>2020-01-02T13:25:25.000Z</time>
      </trkpt>
      <trkpt lat="49.4466" lon="1.95947">
        <ele>128.19999694824</ele>
        <time>2020-01-02T13:25:29.000Z</time>
      </trkpt>
      <trkpt lat="49.44653" lon="1.95978">
        <ele>128.39999389648</ele>
        <time>2020-01-02T13:25:35.000Z</time>
      </trkpt>
      <trkpt lat="49.44651" lon="1.95998">
        <ele>128.80000305176</ele>
        <time>2020-01-02T13:25:40.000Z</time>
      </trkpt>
      <trkpt lat="49.44648" lon="1.96024">
        <ele>129.60000610352</ele>
        <time>2020-01-02T13:25:47.000Z</time>
      </trkpt>
      <trkpt lat="49.44649" lon="1.96045">
        <ele>130.60000610352</ele>
        <time>2020-01-02T13:25:52.000Z</time>
      </trkpt>
      <trkpt lat="49.4465" lon="1.96063">
        <ele>131.39999389648</ele>
        <time>2020-01-02T13:25:56.000Z</time>
      </trkpt>
      <trkpt lat="49.44651" lon="1.96079">
        <ele>131.80000305176</ele>
        <time>2020-01-02T13:26:00.000Z</time>
      </trkpt>
      <trkpt lat="49.44652" lon="1.96085">
        <ele>131.80000305176</ele>
        <time>2020-01-02T13:26:02.000Z</time>
      </trkpt>
      <trkpt lat="49.44656" lon="1.96091">
        <ele>132.39999389648</ele>
        <time>2020-01-02T13:26:05.000Z</time>
      </trkpt>
      <trkpt lat="49.44661" lon="1.96093">
        <ele>132.60000610352</ele>
        <time>2020-01-02T13:26:07.000Z</time>
      </trkpt>
      <trkpt lat="49.44662" lon="1.96093">
        <ele>132.80000305176</ele>
        <time>2020-01-02T13:26:08.000Z</time>
      </trkpt>
      <trkpt lat="49.44671" lon="1.96094">
        <ele>133</ele>
        <time>2020-01-02T13:26:13.000Z</time>
      </trkpt>
      <trkpt lat="49.44685" lon="1.96094">
        <ele>133.60000610352</ele>
        <time>2020-01-02T13:26:19.000Z</time>
      </trkpt>
      <trkpt lat="49.44687" lon="1.96094">
        <ele>133.80000305176</ele>
        <time>2020-01-02T13:26:20.000Z</time>
      </trkpt>
      <trkpt lat="49.44702" lon="1.96092">
        <ele>134.80000305176</ele>
        <time>2020-01-02T13:26:25.000Z</time>
      </trkpt>
      <trkpt lat="49.44704" lon="1.96092">
        <ele>135</ele>
        <time>2020-01-02T13:26:26.000Z</time>
      </trkpt>
      <trkpt lat="49.44708" lon="1.96093">
        <ele>135.60000610352</ele>
        <time>2020-01-02T13:26:28.000Z</time>
      </trkpt>
      <trkpt lat="49.44712" lon="1.96095">
        <ele>135.80000305176</ele>
        <time>2020-01-02T13:26:30.000Z</time>
      </trkpt>
      <trkpt lat="49.44715" lon="1.96096">
        <ele>135.80000305176</ele>
        <time>2020-01-02T13:26:31.000Z</time>
      </trkpt>
      <trkpt lat="49.44724" lon="1.96103">
        <ele>136.60000610352</ele>
        <time>2020-01-02T13:26:35.000Z</time>
      </trkpt>
      <trkpt lat="49.44726" lon="1.96105">
        <ele>136.60000610352</ele>
        <time>2020-01-02T13:26:36.000Z</time>
      </trkpt>
      <trkpt lat="49.4473" lon="1.96111">
        <ele>137</ele>
        <time>2020-01-02T13:26:38.000Z</time>
      </trkpt>
      <trkpt lat="49.44741" lon="1.96128">
        <ele>138</ele>
        <time>2020-01-02T13:26:44.000Z</time>
      </trkpt>
      <trkpt lat="49.44742" lon="1.96131">
        <ele>138.19999694824</ele>
        <time>2020-01-02T13:26:45.000Z</time>
      </trkpt>
      <trkpt lat="49.44744" lon="1.96138">
        <ele>138.60000610352</ele>
        <time>2020-01-02T13:26:47.000Z</time>
      </trkpt>
      <trkpt lat="49.44746" lon="1.96145">
        <ele>138.80000305176</ele>
        <time>2020-01-02T13:26:49.000Z</time>
      </trkpt>
      <trkpt lat="49.44752" lon="1.96153">
        <ele>139</ele>
        <time>2020-01-02T13:26:51.000Z</time>
      </trkpt>
      <trkpt lat="49.44753" lon="1.96157">
        <ele>139.19999694824</ele>
        <time>2020-01-02T13:26:52.000Z</time>
      </trkpt>
      <trkpt lat="49.44757" lon="1.96165">
        <ele>139.60000610352</ele>
        <time>2020-01-02T13:26:54.000Z</time>
      </trkpt>
      <trkpt lat="49.44758" lon="1.96167">
        <ele>139.80000305176</ele>
        <time>2020-01-02T13:26:55.000Z</time>
      </trkpt>
      <trkpt lat="49.44764" lon="1.9618">
        <ele>140</ele>
        <time>2020-01-02T13:26:58.000Z</time>
      </trkpt>
      <trkpt lat="49.44768" lon="1.96188">
        <ele>140.39999389648</ele>
        <time>2020-01-02T13:27:00.000Z</time>
      </trkpt>
      <trkpt lat="49.44771" lon="1.96198">
        <ele>141.19999694824</ele>
        <time>2020-01-02T13:27:03.000Z</time>
      </trkpt>
      <trkpt lat="49.44776" lon="1.96209">
        <ele>141.39999389648</ele>
        <time>2020-01-02T13:27:06.000Z</time>
      </trkpt>
      <trkpt lat="49.44777" lon="1.96216">
        <ele>141.80000305176</ele>
        <time>2020-01-02T13:27:08.000Z</time>
      </trkpt>
      <trkpt lat="49.44783" lon="1.96226">
        <ele>142.39999389648</ele>
        <time>2020-01-02T13:27:11.000Z</time>
      </trkpt>
      <trkpt lat="49.44787" lon="1.96232">
        <ele>142.80000305176</ele>
        <time>2020-01-02T13:27:13.000Z</time>
      </trkpt>
      <trkpt lat="49.44791" lon="1.9624">
        <ele>143.80000305176</ele>
        <time>2020-01-02T13:27:16.000Z</time>
      </trkpt>
      <trkpt lat="49.44792" lon="1.96242">
        <ele>144</ele>
        <time>2020-01-02T13:27:17.000Z</time>
      </trkpt>
      <trkpt lat="49.44805" lon="1.96256">
        <ele>145</ele>
        <time>2020-01-02T13:27:23.000Z</time>
      </trkpt>
      <trkpt lat="49.44812" lon="1.96268">
        <ele>145.60000610352</ele>
        <time>2020-01-02T13:27:27.000Z</time>
      </trkpt>
      <trkpt lat="49.44814" lon="1.96272">
        <ele>145.80000305176</ele>
        <time>2020-01-02T13:27:28.000Z</time>
      </trkpt>
      <trkpt lat="49.44817" lon="1.96277">
        <ele>146</ele>
        <time>2020-01-02T13:27:30.000Z</time>
      </trkpt>
      <trkpt lat="49.44819" lon="1.96279">
        <ele>146.39999389648</ele>
        <time>2020-01-02T13:27:31.000Z</time>
      </trkpt>
      <trkpt lat="49.44823" lon="1.96286">
        <ele>146.80000305176</ele>
        <time>2020-01-02T13:27:33.000Z</time>
      </trkpt>
      <trkpt lat="49.44827" lon="1.96293">
        <ele>147.19999694824</ele>
        <time>2020-01-02T13:27:35.000Z</time>
      </trkpt>
      <trkpt lat="49.44835" lon="1.96306">
        <ele>147.80000305176</ele>
        <time>2020-01-02T13:27:39.000Z</time>
      </trkpt>
      <trkpt lat="49.44836" lon="1.96307">
        <ele>148.19999694824</ele>
        <time>2020-01-02T13:27:41.000Z</time>
      </trkpt>
      <trkpt lat="49.44847" lon="1.96318">
        <ele>148.60000610352</ele>
        <time>2020-01-02T13:27:45.000Z</time>
      </trkpt>
      <trkpt lat="49.44849" lon="1.9632">
        <ele>148.80000305176</ele>
        <time>2020-01-02T13:27:46.000Z</time>
      </trkpt>
      <trkpt lat="49.44851" lon="1.96323">
        <ele>148.80000305176</ele>
        <time>2020-01-02T13:27:47.000Z</time>
      </trkpt>
      <trkpt lat="49.4486" lon="1.9633">
        <ele>149.19999694824</ele>
        <time>2020-01-02T13:27:51.000Z</time>
      </trkpt>
      <trkpt lat="49.44863" lon="1.96331">
        <ele>149.19999694824</ele>
        <time>2020-01-02T13:27:52.000Z</time>
      </trkpt>
      <trkpt lat="49.44883" lon="1.96339">
        <ele>150.19999694824</ele>
        <time>2020-01-02T13:27:59.000Z</time>
      </trkpt>
      <trkpt lat="49.44885" lon="1.9634">
        <ele>150.39999389648</ele>
        <time>2020-01-02T13:28:00.000Z</time>
      </trkpt>
      <trkpt lat="49.44894" lon="1.96343">
        <ele>150.60000610352</ele>
        <time>2020-01-02T13:28:03.000Z</time>
      </trkpt>
      <trkpt lat="49.44896" lon="1.96344">
        <ele>150.80000305176</ele>
        <time>2020-01-02T13:28:04.000Z</time>
      </trkpt>
      <trkpt lat="49.44915" lon="1.96352">
        <ele>151.39999389648</ele>
        <time>2020-01-02T13:28:13.000Z</time>
      </trkpt>
      <trkpt lat="49.44918" lon="1.96357">
        <ele>151.39999389648</ele>
        <time>2020-01-02T13:28:15.000Z</time>
      </trkpt>
      <trkpt lat="49.44924" lon="1.96368">
        <ele>151.80000305176</ele>
        <time>2020-01-02T13:28:20.000Z</time>
      </trkpt>
      <trkpt lat="49.4493" lon="1.96381">
        <ele>151.80000305176</ele>
        <time>2020-01-02T13:28:26.000Z</time>
      </trkpt>
      <trkpt lat="49.44931" lon="1.96381">
        <ele>151.80000305176</ele>
        <time>2020-01-02T13:28:27.000Z</time>
      </trkpt>
      <trkpt lat="49.44935" lon="1.96395">
        <ele>151.39999389648</ele>
        <time>2020-01-02T13:28:33.000Z</time>
      </trkpt>
      <trkpt lat="49.44936" lon="1.96401">
        <ele>151.19999694824</ele>
        <time>2020-01-02T13:28:35.000Z</time>
      </trkpt>
      <trkpt lat="49.44937" lon="1.96406">
        <ele>151</ele>
        <time>2020-01-02T13:28:37.000Z</time>
      </trkpt>
      <trkpt lat="49.44939" lon="1.96412">
        <ele>150.39999389648</ele>
        <time>2020-01-02T13:28:40.000Z</time>
      </trkpt>
      <trkpt lat="49.44939" lon="1.96414">
        <ele>150.39999389648</ele>
        <time>2020-01-02T13:28:41.000Z</time>
      </trkpt>
      <trkpt lat="49.44943" lon="1.96423">
        <ele>149.19999694824</ele>
        <time>2020-01-02T13:28:45.000Z</time>
      </trkpt>
      <trkpt lat="49.44946" lon="1.96428">
        <ele>148.60000610352</ele>
        <time>2020-01-02T13:28:47.000Z</time>
      </trkpt>
      <trkpt lat="49.44949" lon="1.96431">
        <ele>148.19999694824</ele>
        <time>2020-01-02T13:28:49.000Z</time>
      </trkpt>
      <trkpt lat="49.44951" lon="1.96432">
        <ele>147.60000610352</ele>
        <time>2020-01-02T13:28:50.000Z</time>
      </trkpt>
      <trkpt lat="49.44955" lon="1.96436">
        <ele>146.80000305176</ele>
        <time>2020-01-02T13:28:52.000Z</time>
      </trkpt>
      <trkpt lat="49.44959" lon="1.96439">
        <ele>146.19999694824</ele>
        <time>2020-01-02T13:28:54.000Z</time>
      </trkpt>
      <trkpt lat="49.44964" lon="1.96442">
        <ele>145.19999694824</ele>
        <time>2020-01-02T13:28:57.000Z</time>
      </trkpt>
      <trkpt lat="49.44966" lon="1.96443">
        <ele>145</ele>
        <time>2020-01-02T13:28:58.000Z</time>
      </trkpt>
      <trkpt lat="49.44974" lon="1.96451">
        <ele>144</ele>
        <time>2020-01-02T13:29:02.000Z</time>
      </trkpt>
      <trkpt lat="49.4498" lon="1.96459">
        <ele>142.80000305176</ele>
        <time>2020-01-02T13:29:05.000Z</time>
      </trkpt>
      <trkpt lat="49.44987" lon="1.96467">
        <ele>141.60000610352</ele>
        <time>2020-01-02T13:29:08.000Z</time>
      </trkpt>
      <trkpt lat="49.44994" lon="1.96475">
        <ele>140.80000305176</ele>
        <time>2020-01-02T13:29:11.000Z</time>
      </trkpt>
      <trkpt lat="49.44996" lon="1.96478">
        <ele>140.39999389648</ele>
        <time>2020-01-02T13:29:12.000Z</time>
      </trkpt>
      <trkpt lat="49.45006" lon="1.9649">
        <ele>139.39999389648</ele>
        <time>2020-01-02T13:29:16.000Z</time>
      </trkpt>
      <trkpt lat="49.4501" lon="1.96494">
        <ele>138.60000610352</ele>
        <time>2020-01-02T13:29:17.000Z</time>
      </trkpt>
      <trkpt lat="49.45013" lon="1.96498">
        <ele>138.19999694824</ele>
        <time>2020-01-02T13:29:18.000Z</time>
      </trkpt>
      <trkpt lat="49.45019" lon="1.96515">
        <ele>137.19999694824</ele>
        <time>2020-01-02T13:29:22.000Z</time>
      </trkpt>
      <trkpt lat="49.45021" lon="1.9652">
        <ele>137</ele>
        <time>2020-01-02T13:29:23.000Z</time>
      </trkpt>
      <trkpt lat="49.4502" lon="1.96534">
        <ele>135.60000610352</ele>
        <time>2020-01-02T13:29:26.000Z</time>
      </trkpt>
      <trkpt lat="49.4502" lon="1.9654">
        <ele>135.39999389648</ele>
        <time>2020-01-02T13:29:27.000Z</time>
      </trkpt>
      <trkpt lat="49.45021" lon="1.96556">
        <ele>134.39999389648</ele>
        <time>2020-01-02T13:29:30.000Z</time>
      </trkpt>
      <trkpt lat="49.45022" lon="1.96559">
        <ele>133.80000305176</ele>
        <time>2020-01-02T13:29:31.000Z</time>
      </trkpt>
      <trkpt lat="49.45024" lon="1.96567">
        <ele>133.19999694824</ele>
        <time>2020-01-02T13:29:33.000Z</time>
      </trkpt>
      <trkpt lat="49.45026" lon="1.96575">
        <ele>132</ele>
        <time>2020-01-02T13:29:35.000Z</time>
      </trkpt>
      <trkpt lat="49.45029" lon="1.96586">
        <ele>131</ele>
        <time>2020-01-02T13:29:38.000Z</time>
      </trkpt>
      <trkpt lat="49.45032" lon="1.96593">
        <ele>130.80000305176</ele>
        <time>2020-01-02T13:29:40.000Z</time>
      </trkpt>
      <trkpt lat="49.45033" lon="1.96596">
        <ele>130.60000610352</ele>
        <time>2020-01-02T13:29:43.000Z</time>
      </trkpt>
      <trkpt lat="49.45035" lon="1.96601">
        <ele>131.19999694824</ele>
        <time>2020-01-02T13:30:29.000Z</time>
      </trkpt>
      <trkpt lat="49.45036" lon="1.96607">
        <ele>131.19999694824</ele>
        <time>2020-01-02T13:30:31.000Z</time>
      </trkpt>
      <trkpt lat="49.45039" lon="1.96617">
        <ele>131</ele>
        <time>2020-01-02T13:30:36.000Z</time>
      </trkpt>
      <trkpt lat="49.45043" lon="1.96629">
        <ele>131</ele>
        <time>2020-01-02T13:30:44.000Z</time>
      </trkpt>
      <trkpt lat="49.45045" lon="1.96644">
        <ele>131.19999694824</ele>
        <time>2020-01-02T13:30:50.000Z</time>
      </trkpt>
      <trkpt lat="49.45048" lon="1.96664">
        <ele>131.19999694824</ele>
        <time>2020-01-02T13:30:56.000Z</time>
      </trkpt>
      <trkpt lat="49.45051" lon="1.96682">
        <ele>132</ele>
        <time>2020-01-02T13:31:03.000Z</time>
      </trkpt>
      <trkpt lat="49.45052" lon="1.96685">
        <ele>132.19999694824</ele>
        <time>2020-01-02T13:31:04.000Z</time>
      </trkpt>
      <trkpt lat="49.45055" lon="1.96699">
        <ele>132.80000305176</ele>
        <time>2020-01-02T13:31:09.000Z</time>
      </trkpt>
      <trkpt lat="49.45056" lon="1.96703">
        <ele>133.19999694824</ele>
        <time>2020-01-02T13:31:11.000Z</time>
      </trkpt>
      <trkpt lat="49.45058" lon="1.96712">
        <ele>133.80000305176</ele>
        <time>2020-01-02T13:31:15.000Z</time>
      </trkpt>
      <trkpt lat="49.45059" lon="1.96722">
        <ele>134.60000610352</ele>
        <time>2020-01-02T13:31:19.000Z</time>
      </trkpt>
      <trkpt lat="49.4506" lon="1.9673">
        <ele>135</ele>
        <time>2020-01-02T13:31:22.000Z</time>
      </trkpt>
      <trkpt lat="49.45064" lon="1.96739">
        <ele>135.60000610352</ele>
        <time>2020-01-02T13:31:26.000Z</time>
      </trkpt>
      <trkpt lat="49.45065" lon="1.96744">
        <ele>136</ele>
        <time>2020-01-02T13:31:28.000Z</time>
      </trkpt>
      <trkpt lat="49.45065" lon="1.96746">
        <ele>136.19999694824</ele>
        <time>2020-01-02T13:31:29.000Z</time>
      </trkpt>
      <trkpt lat="49.45067" lon="1.96753">
        <ele>136.60000610352</ele>
        <time>2020-01-02T13:31:32.000Z</time>
      </trkpt>
      <trkpt lat="49.45068" lon="1.96758">
        <ele>137</ele>
        <time>2020-01-02T13:31:34.000Z</time>
      </trkpt>
      <trkpt lat="49.4507" lon="1.96771">
        <ele>137.80000305176</ele>
        <time>2020-01-02T13:31:39.000Z</time>
      </trkpt>
      <trkpt lat="49.4507" lon="1.96777">
        <ele>138.19999694824</ele>
        <time>2020-01-02T13:31:41.000Z</time>
      </trkpt>
      <trkpt lat="49.45071" lon="1.9679">
        <ele>138.80000305176</ele>
        <time>2020-01-02T13:31:45.000Z</time>
      </trkpt>
      <trkpt lat="49.45071" lon="1.96796">
        <ele>139</ele>
        <time>2020-01-02T13:31:47.000Z</time>
      </trkpt>
      <trkpt lat="49.45071" lon="1.96798">
        <ele>139.19999694824</ele>
        <time>2020-01-02T13:31:48.000Z</time>
      </trkpt>
      <trkpt lat="49.45071" lon="1.96807">
        <ele>139.80000305176</ele>
        <time>2020-01-02T13:31:51.000Z</time>
      </trkpt>
      <trkpt lat="49.45072" lon="1.9681">
        <ele>139.80000305176</ele>
        <time>2020-01-02T13:31:52.000Z</time>
      </trkpt>
      <trkpt lat="49.45079" lon="1.9683">
        <ele>140.60000610352</ele>
        <time>2020-01-02T13:31:58.000Z</time>
      </trkpt>
      <trkpt lat="49.45082" lon="1.96835">
        <ele>141</ele>
        <time>2020-01-02T13:32:00.000Z</time>
      </trkpt>
      <trkpt lat="49.45086" lon="1.96846">
        <ele>141.60000610352</ele>
        <time>2020-01-02T13:32:04.000Z</time>
      </trkpt>
      <trkpt lat="49.4509" lon="1.96855">
        <ele>142</ele>
        <time>2020-01-02T13:32:07.000Z</time>
      </trkpt>
      <trkpt lat="49.45092" lon="1.96868">
        <ele>143.19999694824</ele>
        <time>2020-01-02T13:32:11.000Z</time>
      </trkpt>
      <trkpt lat="49.45095" lon="1.96881">
        <ele>144.19999694824</ele>
        <time>2020-01-02T13:32:16.000Z</time>
      </trkpt>
      <trkpt lat="49.45096" lon="1.96884">
        <ele>144.39999389648</ele>
        <time>2020-01-02T13:32:17.000Z</time>
      </trkpt>
      <trkpt lat="49.45095" lon="1.9689">
        <ele>144.80000305176</ele>
        <time>2020-01-02T13:32:19.000Z</time>
      </trkpt>
      <trkpt lat="49.45094" lon="1.96898">
        <ele>145.39999389648</ele>
        <time>2020-01-02T13:32:22.000Z</time>
      </trkpt>
      <trkpt lat="49.45094" lon="1.969">
        <ele>145.60000610352</ele>
        <time>2020-01-02T13:32:23.000Z</time>
      </trkpt>
      <trkpt lat="49.45092" lon="1.96904">
        <ele>146.80000305176</ele>
        <time>2020-01-02T13:32:26.000Z</time>
      </trkpt>
      <trkpt lat="49.45089" lon="1.96905">
        <ele>147.19999694824</ele>
        <time>2020-01-02T13:32:28.000Z</time>
      </trkpt>
      <trkpt lat="49.45079" lon="1.96911">
        <ele>147.80000305176</ele>
        <time>2020-01-02T13:32:34.000Z</time>
      </trkpt>
      <trkpt lat="49.45067" lon="1.96918">
        <ele>148</ele>
        <time>2020-01-02T13:32:40.000Z</time>
      </trkpt>
      <trkpt lat="49.45063" lon="1.9692">
        <ele>148</ele>
        <time>2020-01-02T13:32:42.000Z</time>
      </trkpt>
      <trkpt lat="49.45047" lon="1.96928">
        <ele>148.60000610352</ele>
        <time>2020-01-02T13:32:51.000Z</time>
      </trkpt>
      <trkpt lat="49.45036" lon="1.96932">
        <ele>149</ele>
        <time>2020-01-02T13:32:56.000Z</time>
      </trkpt>
      <trkpt lat="49.45034" lon="1.96934">
        <ele>149</ele>
        <time>2020-01-02T13:32:57.000Z</time>
      </trkpt>
      <trkpt lat="49.45021" lon="1.96945">
        <ele>149.80000305176</ele>
        <time>2020-01-02T13:33:04.000Z</time>
      </trkpt>
      <trkpt lat="49.45018" lon="1.96948">
        <ele>150.19999694824</ele>
        <time>2020-01-02T13:33:06.000Z</time>
      </trkpt>
      <trkpt lat="49.45014" lon="1.96949">
        <ele>150.80000305176</ele>
        <time>2020-01-02T13:33:09.000Z</time>
      </trkpt>
      <trkpt lat="49.45013" lon="1.96949">
        <ele>150.80000305176</ele>
        <time>2020-01-02T13:33:10.000Z</time>
      </trkpt>
      <trkpt lat="49.45011" lon="1.9695">
        <ele>151.19999694824</ele>
        <time>2020-01-02T13:33:12.000Z</time>
      </trkpt>
      <trkpt lat="49.45009" lon="1.96951">
        <ele>151.39999389648</ele>
        <time>2020-01-02T13:33:13.000Z</time>
      </trkpt>
      <trkpt lat="49.45004" lon="1.96954">
        <ele>152.19999694824</ele>
        <time>2020-01-02T13:33:15.000Z</time>
      </trkpt>
      <trkpt lat="49.45002" lon="1.96956">
        <ele>152.39999389648</ele>
        <time>2020-01-02T13:33:16.000Z</time>
      </trkpt>
      <trkpt lat="49.45" lon="1.96957">
        <ele>152.60000610352</ele>
        <time>2020-01-02T13:33:17.000Z</time>
      </trkpt>
      <trkpt lat="49.4499" lon="1.96965">
        <ele>153</ele>
        <time>2020-01-02T13:33:23.000Z</time>
      </trkpt>
      <trkpt lat="49.44978" lon="1.96976">
        <ele>152.80000305176</ele>
        <time>2020-01-02T13:33:30.000Z</time>
      </trkpt>
      <trkpt lat="49.44973" lon="1.96993">
        <ele>152.60000610352</ele>
        <time>2020-01-02T13:33:36.000Z</time>
      </trkpt>
      <trkpt lat="49.44975" lon="1.97019">
        <ele>152.39999389648</ele>
        <time>2020-01-02T13:33:43.000Z</time>
      </trkpt>
      <trkpt lat="49.4498" lon="1.97043">
        <ele>152.39999389648</ele>
        <time>2020-01-02T13:33:50.000Z</time>
      </trkpt>
      <trkpt lat="49.44986" lon="1.9706">
        <ele>152.60000610352</ele>
        <time>2020-01-02T13:33:55.000Z</time>
      </trkpt>
      <trkpt lat="49.44994" lon="1.97078">
        <ele>153.19999694824</ele>
        <time>2020-01-02T13:34:01.000Z</time>
      </trkpt>
      <trkpt lat="49.45009" lon="1.97097">
        <ele>153.80000305176</ele>
        <time>2020-01-02T13:34:07.000Z</time>
      </trkpt>
      <trkpt lat="49.45014" lon="1.97102">
        <ele>154</ele>
        <time>2020-01-02T13:34:09.000Z</time>
      </trkpt>
      <trkpt lat="49.45024" lon="1.97111">
        <ele>155</ele>
        <time>2020-01-02T13:34:13.000Z</time>
      </trkpt>
      <trkpt lat="49.45028" lon="1.97124">
        <ele>155</ele>
        <time>2020-01-02T13:34:16.000Z</time>
      </trkpt>
      <trkpt lat="49.45028" lon="1.97128">
        <ele>155</ele>
        <time>2020-01-02T13:34:17.000Z</time>
      </trkpt>
      <trkpt lat="49.45028" lon="1.97152">
        <ele>156.19999694824</ele>
        <time>2020-01-02T13:34:24.000Z</time>
      </trkpt>
      <trkpt lat="49.45028" lon="1.97153">
        <ele>156.19999694824</ele>
        <time>2020-01-02T13:34:25.000Z</time>
      </trkpt>
      <trkpt lat="49.45027" lon="1.97157">
        <ele>156.60000610352</ele>
        <time>2020-01-02T13:34:42.000Z</time>
      </trkpt>
      <trkpt lat="49.45023" lon="1.97163">
        <ele>156.60000610352</ele>
        <time>2020-01-02T13:34:44.000Z</time>
      </trkpt>
      <trkpt lat="49.45009" lon="1.97174">
        <ele>156.60000610352</ele>
        <time>2020-01-02T13:34:50.000Z</time>
      </trkpt>
      <trkpt lat="49.44995" lon="1.97176">
        <ele>156</ele>
        <time>2020-01-02T13:34:56.000Z</time>
      </trkpt>
      <trkpt lat="49.44982" lon="1.97181">
        <ele>155.39999389648</ele>
        <time>2020-01-02T13:35:02.000Z</time>
      </trkpt>
      <trkpt lat="49.4498" lon="1.97182">
        <ele>155.19999694824</ele>
        <time>2020-01-02T13:35:03.000Z</time>
      </trkpt>
      <trkpt lat="49.44968" lon="1.97186">
        <ele>154.80000305176</ele>
        <time>2020-01-02T13:35:09.000Z</time>
      </trkpt>
      <trkpt lat="49.4496" lon="1.97191">
        <ele>154.80000305176</ele>
        <time>2020-01-02T13:35:15.000Z</time>
      </trkpt>
      <trkpt lat="49.44953" lon="1.97193">
        <ele>154.80000305176</ele>
        <time>2020-01-02T13:35:19.000Z</time>
      </trkpt>
      <trkpt lat="49.44951" lon="1.97193">
        <ele>155</ele>
        <time>2020-01-02T13:35:21.000Z</time>
      </trkpt>
      <trkpt lat="49.4494" lon="1.97188">
        <ele>155.19999694824</ele>
        <time>2020-01-02T13:35:29.000Z</time>
      </trkpt>
      <trkpt lat="49.44932" lon="1.9718">
        <ele>155.19999694824</ele>
        <time>2020-01-02T13:35:33.000Z</time>
      </trkpt>
      <trkpt lat="49.44919" lon="1.97162">
        <ele>155</ele>
        <time>2020-01-02T13:35:37.000Z</time>
      </trkpt>
      <trkpt lat="49.44906" lon="1.97152">
        <ele>154.19999694824</ele>
        <time>2020-01-02T13:35:41.000Z</time>
      </trkpt>
      <trkpt lat="49.44891" lon="1.97138">
        <ele>153.39999389648</ele>
        <time>2020-01-02T13:35:46.000Z</time>
      </trkpt>
      <trkpt lat="49.44888" lon="1.97136">
        <ele>153</ele>
        <time>2020-01-02T13:35:48.000Z</time>
      </trkpt>
      <trkpt lat="49.44885" lon="1.97134">
        <ele>152.60000610352</ele>
        <time>2020-01-02T13:35:51.000Z</time>
      </trkpt>
      <trkpt lat="49.4489" lon="1.97143">
        <ele>152</ele>
        <time>2020-01-02T13:36:26.000Z</time>
      </trkpt>
      <trkpt lat="49.44892" lon="1.97145">
        <ele>152.39999389648</ele>
        <time>2020-01-02T13:36:28.000Z</time>
      </trkpt>
      <trkpt lat="49.44895" lon="1.9715">
        <ele>152.60000610352</ele>
        <time>2020-01-02T13:36:31.000Z</time>
      </trkpt>
      <trkpt lat="49.449" lon="1.97158">
        <ele>153</ele>
        <time>2020-01-02T13:36:37.000Z</time>
      </trkpt>
      <trkpt lat="49.44901" lon="1.97159">
        <ele>153.19999694824</ele>
        <time>2020-01-02T13:36:39.000Z</time>
      </trkpt>
      <trkpt lat="49.44901" lon="1.97158">
        <ele>153.19999694824</ele>
        <time>2020-01-02T13:36:41.000Z</time>
      </trkpt>
      <trkpt lat="49.44899" lon="1.97153">
        <ele>153.60000610352</ele>
        <time>2020-01-02T13:37:31.000Z</time>
      </trkpt>
      <trkpt lat="49.44897" lon="1.9715">
        <ele>153.60000610352</ele>
        <time>2020-01-02T13:37:32.000Z</time>
      </trkpt>
      <trkpt lat="49.44891" lon="1.97144">
        <ele>153.39999389648</ele>
        <time>2020-01-02T13:37:35.000Z</time>
      </trkpt>
      <trkpt lat="49.44886" lon="1.97139">
        <ele>153.19999694824</ele>
        <time>2020-01-02T13:37:37.000Z</time>
      </trkpt>
      <trkpt lat="49.44878" lon="1.9713">
        <ele>152.80000305176</ele>
        <time>2020-01-02T13:37:42.000Z</time>
      </trkpt>
      <trkpt lat="49.44873" lon="1.97126">
        <ele>152.19999694824</ele>
        <time>2020-01-02T13:37:47.000Z</time>
      </trkpt>
      <trkpt lat="49.44871" lon="1.97125">
        <ele>152</ele>
        <time>2020-01-02T13:37:48.000Z</time>
      </trkpt>
      <trkpt lat="49.44857" lon="1.97114">
        <ele>151.19999694824</ele>
        <time>2020-01-02T13:37:54.000Z</time>
      </trkpt>
      <trkpt lat="49.44842" lon="1.971">
        <ele>149.80000305176</ele>
        <time>2020-01-02T13:37:59.000Z</time>
      </trkpt>
      <trkpt lat="49.44839" lon="1.97097">
        <ele>149.39999389648</ele>
        <time>2020-01-02T13:38:00.000Z</time>
      </trkpt>
      <trkpt lat="49.44833" lon="1.97092">
        <ele>148.80000305176</ele>
        <time>2020-01-02T13:38:02.000Z</time>
      </trkpt>
      <trkpt lat="49.44827" lon="1.97086">
        <ele>147.60000610352</ele>
        <time>2020-01-02T13:38:05.000Z</time>
      </trkpt>
      <trkpt lat="49.44826" lon="1.97084">
        <ele>147.39999389648</ele>
        <time>2020-01-02T13:38:06.000Z</time>
      </trkpt>
      <trkpt lat="49.44822" lon="1.9708">
        <ele>146.39999389648</ele>
        <time>2020-01-02T13:38:09.000Z</time>
      </trkpt>
      <trkpt lat="49.44818" lon="1.97077">
        <ele>145.39999389648</ele>
        <time>2020-01-02T13:38:12.000Z</time>
      </trkpt>
      <trkpt lat="49.44816" lon="1.97076">
        <ele>145.19999694824</ele>
        <time>2020-01-02T13:38:13.000Z</time>
      </trkpt>
      <trkpt lat="49.4481" lon="1.97073">
        <ele>144.19999694824</ele>
        <time>2020-01-02T13:38:18.000Z</time>
      </trkpt>
      <trkpt lat="49.44808" lon="1.97072">
        <ele>143.80000305176</ele>
        <time>2020-01-02T13:38:20.000Z</time>
      </trkpt>
      <trkpt lat="49.44803" lon="1.97066">
        <ele>143.19999694824</ele>
        <time>2020-01-02T13:38:25.000Z</time>
      </trkpt>
      <trkpt lat="49.44798" lon="1.97058">
        <ele>142.80000305176</ele>
        <time>2020-01-02T13:38:28.000Z</time>
      </trkpt>
      <trkpt lat="49.44782" lon="1.97042">
        <ele>142.39999389648</ele>
        <time>2020-01-02T13:38:35.000Z</time>
      </trkpt>
      <trkpt lat="49.4478" lon="1.9704">
        <ele>142.19999694824</ele>
        <time>2020-01-02T13:38:36.000Z</time>
      </trkpt>
      <trkpt lat="49.44771" lon="1.97031">
        <ele>141.19999694824</ele>
        <time>2020-01-02T13:38:41.000Z</time>
      </trkpt>
      <trkpt lat="49.44769" lon="1.97029">
        <ele>141</ele>
        <time>2020-01-02T13:38:42.000Z</time>
      </trkpt>
      <trkpt lat="49.44763" lon="1.97022">
        <ele>140.19999694824</ele>
        <time>2020-01-02T13:38:46.000Z</time>
      </trkpt>
      <trkpt lat="49.44759" lon="1.97019">
        <ele>140</ele>
        <time>2020-01-02T13:38:48.000Z</time>
      </trkpt>
      <trkpt lat="49.4475" lon="1.97012">
        <ele>139.60000610352</ele>
        <time>2020-01-02T13:38:53.000Z</time>
      </trkpt>
      <trkpt lat="49.44749" lon="1.9701">
        <ele>139.39999389648</ele>
        <time>2020-01-02T13:38:54.000Z</time>
      </trkpt>
      <trkpt lat="49.44741" lon="1.97005">
        <ele>139</ele>
        <time>2020-01-02T13:38:59.000Z</time>
      </trkpt>
      <trkpt lat="49.4474" lon="1.97004">
        <ele>138.60000610352</ele>
        <time>2020-01-02T13:39:00.000Z</time>
      </trkpt>
      <trkpt lat="49.44734" lon="1.97">
        <ele>137.80000305176</ele>
        <time>2020-01-02T13:39:05.000Z</time>
      </trkpt>
      <trkpt lat="49.44727" lon="1.96995">
        <ele>136.80000305176</ele>
        <time>2020-01-02T13:39:10.000Z</time>
      </trkpt>
      <trkpt lat="49.4472" lon="1.9699">
        <ele>136.39999389648</ele>
        <time>2020-01-02T13:39:13.000Z</time>
      </trkpt>
      <trkpt lat="49.44714" lon="1.96982">
        <ele>135.60000610352</ele>
        <time>2020-01-02T13:39:18.000Z</time>
      </trkpt>
      <trkpt lat="49.44711" lon="1.96978">
        <ele>134.39999389648</ele>
        <time>2020-01-02T13:39:21.000Z</time>
      </trkpt>
      <trkpt lat="49.44704" lon="1.96973">
        <ele>133.39999389648</ele>
        <time>2020-01-02T13:39:25.000Z</time>
      </trkpt>
      <trkpt lat="49.44698" lon="1.96968">
        <ele>132.39999389648</ele>
        <time>2020-01-02T13:39:29.000Z</time>
      </trkpt>
      <trkpt lat="49.44693" lon="1.96964">
        <ele>132</ele>
        <time>2020-01-02T13:39:31.000Z</time>
      </trkpt>
      <trkpt lat="49.4469" lon="1.96962">
        <ele>131.19999694824</ele>
        <time>2020-01-02T13:39:33.000Z</time>
      </trkpt>
      <trkpt lat="49.44684" lon="1.96958">
        <ele>129.60000610352</ele>
        <time>2020-01-02T13:39:36.000Z</time>
      </trkpt>
      <trkpt lat="49.44681" lon="1.96956">
        <ele>129.39999389648</ele>
        <time>2020-01-02T13:39:37.000Z</time>
      </trkpt>
      <trkpt lat="49.44676" lon="1.96952">
        <ele>128.60000610352</ele>
        <time>2020-01-02T13:39:40.000Z</time>
      </trkpt>
      <trkpt lat="49.44669" lon="1.96945">
        <ele>127.59999847412</ele>
        <time>2020-01-02T13:39:44.000Z</time>
      </trkpt>
      <trkpt lat="49.44667" lon="1.96943">
        <ele>127.19999694824</ele>
        <time>2020-01-02T13:39:45.000Z</time>
      </trkpt>
      <trkpt lat="49.4466" lon="1.96938">
        <ele>126</ele>
        <time>2020-01-02T13:39:49.000Z</time>
      </trkpt>
      <trkpt lat="49.44656" lon="1.96934">
        <ele>125.59999847412</ele>
        <time>2020-01-02T13:39:51.000Z</time>
      </trkpt>
      <trkpt lat="49.44653" lon="1.9693">
        <ele>125.40000152588</ele>
        <time>2020-01-02T13:39:53.000Z</time>
      </trkpt>
      <trkpt lat="49.4465" lon="1.96926">
        <ele>125</ele>
        <time>2020-01-02T13:39:55.000Z</time>
      </trkpt>
      <trkpt lat="49.44648" lon="1.96924">
        <ele>124.80000305176</ele>
        <time>2020-01-02T13:39:56.000Z</time>
      </trkpt>
      <trkpt lat="49.44637" lon="1.9691">
        <ele>124.59999847412</ele>
        <time>2020-01-02T13:40:02.000Z</time>
      </trkpt>
      <trkpt lat="49.44633" lon="1.96906">
        <ele>124</ele>
        <time>2020-01-02T13:40:06.000Z</time>
      </trkpt>
      <trkpt lat="49.44617" lon="1.96922">
        <ele>123.40000152588</ele>
        <time>2020-01-02T13:40:31.000Z</time>
      </trkpt>
      <trkpt lat="49.44613" lon="1.96928">
        <ele>123.40000152588</ele>
        <time>2020-01-02T13:40:36.000Z</time>
      </trkpt>
      <trkpt lat="49.44605" lon="1.96945">
        <ele>124.19999694824</ele>
        <time>2020-01-02T13:40:44.000Z</time>
      </trkpt>
      <trkpt lat="49.44602" lon="1.96948">
        <ele>124.59999847412</ele>
        <time>2020-01-02T13:40:46.000Z</time>
      </trkpt>
      <trkpt lat="49.44599" lon="1.96955">
        <ele>125.19999694824</ele>
        <time>2020-01-02T13:40:50.000Z</time>
      </trkpt>
      <trkpt lat="49.44595" lon="1.9696">
        <ele>125.59999847412</ele>
        <time>2020-01-02T13:40:53.000Z</time>
      </trkpt>
      <trkpt lat="49.44592" lon="1.96964">
        <ele>125.80000305176</ele>
        <time>2020-01-02T13:40:55.000Z</time>
      </trkpt>
      <trkpt lat="49.44591" lon="1.96965">
        <ele>126</ele>
        <time>2020-01-02T13:40:56.000Z</time>
      </trkpt>
      <trkpt lat="49.44586" lon="1.96971">
        <ele>126.59999847412</ele>
        <time>2020-01-02T13:40:59.000Z</time>
      </trkpt>
      <trkpt lat="49.44579" lon="1.9698">
        <ele>127</ele>
        <time>2020-01-02T13:41:02.000Z</time>
      </trkpt>
      <trkpt lat="49.44569" lon="1.96993">
        <ele>127.59999847412</ele>
        <time>2020-01-02T13:41:07.000Z</time>
      </trkpt>
      <trkpt lat="49.44566" lon="1.96998">
        <ele>127.80000305176</ele>
        <time>2020-01-02T13:41:09.000Z</time>
      </trkpt>
      <trkpt lat="49.44557" lon="1.97011">
        <ele>128.60000610352</ele>
        <time>2020-01-02T13:41:16.000Z</time>
      </trkpt>
      <trkpt lat="49.44556" lon="1.97013">
        <ele>128.80000305176</ele>
        <time>2020-01-02T13:41:17.000Z</time>
      </trkpt>
      <trkpt lat="49.44552" lon="1.97021">
        <ele>129.80000305176</ele>
        <time>2020-01-02T13:41:23.000Z</time>
      </trkpt>
      <trkpt lat="49.4455" lon="1.97026">
        <ele>129.80000305176</ele>
        <time>2020-01-02T13:41:25.000Z</time>
      </trkpt>
      <trkpt lat="49.44545" lon="1.97044">
        <ele>130.39999389648</ele>
        <time>2020-01-02T13:41:32.000Z</time>
      </trkpt>
      <trkpt lat="49.44539" lon="1.9706">
        <ele>130.80000305176</ele>
        <time>2020-01-02T13:41:37.000Z</time>
      </trkpt>
      <trkpt lat="49.44538" lon="1.97067">
        <ele>131</ele>
        <time>2020-01-02T13:41:39.000Z</time>
      </trkpt>
      <trkpt lat="49.44534" lon="1.97081">
        <ele>131.80000305176</ele>
        <time>2020-01-02T13:41:45.000Z</time>
      </trkpt>
      <trkpt lat="49.44534" lon="1.97082">
        <ele>132</ele>
        <time>2020-01-02T13:41:46.000Z</time>
      </trkpt>
      <trkpt lat="49.44514" lon="1.97175">
        <ele>136.39999389648</ele>
        <time>2020-01-02T13:42:43.000Z</time>
      </trkpt>
      <trkpt lat="49.44513" lon="1.97179">
        <ele>136.80000305176</ele>
        <time>2020-01-02T13:42:45.000Z</time>
      </trkpt>
      <trkpt lat="49.44513" lon="1.97189">
        <ele>137.60000610352</ele>
        <time>2020-01-02T13:42:49.000Z</time>
      </trkpt>
      <trkpt lat="49.44512" lon="1.97195">
        <ele>137.80000305176</ele>
        <time>2020-01-02T13:42:51.000Z</time>
      </trkpt>
      <trkpt lat="49.44512" lon="1.97207">
        <ele>138.60000610352</ele>
        <time>2020-01-02T13:42:56.000Z</time>
      </trkpt>
      <trkpt lat="49.44511" lon="1.97208">
        <ele>139</ele>
        <time>2020-01-02T13:42:57.000Z</time>
      </trkpt>
      <trkpt lat="49.44477" lon="1.97309">
        <ele>154</ele>
        <time>2020-01-02T13:44:49.000Z</time>
      </trkpt>
      <trkpt lat="49.44477" lon="1.97302">
        <ele>154</ele>
        <time>2020-01-02T13:44:51.000Z</time>
      </trkpt>
      <trkpt lat="49.44476" lon="1.97293">
        <ele>154</ele>
        <time>2020-01-02T13:44:55.000Z</time>
      </trkpt>
      <trkpt lat="49.44475" lon="1.97291">
        <ele>154</ele>
        <time>2020-01-02T13:44:56.000Z</time>
      </trkpt>
      <trkpt lat="49.44465" lon="1.97281">
        <ele>154</ele>
        <time>2020-01-02T13:45:02.000Z</time>
      </trkpt>
      <trkpt lat="49.44452" lon="1.97271">
        <ele>154</ele>
        <time>2020-01-02T13:45:08.000Z</time>
      </trkpt>
      <trkpt lat="49.44443" lon="1.97266">
        <ele>154.19999694824</ele>
        <time>2020-01-02T13:45:14.000Z</time>
      </trkpt>
      <trkpt lat="49.44433" lon="1.97259">
        <ele>154.60000610352</ele>
        <time>2020-01-02T13:45:20.000Z</time>
      </trkpt>
      <trkpt lat="49.44429" lon="1.97254">
        <ele>155.19999694824</ele>
        <time>2020-01-02T13:45:23.000Z</time>
      </trkpt>
      <trkpt lat="49.44421" lon="1.97245">
        <ele>156</ele>
        <time>2020-01-02T13:45:28.000Z</time>
      </trkpt>
      <trkpt lat="49.44419" lon="1.97242">
        <ele>156.19999694824</ele>
        <time>2020-01-02T13:45:29.000Z</time>
      </trkpt>
      <trkpt lat="49.44414" lon="1.97232">
        <ele>157.39999389648</ele>
        <time>2020-01-02T13:45:35.000Z</time>
      </trkpt>
      <trkpt lat="49.44359" lon="1.97147">
        <ele>167.39999389648</ele>
        <time>2020-01-02T13:46:45.000Z</time>
      </trkpt>
      <trkpt lat="49.44354" lon="1.9714">
        <ele>167.39999389648</ele>
        <time>2020-01-02T13:46:48.000Z</time>
      </trkpt>
      <trkpt lat="49.44338" lon="1.97119">
        <ele>167.39999389648</ele>
        <time>2020-01-02T13:46:56.000Z</time>
      </trkpt>
      <trkpt lat="49.44328" lon="1.97105">
        <ele>167.60000610352</ele>
        <time>2020-01-02T13:47:02.000Z</time>
      </trkpt>
      <trkpt lat="49.44317" lon="1.97095">
        <ele>168.60000610352</ele>
        <time>2020-01-02T13:47:08.000Z</time>
      </trkpt>
      <trkpt lat="49.44305" lon="1.97093">
        <ele>169.60000610352</ele>
        <time>2020-01-02T13:47:13.000Z</time>
      </trkpt>
      <trkpt lat="49.44303" lon="1.97093">
        <ele>169.80000305176</ele>
        <time>2020-01-02T13:47:14.000Z</time>
      </trkpt>
      <trkpt lat="49.44299" lon="1.97094">
        <ele>169.80000305176</ele>
        <time>2020-01-02T13:47:17.000Z</time>
      </trkpt>
      <trkpt lat="49.44294" lon="1.97107">
        <ele>169.80000305176</ele>
        <time>2020-01-02T13:47:21.000Z</time>
      </trkpt>
      <trkpt lat="49.44295" lon="1.97127">
        <ele>169.60000610352</ele>
        <time>2020-01-02T13:47:26.000Z</time>
      </trkpt>
      <trkpt lat="49.44301" lon="1.97155">
        <ele>169.39999389648</ele>
        <time>2020-01-02T13:47:32.000Z</time>
      </trkpt>
      <trkpt lat="49.44307" lon="1.97191">
        <ele>169.39999389648</ele>
        <time>2020-01-02T13:47:39.000Z</time>
      </trkpt>
      <trkpt lat="49.44314" lon="1.97221">
        <ele>169.19999694824</ele>
        <time>2020-01-02T13:47:44.000Z</time>
      </trkpt>
      <trkpt lat="49.44316" lon="1.97227">
        <ele>169.19999694824</ele>
        <time>2020-01-02T13:47:45.000Z</time>
      </trkpt>
      <trkpt lat="49.4432" lon="1.97246">
        <ele>169</ele>
        <time>2020-01-02T13:47:48.000Z</time>
      </trkpt>
      <trkpt lat="49.44322" lon="1.97256">
        <ele>169</ele>
        <time>2020-01-02T13:47:50.000Z</time>
      </trkpt>
      <trkpt lat="49.44323" lon="1.97262">
        <ele>169</ele>
        <time>2020-01-02T13:47:51.000Z</time>
      </trkpt>
      <trkpt lat="49.44333" lon="1.97298">
        <ele>168.80000305176</ele>
        <time>2020-01-02T13:47:57.000Z</time>
      </trkpt>
      <trkpt lat="49.4435" lon="1.97338">
        <ele>169</ele>
        <time>2020-01-02T13:48:04.000Z</time>
      </trkpt>
      <trkpt lat="49.44352" lon="1.97344">
        <ele>169</ele>
        <time>2020-01-02T13:48:05.000Z</time>
      </trkpt>
      <trkpt lat="49.44362" lon="1.97375">
        <ele>169</ele>
        <time>2020-01-02T13:48:10.000Z</time>
      </trkpt>
      <trkpt lat="49.44377" lon="1.97421">
        <ele>169.60000610352</ele>
        <time>2020-01-02T13:48:17.000Z</time>
      </trkpt>
      <trkpt lat="49.44384" lon="1.97446">
        <ele>170.19999694824</ele>
        <time>2020-01-02T13:48:21.000Z</time>
      </trkpt>
      <trkpt lat="49.44388" lon="1.97463">
        <ele>170.60000610352</ele>
        <time>2020-01-02T13:48:24.000Z</time>
      </trkpt>
      <trkpt lat="49.444" lon="1.97476">
        <ele>170.80000305176</ele>
        <time>2020-01-02T13:48:28.000Z</time>
      </trkpt>
      <trkpt lat="49.44419" lon="1.97473">
        <ele>171.39999389648</ele>
        <time>2020-01-02T13:48:33.000Z</time>
      </trkpt>
      <trkpt lat="49.44443" lon="1.9748">
        <ele>172.60000610352</ele>
        <time>2020-01-02T13:48:39.000Z</time>
      </trkpt>
      <trkpt lat="49.44459" lon="1.975">
        <ele>173.39999389648</ele>
        <time>2020-01-02T13:48:44.000Z</time>
      </trkpt>
      <trkpt lat="49.44462" lon="1.97505">
        <ele>173.39999389648</ele>
        <time>2020-01-02T13:48:45.000Z</time>
      </trkpt>
      <trkpt lat="49.44465" lon="1.97509">
        <ele>173.80000305176</ele>
        <time>2020-01-02T13:48:46.000Z</time>
      </trkpt>
      <trkpt lat="49.44475" lon="1.97521">
        <ele>174.19999694824</ele>
        <time>2020-01-02T13:48:49.000Z</time>
      </trkpt>
      <trkpt lat="49.44486" lon="1.97527">
        <ele>174.39999389648</ele>
        <time>2020-01-02T13:48:53.000Z</time>
      </trkpt>
      <trkpt lat="49.44503" lon="1.97526">
        <ele>174.80000305176</ele>
        <time>2020-01-02T13:48:58.000Z</time>
      </trkpt>
      <trkpt lat="49.44508" lon="1.97526">
        <ele>174.80000305176</ele>
        <time>2020-01-02T13:48:59.000Z</time>
      </trkpt>
      <trkpt lat="49.44542" lon="1.97522">
        <ele>175.80000305176</ele>
        <time>2020-01-02T13:49:05.000Z</time>
      </trkpt>
      <trkpt lat="49.44553" lon="1.9752">
        <ele>176</ele>
        <time>2020-01-02T13:49:07.000Z</time>
      </trkpt>
      <trkpt lat="49.44583" lon="1.97511">
        <ele>176.39999389648</ele>
        <time>2020-01-02T13:49:13.000Z</time>
      </trkpt>
      <trkpt lat="49.44617" lon="1.97494">
        <ele>176.80000305176</ele>
        <time>2020-01-02T13:49:21.000Z</time>
      </trkpt>
      <trkpt lat="49.44625" lon="1.97489">
        <ele>177</ele>
        <time>2020-01-02T13:49:23.000Z</time>
      </trkpt>
      <trkpt lat="49.44639" lon="1.97477">
        <ele>177.60000610352</ele>
        <time>2020-01-02T13:49:27.000Z</time>
      </trkpt>
      <trkpt lat="49.44645" lon="1.9747">
        <ele>177.80000305176</ele>
        <time>2020-01-02T13:49:31.000Z</time>
      </trkpt>
      <trkpt lat="49.44646" lon="1.9747">
        <ele>178</ele>
        <time>2020-01-02T13:49:34.000Z</time>
      </trkpt>
      <trkpt lat="49.44697" lon="1.97474">
        <ele>187.60000610352</ele>
        <time>2020-01-02T13:50:31.000Z</time>
      </trkpt>
      <trkpt lat="49.44702" lon="1.97474">
        <ele>187.80000305176</ele>
        <time>2020-01-02T13:50:33.000Z</time>
      </trkpt>
      <trkpt lat="49.44718" lon="1.97477">
        <ele>188.19999694824</ele>
        <time>2020-01-02T13:50:39.000Z</time>
      </trkpt>
      <trkpt lat="49.4472" lon="1.97479">
        <ele>188.19999694824</ele>
        <time>2020-01-02T13:50:40.000Z</time>
      </trkpt>
      <trkpt lat="49.44727" lon="1.97484">
        <ele>188.39999389648</ele>
        <time>2020-01-02T13:50:43.000Z</time>
      </trkpt>
      <trkpt lat="49.44733" lon="1.97491">
        <ele>188.60000610352</ele>
        <time>2020-01-02T13:50:46.000Z</time>
      </trkpt>
      <trkpt lat="49.44735" lon="1.97493">
        <ele>188.60000610352</ele>
        <time>2020-01-02T13:50:47.000Z</time>
      </trkpt>
      <trkpt lat="49.44747" lon="1.97509">
        <ele>188.80000305176</ele>
        <time>2020-01-02T13:50:52.000Z</time>
      </trkpt>
      <trkpt lat="49.44755" lon="1.97519">
        <ele>188.80000305176</ele>
        <time>2020-01-02T13:50:55.000Z</time>
      </trkpt>
      <trkpt lat="49.44762" lon="1.97531">
        <ele>188.80000305176</ele>
        <time>2020-01-02T13:50:58.000Z</time>
      </trkpt>
      <trkpt lat="49.44777" lon="1.9755">
        <ele>189</ele>
        <time>2020-01-02T13:51:03.000Z</time>
      </trkpt>
      <trkpt lat="49.44795" lon="1.97575">
        <ele>189.19999694824</ele>
        <time>2020-01-02T13:51:09.000Z</time>
      </trkpt>
      <trkpt lat="49.44816" lon="1.976">
        <ele>189.39999389648</ele>
        <time>2020-01-02T13:51:15.000Z</time>
      </trkpt>
      <trkpt lat="49.44829" lon="1.97622">
        <ele>190</ele>
        <time>2020-01-02T13:51:21.000Z</time>
      </trkpt>
      <trkpt lat="49.44833" lon="1.97625">
        <ele>190.19999694824</ele>
        <time>2020-01-02T13:51:22.000Z</time>
      </trkpt>
      <trkpt lat="49.44847" lon="1.97643">
        <ele>190.39999389648</ele>
        <time>2020-01-02T13:51:26.000Z</time>
      </trkpt>
      <trkpt lat="49.44862" lon="1.97666">
        <ele>190.39999389648</ele>
        <time>2020-01-02T13:51:31.000Z</time>
      </trkpt>
      <trkpt lat="49.44886" lon="1.97695">
        <ele>190.19999694824</ele>
        <time>2020-01-02T13:51:37.000Z</time>
      </trkpt>
      <trkpt lat="49.44903" lon="1.97716">
        <ele>190.19999694824</ele>
        <time>2020-01-02T13:51:42.000Z</time>
      </trkpt>
      <trkpt lat="49.44919" lon="1.97739">
        <ele>190</ele>
        <time>2020-01-02T13:51:47.000Z</time>
      </trkpt>
      <trkpt lat="49.44937" lon="1.97761">
        <ele>190</ele>
        <time>2020-01-02T13:51:51.000Z</time>
      </trkpt>
      <trkpt lat="49.4494" lon="1.97767">
        <ele>190</ele>
        <time>2020-01-02T13:51:52.000Z</time>
      </trkpt>
      <trkpt lat="49.44954" lon="1.97786">
        <ele>189</ele>
        <time>2020-01-02T13:51:55.000Z</time>
      </trkpt>
      <trkpt lat="49.44958" lon="1.97794">
        <ele>188.60000610352</ele>
        <time>2020-01-02T13:51:56.000Z</time>
      </trkpt>
      <trkpt lat="49.44962" lon="1.97802">
        <ele>188</ele>
        <time>2020-01-02T13:51:57.000Z</time>
      </trkpt>
      <trkpt lat="49.4497" lon="1.97818">
        <ele>187.39999389648</ele>
        <time>2020-01-02T13:51:59.000Z</time>
      </trkpt>
      <trkpt lat="49.44977" lon="1.97835">
        <ele>186.60000610352</ele>
        <time>2020-01-02T13:52:01.000Z</time>
      </trkpt>
      <trkpt lat="49.44985" lon="1.9785">
        <ele>185.39999389648</ele>
        <time>2020-01-02T13:52:03.000Z</time>
      </trkpt>
      <trkpt lat="49.44991" lon="1.97864">
        <ele>184</ele>
        <time>2020-01-02T13:52:05.000Z</time>
      </trkpt>
      <trkpt lat="49.44994" lon="1.97871">
        <ele>183.60000610352</ele>
        <time>2020-01-02T13:52:06.000Z</time>
      </trkpt>
      <trkpt lat="49.44999" lon="1.97886">
        <ele>183</ele>
        <time>2020-01-02T13:52:08.000Z</time>
      </trkpt>
      <trkpt lat="49.45003" lon="1.979">
        <ele>182.19999694824</ele>
        <time>2020-01-02T13:52:10.000Z</time>
      </trkpt>
      <trkpt lat="49.45004" lon="1.97914">
        <ele>181.80000305176</ele>
        <time>2020-01-02T13:52:12.000Z</time>
      </trkpt>
      <trkpt lat="49.45001" lon="1.97928">
        <ele>181.60000610352</ele>
        <time>2020-01-02T13:52:15.000Z</time>
      </trkpt>
      <trkpt lat="49.44989" lon="1.97942">
        <ele>181.19999694824</ele>
        <time>2020-01-02T13:52:19.000Z</time>
      </trkpt>
      <trkpt lat="49.44957" lon="1.97961">
        <ele>181.19999694824</ele>
        <time>2020-01-02T13:52:27.000Z</time>
      </trkpt>
      <trkpt lat="49.44947" lon="1.97967">
        <ele>181.19999694824</ele>
        <time>2020-01-02T13:52:30.000Z</time>
      </trkpt>
      <trkpt lat="49.44939" lon="1.97973">
        <ele>181.39999389648</ele>
        <time>2020-01-02T13:52:32.000Z</time>
      </trkpt>
      <trkpt lat="49.44912" lon="1.98">
        <ele>183</ele>
        <time>2020-01-02T13:52:39.000Z</time>
      </trkpt>
      <trkpt lat="49.44904" lon="1.98008">
        <ele>183</ele>
        <time>2020-01-02T13:52:41.000Z</time>
      </trkpt>
      <trkpt lat="49.44889" lon="1.98025">
        <ele>183</ele>
        <time>2020-01-02T13:52:45.000Z</time>
      </trkpt>
      <trkpt lat="49.44877" lon="1.98039">
        <ele>183.19999694824</ele>
        <time>2020-01-02T13:52:48.000Z</time>
      </trkpt>
      <trkpt lat="49.4486" lon="1.98054">
        <ele>183.19999694824</ele>
        <time>2020-01-02T13:52:52.000Z</time>
      </trkpt>
      <trkpt lat="49.44834" lon="1.98081">
        <ele>183</ele>
        <time>2020-01-02T13:52:59.000Z</time>
      </trkpt>
      <trkpt lat="49.44832" lon="1.98086">
        <ele>182.80000305176</ele>
        <time>2020-01-02T13:53:00.000Z</time>
      </trkpt>
      <trkpt lat="49.44834" lon="1.98098">
        <ele>182.80000305176</ele>
        <time>2020-01-02T13:53:02.000Z</time>
      </trkpt>
      <trkpt lat="49.44841" lon="1.98112">
        <ele>182.60000610352</ele>
        <time>2020-01-02T13:53:04.000Z</time>
      </trkpt>
      <trkpt lat="49.44848" lon="1.98128">
        <ele>182.39999389648</ele>
        <time>2020-01-02T13:53:06.000Z</time>
      </trkpt>
      <trkpt lat="49.44869" lon="1.98174">
        <ele>181.60000610352</ele>
        <time>2020-01-02T13:53:11.000Z</time>
      </trkpt>
      <trkpt lat="49.44873" lon="1.98183">
        <ele>181</ele>
        <time>2020-01-02T13:53:12.000Z</time>
      </trkpt>
      <trkpt lat="49.44877" lon="1.98193">
        <ele>180.39999389648</ele>
        <time>2020-01-02T13:53:13.000Z</time>
      </trkpt>
      <trkpt lat="49.44885" lon="1.98213">
        <ele>178.60000610352</ele>
        <time>2020-01-02T13:53:15.000Z</time>
      </trkpt>
      <trkpt lat="49.44892" lon="1.98233">
        <ele>177.19999694824</ele>
        <time>2020-01-02T13:53:17.000Z</time>
      </trkpt>
      <trkpt lat="49.44898" lon="1.98252">
        <ele>175.80000305176</ele>
        <time>2020-01-02T13:53:19.000Z</time>
      </trkpt>
      <trkpt lat="49.44905" lon="1.98272">
        <ele>174</ele>
        <time>2020-01-02T13:53:21.000Z</time>
      </trkpt>
      <trkpt lat="49.44912" lon="1.98292">
        <ele>172.80000305176</ele>
        <time>2020-01-02T13:53:23.000Z</time>
      </trkpt>
      <trkpt lat="49.4492" lon="1.98319">
        <ele>171.39999389648</ele>
        <time>2020-01-02T13:53:26.000Z</time>
      </trkpt>
      <trkpt lat="49.44922" lon="1.98327">
        <ele>171</ele>
        <time>2020-01-02T13:53:27.000Z</time>
      </trkpt>
      <trkpt lat="49.44925" lon="1.98335">
        <ele>170.39999389648</ele>
        <time>2020-01-02T13:53:28.000Z</time>
      </trkpt>
      <trkpt lat="49.44929" lon="1.98351">
        <ele>169.39999389648</ele>
        <time>2020-01-02T13:53:30.000Z</time>
      </trkpt>
      <trkpt lat="49.44935" lon="1.98366">
        <ele>168</ele>
        <time>2020-01-02T13:53:32.000Z</time>
      </trkpt>
      <trkpt lat="49.44944" lon="1.98378">
        <ele>167</ele>
        <time>2020-01-02T13:53:34.000Z</time>
      </trkpt>
      <trkpt lat="49.44949" lon="1.98383">
        <ele>166.80000305176</ele>
        <time>2020-01-02T13:53:35.000Z</time>
      </trkpt>
      <trkpt lat="49.44954" lon="1.98388">
        <ele>166.60000610352</ele>
        <time>2020-01-02T13:53:36.000Z</time>
      </trkpt>
      <trkpt lat="49.44963" lon="1.98398">
        <ele>166.19999694824</ele>
        <time>2020-01-02T13:53:38.000Z</time>
      </trkpt>
      <trkpt lat="49.44971" lon="1.98408">
        <ele>166.19999694824</ele>
        <time>2020-01-02T13:53:40.000Z</time>
      </trkpt>
      <trkpt lat="49.44987" lon="1.98428">
        <ele>165.80000305176</ele>
        <time>2020-01-02T13:53:44.000Z</time>
      </trkpt>
      <trkpt lat="49.44998" lon="1.98444">
        <ele>165.60000610352</ele>
        <time>2020-01-02T13:53:47.000Z</time>
      </trkpt>
      <trkpt lat="49.45013" lon="1.98467">
        <ele>165</ele>
        <time>2020-01-02T13:53:52.000Z</time>
      </trkpt>
      <trkpt lat="49.45019" lon="1.98476">
        <ele>164.80000305176</ele>
        <time>2020-01-02T13:53:54.000Z</time>
      </trkpt>
      <trkpt lat="49.45042" lon="1.98512">
        <ele>164.60000610352</ele>
        <time>2020-01-02T13:54:01.000Z</time>
      </trkpt>
      <trkpt lat="49.45053" lon="1.98534">
        <ele>164.39999389648</ele>
        <time>2020-01-02T13:54:05.000Z</time>
      </trkpt>
      <trkpt lat="49.45054" lon="1.9854">
        <ele>164.39999389648</ele>
        <time>2020-01-02T13:54:06.000Z</time>
      </trkpt>
      <trkpt lat="49.45052" lon="1.98563">
        <ele>164.19999694824</ele>
        <time>2020-01-02T13:54:10.000Z</time>
      </trkpt>
      <trkpt lat="49.45044" lon="1.98575">
        <ele>163.80000305176</ele>
        <time>2020-01-02T13:54:13.000Z</time>
      </trkpt>
      <trkpt lat="49.45037" lon="1.98583">
        <ele>163.60000610352</ele>
        <time>2020-01-02T13:54:15.000Z</time>
      </trkpt>
      <trkpt lat="49.45024" lon="1.98597">
        <ele>162.80000305176</ele>
        <time>2020-01-02T13:54:19.000Z</time>
      </trkpt>
      <trkpt lat="49.45016" lon="1.98606">
        <ele>162.39999389648</ele>
        <time>2020-01-02T13:54:22.000Z</time>
      </trkpt>
      <trkpt lat="49.45001" lon="1.98624">
        <ele>161.80000305176</ele>
        <time>2020-01-02T13:54:28.000Z</time>
      </trkpt>
      <trkpt lat="49.44987" lon="1.98643">
        <ele>161.60000610352</ele>
        <time>2020-01-02T13:54:35.000Z</time>
      </trkpt>
      <trkpt lat="49.44976" lon="1.98663">
        <ele>161.60000610352</ele>
        <time>2020-01-02T13:54:41.000Z</time>
      </trkpt>
      <trkpt lat="49.44973" lon="1.98682">
        <ele>161.60000610352</ele>
        <time>2020-01-02T13:54:46.000Z</time>
      </trkpt>
      <trkpt lat="49.4498" lon="1.98701">
        <ele>161.80000305176</ele>
        <time>2020-01-02T13:54:51.000Z</time>
      </trkpt>
      <trkpt lat="49.44995" lon="1.98724">
        <ele>161.80000305176</ele>
        <time>2020-01-02T13:54:57.000Z</time>
      </trkpt>
      <trkpt lat="49.45013" lon="1.98747">
        <ele>162</ele>
        <time>2020-01-02T13:55:03.000Z</time>
      </trkpt>
      <trkpt lat="49.45044" lon="1.98786">
        <ele>162.80000305176</ele>
        <time>2020-01-02T13:55:12.000Z</time>
      </trkpt>
      <trkpt lat="49.45053" lon="1.988">
        <ele>163</ele>
        <time>2020-01-02T13:55:15.000Z</time>
      </trkpt>
      <trkpt lat="49.45068" lon="1.98821">
        <ele>163.60000610352</ele>
        <time>2020-01-02T13:55:20.000Z</time>
      </trkpt>
      <trkpt lat="49.4508" lon="1.98838">
        <ele>164.19999694824</ele>
        <time>2020-01-02T13:55:24.000Z</time>
      </trkpt>
      <trkpt lat="49.45087" lon="1.98848">
        <ele>165</ele>
        <time>2020-01-02T13:55:27.000Z</time>
      </trkpt>
      <trkpt lat="49.45093" lon="1.98852">
        <ele>165.60000610352</ele>
        <time>2020-01-02T13:55:29.000Z</time>
      </trkpt>
      <trkpt lat="49.45101" lon="1.98857">
        <ele>166.39999389648</ele>
        <time>2020-01-02T13:55:32.000Z</time>
      </trkpt>
      <trkpt lat="49.45103" lon="1.98859">
        <ele>166.60000610352</ele>
        <time>2020-01-02T13:55:33.000Z</time>
      </trkpt>
      <trkpt lat="49.45114" lon="1.98862">
        <ele>167.80000305176</ele>
        <time>2020-01-02T13:55:37.000Z</time>
      </trkpt>
      <trkpt lat="49.45116" lon="1.98863">
        <ele>168</ele>
        <time>2020-01-02T13:55:38.000Z</time>
      </trkpt>
      <trkpt lat="49.4513" lon="1.98868">
        <ele>168.80000305176</ele>
        <time>2020-01-02T13:55:43.000Z</time>
      </trkpt>
      <trkpt lat="49.45141" lon="1.98872">
        <ele>170</ele>
        <time>2020-01-02T13:55:47.000Z</time>
      </trkpt>
      <trkpt lat="49.45161" lon="1.9888">
        <ele>171</ele>
        <time>2020-01-02T13:55:54.000Z</time>
      </trkpt>
      <trkpt lat="49.45182" lon="1.9889">
        <ele>171.60000610352</ele>
        <time>2020-01-02T13:56:02.000Z</time>
      </trkpt>
      <trkpt lat="49.45191" lon="1.98895">
        <ele>172.19999694824</ele>
        <time>2020-01-02T13:56:06.000Z</time>
      </trkpt>
      <trkpt lat="49.45195" lon="1.98898">
        <ele>172.60000610352</ele>
        <time>2020-01-02T13:56:08.000Z</time>
      </trkpt>
      <trkpt lat="49.45202" lon="1.98903">
        <ele>173.19999694824</ele>
        <time>2020-01-02T13:56:11.000Z</time>
      </trkpt>
      <trkpt lat="49.45212" lon="1.98911">
        <ele>174.39999389648</ele>
        <time>2020-01-02T13:56:15.000Z</time>
      </trkpt>
      <trkpt lat="49.45215" lon="1.98914">
        <ele>174.80000305176</ele>
        <time>2020-01-02T13:56:16.000Z</time>
      </trkpt>
      <trkpt lat="49.45222" lon="1.98921">
        <ele>175.80000305176</ele>
        <time>2020-01-02T13:56:19.000Z</time>
      </trkpt>
      <trkpt lat="49.45236" lon="1.98934">
        <ele>176.60000610352</ele>
        <time>2020-01-02T13:56:24.000Z</time>
      </trkpt>
      <trkpt lat="49.45244" lon="1.98942">
        <ele>177</ele>
        <time>2020-01-02T13:56:27.000Z</time>
      </trkpt>
      <trkpt lat="49.45265" lon="1.98963">
        <ele>178</ele>
        <time>2020-01-02T13:56:35.000Z</time>
      </trkpt>
      <trkpt lat="49.45271" lon="1.98969">
        <ele>178.19999694824</ele>
        <time>2020-01-02T13:56:37.000Z</time>
      </trkpt>
      <trkpt lat="49.45283" lon="1.98981">
        <ele>178.60000610352</ele>
        <time>2020-01-02T13:56:41.000Z</time>
      </trkpt>
      <trkpt lat="49.45306" lon="1.99002">
        <ele>178.80000305176</ele>
        <time>2020-01-02T13:56:48.000Z</time>
      </trkpt>
      <trkpt lat="49.45332" lon="1.99027">
        <ele>179</ele>
        <time>2020-01-02T13:56:56.000Z</time>
      </trkpt>
      <trkpt lat="49.45346" lon="1.99047">
        <ele>178</ele>
        <time>2020-01-02T13:57:01.000Z</time>
      </trkpt>
      <trkpt lat="49.45344" lon="1.99067">
        <ele>177.60000610352</ele>
        <time>2020-01-02T13:57:05.000Z</time>
      </trkpt>
      <trkpt lat="49.45342" lon="1.99072">
        <ele>177.19999694824</ele>
        <time>2020-01-02T13:57:06.000Z</time>
      </trkpt>
      <trkpt lat="49.45328" lon="1.99104">
        <ele>176.19999694824</ele>
        <time>2020-01-02T13:57:12.000Z</time>
      </trkpt>
      <trkpt lat="49.45311" lon="1.99144">
        <ele>176.39999389648</ele>
        <time>2020-01-02T13:57:20.000Z</time>
      </trkpt>
      <trkpt lat="49.45296" lon="1.99181">
        <ele>177</ele>
        <time>2020-01-02T13:57:27.000Z</time>
      </trkpt>
      <trkpt lat="49.45274" lon="1.99234">
        <ele>177</ele>
        <time>2020-01-02T13:57:37.000Z</time>
      </trkpt>
      <trkpt lat="49.4526" lon="1.99271">
        <ele>177.19999694824</ele>
        <time>2020-01-02T13:57:44.000Z</time>
      </trkpt>
      <trkpt lat="49.45239" lon="1.99318">
        <ele>177.19999694824</ele>
        <time>2020-01-02T13:57:53.000Z</time>
      </trkpt>
      <trkpt lat="49.45228" lon="1.99345">
        <ele>177</ele>
        <time>2020-01-02T13:57:58.000Z</time>
      </trkpt>
      <trkpt lat="49.45221" lon="1.99359">
        <ele>176.80000305176</ele>
        <time>2020-01-02T13:58:01.000Z</time>
      </trkpt>
      <trkpt lat="49.45219" lon="1.99364">
        <ele>176.80000305176</ele>
        <time>2020-01-02T13:58:02.000Z</time>
      </trkpt>
      <trkpt lat="49.45206" lon="1.99395">
        <ele>177</ele>
        <time>2020-01-02T13:58:08.000Z</time>
      </trkpt>
      <trkpt lat="49.45188" lon="1.99436">
        <ele>176.39999389648</ele>
        <time>2020-01-02T13:58:16.000Z</time>
      </trkpt>
      <trkpt lat="49.4518" lon="1.99455">
        <ele>175.39999389648</ele>
        <time>2020-01-02T13:58:20.000Z</time>
      </trkpt>
      <trkpt lat="49.45172" lon="1.99474">
        <ele>174.80000305176</ele>
        <time>2020-01-02T13:58:24.000Z</time>
      </trkpt>
      <trkpt lat="49.45162" lon="1.995">
        <ele>174.19999694824</ele>
        <time>2020-01-02T13:58:29.000Z</time>
      </trkpt>
      <trkpt lat="49.45156" lon="1.99514">
        <ele>173.80000305176</ele>
        <time>2020-01-02T13:58:32.000Z</time>
      </trkpt>
      <trkpt lat="49.45148" lon="1.99532">
        <ele>173.19999694824</ele>
        <time>2020-01-02T13:58:36.000Z</time>
      </trkpt>
      <trkpt lat="49.45142" lon="1.99547">
        <ele>173</ele>
        <time>2020-01-02T13:58:39.000Z</time>
      </trkpt>
      <trkpt lat="49.45123" lon="1.99595">
        <ele>173.19999694824</ele>
        <time>2020-01-02T13:58:48.000Z</time>
      </trkpt>
      <trkpt lat="49.45112" lon="1.99617">
        <ele>173.19999694824</ele>
        <time>2020-01-02T13:58:54.000Z</time>
      </trkpt>
      <trkpt lat="49.451" lon="1.99645">
        <ele>173.19999694824</ele>
        <time>2020-01-02T13:59:01.000Z</time>
      </trkpt>
      <trkpt lat="49.45085" lon="1.99678">
        <ele>173.39999389648</ele>
        <time>2020-01-02T13:59:09.000Z</time>
      </trkpt>
      <trkpt lat="49.45073" lon="1.99706">
        <ele>173.39999389648</ele>
        <time>2020-01-02T13:59:16.000Z</time>
      </trkpt>
      <trkpt lat="49.45065" lon="1.99726">
        <ele>173.39999389648</ele>
        <time>2020-01-02T13:59:21.000Z</time>
      </trkpt>
      <trkpt lat="49.45055" lon="1.99751">
        <ele>173.39999389648</ele>
        <time>2020-01-02T13:59:28.000Z</time>
      </trkpt>
      <trkpt lat="49.45048" lon="1.99771">
        <ele>173.60000610352</ele>
        <time>2020-01-02T13:59:33.000Z</time>
      </trkpt>
      <trkpt lat="49.45033" lon="1.99801">
        <ele>173.80000305176</ele>
        <time>2020-01-02T13:59:41.000Z</time>
      </trkpt>
      <trkpt lat="49.45022" lon="1.99817">
        <ele>173.80000305176</ele>
        <time>2020-01-02T13:59:47.000Z</time>
      </trkpt>
      <trkpt lat="49.45009" lon="1.99839">
        <ele>173.60000610352</ele>
        <time>2020-01-02T13:59:53.000Z</time>
      </trkpt>
      <trkpt lat="49.44998" lon="1.99861">
        <ele>173.60000610352</ele>
        <time>2020-01-02T13:59:59.000Z</time>
      </trkpt>
      <trkpt lat="49.44982" lon="1.99885">
        <ele>173.60000610352</ele>
        <time>2020-01-02T14:00:07.000Z</time>
      </trkpt>
      <trkpt lat="49.44966" lon="1.99909">
        <ele>173.60000610352</ele>
        <time>2020-01-02T14:00:14.000Z</time>
      </trkpt>
      <trkpt lat="49.44951" lon="1.99928">
        <ele>173.80000305176</ele>
        <time>2020-01-02T14:00:20.000Z</time>
      </trkpt>
      <trkpt lat="49.44932" lon="1.99948">
        <ele>173.39999389648</ele>
        <time>2020-01-02T14:00:26.000Z</time>
      </trkpt>
      <trkpt lat="49.44906" lon="1.9997">
        <ele>173.39999389648</ele>
        <time>2020-01-02T14:00:34.000Z</time>
      </trkpt>
      <trkpt lat="49.44877" lon="1.99995">
        <ele>173.39999389648</ele>
        <time>2020-01-02T14:00:43.000Z</time>
      </trkpt>
      <trkpt lat="49.44854" lon="2.0002">
        <ele>173.39999389648</ele>
        <time>2020-01-02T14:00:50.000Z</time>
      </trkpt>
      <trkpt lat="49.44831" lon="2.00049">
        <ele>173.60000610352</ele>
        <time>2020-01-02T14:00:57.000Z</time>
      </trkpt>
      <trkpt lat="49.44805" lon="2.0009">
        <ele>173.80000305176</ele>
        <time>2020-01-02T14:01:06.000Z</time>
      </trkpt>
      <trkpt lat="49.44796" lon="2.00104">
        <ele>174</ele>
        <time>2020-01-02T14:01:09.000Z</time>
      </trkpt>
      <trkpt lat="49.44791" lon="2.00113">
        <ele>174.19999694824</ele>
        <time>2020-01-02T14:01:11.000Z</time>
      </trkpt>
      <trkpt lat="49.44785" lon="2.00122">
        <ele>174.60000610352</ele>
        <time>2020-01-02T14:01:13.000Z</time>
      </trkpt>
      <trkpt lat="49.44779" lon="2.00131">
        <ele>174.80000305176</ele>
        <time>2020-01-02T14:01:15.000Z</time>
      </trkpt>
      <trkpt lat="49.4477" lon="2.00145">
        <ele>175.39999389648</ele>
        <time>2020-01-02T14:01:18.000Z</time>
      </trkpt>
      <trkpt lat="49.44764" lon="2.00154">
        <ele>175.60000610352</ele>
        <time>2020-01-02T14:01:20.000Z</time>
      </trkpt>
      <trkpt lat="49.44752" lon="2.00172">
        <ele>176.19999694824</ele>
        <time>2020-01-02T14:01:24.000Z</time>
      </trkpt>
      <trkpt lat="49.44737" lon="2.00196">
        <ele>177</ele>
        <time>2020-01-02T14:01:29.000Z</time>
      </trkpt>
      <trkpt lat="49.44734" lon="2.00201">
        <ele>177.19999694824</ele>
        <time>2020-01-02T14:01:30.000Z</time>
      </trkpt>
      <trkpt lat="49.44713" lon="2.00236">
        <ele>178.19999694824</ele>
        <time>2020-01-02T14:01:37.000Z</time>
      </trkpt>
      <trkpt lat="49.4471" lon="2.00241">
        <ele>178.19999694824</ele>
        <time>2020-01-02T14:01:38.000Z</time>
      </trkpt>
      <trkpt lat="49.44693" lon="2.00272">
        <ele>179.39999389648</ele>
        <time>2020-01-02T14:01:44.000Z</time>
      </trkpt>
      <trkpt lat="49.44685" lon="2.00288">
        <ele>179.60000610352</ele>
        <time>2020-01-02T14:01:47.000Z</time>
      </trkpt>
      <trkpt lat="49.44665" lon="2.00325">
        <ele>180.19999694824</ele>
        <time>2020-01-02T14:01:54.000Z</time>
      </trkpt>
      <trkpt lat="49.44656" lon="2.00341">
        <ele>180.39999389648</ele>
        <time>2020-01-02T14:01:57.000Z</time>
      </trkpt>
      <trkpt lat="49.44639" lon="2.00367">
        <ele>180.60000610352</ele>
        <time>2020-01-02T14:02:02.000Z</time>
      </trkpt>
      <trkpt lat="49.44614" lon="2.00403">
        <ele>180.80000305176</ele>
        <time>2020-01-02T14:02:09.000Z</time>
      </trkpt>
      <trkpt lat="49.44594" lon="2.00439">
        <ele>181.39999389648</ele>
        <time>2020-01-02T14:02:16.000Z</time>
      </trkpt>
      <trkpt lat="49.44592" lon="2.00445">
        <ele>181.60000610352</ele>
        <time>2020-01-02T14:02:17.000Z</time>
      </trkpt>
      <trkpt lat="49.4459" lon="2.00462">
        <ele>182</ele>
        <time>2020-01-02T14:02:20.000Z</time>
      </trkpt>
      <trkpt lat="49.44601" lon="2.00469">
        <ele>182</ele>
        <time>2020-01-02T14:02:23.000Z</time>
      </trkpt>
      <trkpt lat="49.44618" lon="2.00475">
        <ele>182</ele>
        <time>2020-01-02T14:02:27.000Z</time>
      </trkpt>
      <trkpt lat="49.44632" lon="2.00481">
        <ele>182</ele>
        <time>2020-01-02T14:02:30.000Z</time>
      </trkpt>
      <trkpt lat="49.44643" lon="2.00486">
        <ele>181.80000305176</ele>
        <time>2020-01-02T14:02:33.000Z</time>
      </trkpt>
      <trkpt lat="49.44645" lon="2.0049">
        <ele>181.60000610352</ele>
        <time>2020-01-02T14:02:34.000Z</time>
      </trkpt>
      <trkpt lat="49.44643" lon="2.00509">
        <ele>181.19999694824</ele>
        <time>2020-01-02T14:02:37.000Z</time>
      </trkpt>
      <trkpt lat="49.44629" lon="2.00556">
        <ele>180.60000610352</ele>
        <time>2020-01-02T14:02:44.000Z</time>
      </trkpt>
      <trkpt lat="49.44624" lon="2.0057">
        <ele>180.39999389648</ele>
        <time>2020-01-02T14:02:46.000Z</time>
      </trkpt>
      <trkpt lat="49.44616" lon="2.0059">
        <ele>180.19999694824</ele>
        <time>2020-01-02T14:02:49.000Z</time>
      </trkpt>
      <trkpt lat="49.44612" lon="2.00596">
        <ele>180</ele>
        <time>2020-01-02T14:02:50.000Z</time>
      </trkpt>
      <trkpt lat="49.44594" lon="2.00636">
        <ele>179.39999389648</ele>
        <time>2020-01-02T14:02:56.000Z</time>
      </trkpt>
      <trkpt lat="49.44591" lon="2.00644">
        <ele>179.39999389648</ele>
        <time>2020-01-02T14:02:57.000Z</time>
      </trkpt>
      <trkpt lat="49.44573" lon="2.00695">
        <ele>178.39999389648</ele>
        <time>2020-01-02T14:03:04.000Z</time>
      </trkpt>
      <trkpt lat="49.44566" lon="2.00717">
        <ele>178</ele>
        <time>2020-01-02T14:03:07.000Z</time>
      </trkpt>
      <trkpt lat="49.4455" lon="2.00764">
        <ele>177.39999389648</ele>
        <time>2020-01-02T14:03:13.000Z</time>
      </trkpt>
      <trkpt lat="49.44531" lon="2.00818">
        <ele>176.19999694824</ele>
        <time>2020-01-02T14:03:20.000Z</time>
      </trkpt>
      <trkpt lat="49.44524" lon="2.0084">
        <ele>175.60000610352</ele>
        <time>2020-01-02T14:03:23.000Z</time>
      </trkpt>
      <trkpt lat="49.44518" lon="2.00854">
        <ele>175.19999694824</ele>
        <time>2020-01-02T14:03:25.000Z</time>
      </trkpt>
      <trkpt lat="49.44515" lon="2.00861">
        <ele>175.19999694824</ele>
        <time>2020-01-02T14:03:26.000Z</time>
      </trkpt>
      <trkpt lat="49.44493" lon="2.00908">
        <ele>175</ele>
        <time>2020-01-02T14:03:33.000Z</time>
      </trkpt>
      <trkpt lat="49.44474" lon="2.0095">
        <ele>174.39999389648</ele>
        <time>2020-01-02T14:03:39.000Z</time>
      </trkpt>
      <trkpt lat="49.44468" lon="2.00965">
        <ele>174.19999694824</ele>
        <time>2020-01-02T14:03:41.000Z</time>
      </trkpt>
      <trkpt lat="49.44463" lon="2.00979">
        <ele>174</ele>
        <time>2020-01-02T14:03:43.000Z</time>
      </trkpt>
      <trkpt lat="49.44458" lon="2.01004">
        <ele>174</ele>
        <time>2020-01-02T14:03:46.000Z</time>
      </trkpt>
      <trkpt lat="49.44453" lon="2.01049">
        <ele>173.60000610352</ele>
        <time>2020-01-02T14:03:51.000Z</time>
      </trkpt>
      <trkpt lat="49.44452" lon="2.01059">
        <ele>173.39999389648</ele>
        <time>2020-01-02T14:03:52.000Z</time>
      </trkpt>
      <trkpt lat="49.44452" lon="2.01069">
        <ele>173.19999694824</ele>
        <time>2020-01-02T14:03:53.000Z</time>
      </trkpt>
      <trkpt lat="49.44449" lon="2.01109">
        <ele>172.19999694824</ele>
        <time>2020-01-02T14:03:57.000Z</time>
      </trkpt>
      <trkpt lat="49.44448" lon="2.0113">
        <ele>171.19999694824</ele>
        <time>2020-01-02T14:03:59.000Z</time>
      </trkpt>
      <trkpt lat="49.44447" lon="2.0114">
        <ele>171</ele>
        <time>2020-01-02T14:04:00.000Z</time>
      </trkpt>
      <trkpt lat="49.44445" lon="2.01182">
        <ele>169.80000305176</ele>
        <time>2020-01-02T14:04:04.000Z</time>
      </trkpt>
      <trkpt lat="49.44444" lon="2.01203">
        <ele>169.19999694824</ele>
        <time>2020-01-02T14:04:06.000Z</time>
      </trkpt>
      <trkpt lat="49.44442" lon="2.01225">
        <ele>168.60000610352</ele>
        <time>2020-01-02T14:04:08.000Z</time>
      </trkpt>
      <trkpt lat="49.4444" lon="2.01269">
        <ele>167.39999389648</ele>
        <time>2020-01-02T14:04:12.000Z</time>
      </trkpt>
      <trkpt lat="49.44439" lon="2.0128">
        <ele>167.19999694824</ele>
        <time>2020-01-02T14:04:13.000Z</time>
      </trkpt>
      <trkpt lat="49.44434" lon="2.01312">
        <ele>166.19999694824</ele>
        <time>2020-01-02T14:04:16.000Z</time>
      </trkpt>
      <trkpt lat="49.44427" lon="2.01342">
        <ele>165.39999389648</ele>
        <time>2020-01-02T14:04:19.000Z</time>
      </trkpt>
      <trkpt lat="49.44424" lon="2.01352">
        <ele>165.19999694824</ele>
        <time>2020-01-02T14:04:20.000Z</time>
      </trkpt>
      <trkpt lat="49.44408" lon="2.01408">
        <ele>163.80000305176</ele>
        <time>2020-01-02T14:04:26.000Z</time>
      </trkpt>
      <trkpt lat="49.44385" lon="2.01488">
        <ele>162.80000305176</ele>
        <time>2020-01-02T14:04:35.000Z</time>
      </trkpt>
      <trkpt lat="49.44375" lon="2.01535">
        <ele>162.39999389648</ele>
        <time>2020-01-02T14:04:40.000Z</time>
      </trkpt>
      <trkpt lat="49.44374" lon="2.01545">
        <ele>162.39999389648</ele>
        <time>2020-01-02T14:04:41.000Z</time>
      </trkpt>
      <trkpt lat="49.44372" lon="2.01604">
        <ele>161.60000610352</ele>
        <time>2020-01-02T14:04:47.000Z</time>
      </trkpt>
      <trkpt lat="49.44371" lon="2.01614">
        <ele>161.60000610352</ele>
        <time>2020-01-02T14:04:48.000Z</time>
      </trkpt>
      <trkpt lat="49.44363" lon="2.01638">
        <ele>161.60000610352</ele>
        <time>2020-01-02T14:04:51.000Z</time>
      </trkpt>
      <trkpt lat="49.44351" lon="2.01657">
        <ele>161.39999389648</ele>
        <time>2020-01-02T14:04:54.000Z</time>
      </trkpt>
      <trkpt lat="49.44346" lon="2.01662">
        <ele>161.39999389648</ele>
        <time>2020-01-02T14:04:55.000Z</time>
      </trkpt>
      <trkpt lat="49.44342" lon="2.01667">
        <ele>161.39999389648</ele>
        <time>2020-01-02T14:04:56.000Z</time>
      </trkpt>
      <trkpt lat="49.44315" lon="2.01692">
        <ele>161.80000305176</ele>
        <time>2020-01-02T14:05:02.000Z</time>
      </trkpt>
      <trkpt lat="49.44311" lon="2.01696">
        <ele>161.80000305176</ele>
        <time>2020-01-02T14:05:03.000Z</time>
      </trkpt>
      <trkpt lat="49.44299" lon="2.0171">
        <ele>162.60000610352</ele>
        <time>2020-01-02T14:05:07.000Z</time>
      </trkpt>
      <trkpt lat="49.44297" lon="2.01713">
        <ele>162.80000305176</ele>
        <time>2020-01-02T14:05:08.000Z</time>
      </trkpt>
      <trkpt lat="49.44285" lon="2.01727">
        <ele>163.80000305176</ele>
        <time>2020-01-02T14:05:13.000Z</time>
      </trkpt>
      <trkpt lat="49.44281" lon="2.01747">
        <ele>164.60000610352</ele>
        <time>2020-01-02T14:05:18.000Z</time>
      </trkpt>
      <trkpt lat="49.4428" lon="2.01776">
        <ele>164.60000610352</ele>
        <time>2020-01-02T14:05:23.000Z</time>
      </trkpt>
      <trkpt lat="49.44283" lon="2.01819">
        <ele>164.39999389648</ele>
        <time>2020-01-02T14:05:30.000Z</time>
      </trkpt>
      <trkpt lat="49.44282" lon="2.0186">
        <ele>163.39999389648</ele>
        <time>2020-01-02T14:05:36.000Z</time>
      </trkpt>
      <trkpt lat="49.44282" lon="2.01867">
        <ele>163.19999694824</ele>
        <time>2020-01-02T14:05:37.000Z</time>
      </trkpt>
      <trkpt lat="49.44282" lon="2.01897">
        <ele>162.39999389648</ele>
        <time>2020-01-02T14:05:41.000Z</time>
      </trkpt>
      <trkpt lat="49.44282" lon="2.01905">
        <ele>162.19999694824</ele>
        <time>2020-01-02T14:05:42.000Z</time>
      </trkpt>
      <trkpt lat="49.44283" lon="2.0193">
        <ele>161.60000610352</ele>
        <time>2020-01-02T14:05:45.000Z</time>
      </trkpt>
      <trkpt lat="49.44283" lon="2.01939">
        <ele>161.39999389648</ele>
        <time>2020-01-02T14:05:46.000Z</time>
      </trkpt>
      <trkpt lat="49.44282" lon="2.01981">
        <ele>160.39999389648</ele>
        <time>2020-01-02T14:05:51.000Z</time>
      </trkpt>
      <trkpt lat="49.44282" lon="2.02006">
        <ele>159.80000305176</ele>
        <time>2020-01-02T14:05:54.000Z</time>
      </trkpt>
      <trkpt lat="49.44284" lon="2.02024">
        <ele>159.39999389648</ele>
        <time>2020-01-02T14:05:56.000Z</time>
      </trkpt>
      <trkpt lat="49.44287" lon="2.02041">
        <ele>159.19999694824</ele>
        <time>2020-01-02T14:05:58.000Z</time>
      </trkpt>
      <trkpt lat="49.4429" lon="2.02049">
        <ele>159</ele>
        <time>2020-01-02T14:05:59.000Z</time>
      </trkpt>
      <trkpt lat="49.44292" lon="2.02056">
        <ele>158.80000305176</ele>
        <time>2020-01-02T14:06:00.000Z</time>
      </trkpt>
      <trkpt lat="49.443" lon="2.02076">
        <ele>158.39999389648</ele>
        <time>2020-01-02T14:06:03.000Z</time>
      </trkpt>
      <trkpt lat="49.44309" lon="2.02099">
        <ele>158.19999694824</ele>
        <time>2020-01-02T14:06:06.000Z</time>
      </trkpt>
      <trkpt lat="49.44313" lon="2.02107">
        <ele>158</ele>
        <time>2020-01-02T14:06:07.000Z</time>
      </trkpt>
      <trkpt lat="49.44317" lon="2.02114">
        <ele>157.80000305176</ele>
        <time>2020-01-02T14:06:08.000Z</time>
      </trkpt>
      <trkpt lat="49.44332" lon="2.02146">
        <ele>157.39999389648</ele>
        <time>2020-01-02T14:06:12.000Z</time>
      </trkpt>
      <trkpt lat="49.44335" lon="2.02154">
        <ele>157.19999694824</ele>
        <time>2020-01-02T14:06:13.000Z</time>
      </trkpt>
      <trkpt lat="49.44337" lon="2.02164">
        <ele>157</ele>
        <time>2020-01-02T14:06:14.000Z</time>
      </trkpt>
      <trkpt lat="49.44345" lon="2.02192">
        <ele>156</ele>
        <time>2020-01-02T14:06:17.000Z</time>
      </trkpt>
      <trkpt lat="49.44347" lon="2.02201">
        <ele>155.80000305176</ele>
        <time>2020-01-02T14:06:18.000Z</time>
      </trkpt>
      <trkpt lat="49.44354" lon="2.02226">
        <ele>155.19999694824</ele>
        <time>2020-01-02T14:06:21.000Z</time>
      </trkpt>
      <trkpt lat="49.44355" lon="2.02234">
        <ele>155</ele>
        <time>2020-01-02T14:06:22.000Z</time>
      </trkpt>
      <trkpt lat="49.44355" lon="2.02243">
        <ele>154.80000305176</ele>
        <time>2020-01-02T14:06:23.000Z</time>
      </trkpt>
      <trkpt lat="49.44355" lon="2.02263">
        <ele>154.60000610352</ele>
        <time>2020-01-02T14:06:25.000Z</time>
      </trkpt>
      <trkpt lat="49.44354" lon="2.02272">
        <ele>154.39999389648</ele>
        <time>2020-01-02T14:06:26.000Z</time>
      </trkpt>
      <trkpt lat="49.44349" lon="2.023">
        <ele>153.60000610352</ele>
        <time>2020-01-02T14:06:29.000Z</time>
      </trkpt>
      <trkpt lat="49.44345" lon="2.02318">
        <ele>153.39999389648</ele>
        <time>2020-01-02T14:06:31.000Z</time>
      </trkpt>
      <trkpt lat="49.44342" lon="2.02326">
        <ele>153.39999389648</ele>
        <time>2020-01-02T14:06:32.000Z</time>
      </trkpt>
      <trkpt lat="49.44322" lon="2.02391">
        <ele>153</ele>
        <time>2020-01-02T14:06:40.000Z</time>
      </trkpt>
      <trkpt lat="49.4431" lon="2.02432">
        <ele>153.19999694824</ele>
        <time>2020-01-02T14:06:45.000Z</time>
      </trkpt>
      <trkpt lat="49.44295" lon="2.02481">
        <ele>153.39999389648</ele>
        <time>2020-01-02T14:06:51.000Z</time>
      </trkpt>
      <trkpt lat="49.44293" lon="2.02489">
        <ele>153.39999389648</ele>
        <time>2020-01-02T14:06:52.000Z</time>
      </trkpt>
      <trkpt lat="49.44286" lon="2.02513">
        <ele>153.39999389648</ele>
        <time>2020-01-02T14:06:55.000Z</time>
      </trkpt>
      <trkpt lat="49.44281" lon="2.02528">
        <ele>153.39999389648</ele>
        <time>2020-01-02T14:06:57.000Z</time>
      </trkpt>
      <trkpt lat="49.44275" lon="2.02546">
        <ele>152.80000305176</ele>
        <time>2020-01-02T14:07:00.000Z</time>
      </trkpt>
      <trkpt lat="49.4427" lon="2.02558">
        <ele>152.60000610352</ele>
        <time>2020-01-02T14:07:02.000Z</time>
      </trkpt>
      <trkpt lat="49.44254" lon="2.02591">
        <ele>152.39999389648</ele>
        <time>2020-01-02T14:07:08.000Z</time>
      </trkpt>
      <trkpt lat="49.44242" lon="2.02616">
        <ele>152.60000610352</ele>
        <time>2020-01-02T14:07:13.000Z</time>
      </trkpt>
      <trkpt lat="49.4424" lon="2.02622">
        <ele>152.60000610352</ele>
        <time>2020-01-02T14:07:14.000Z</time>
      </trkpt>
      <trkpt lat="49.44229" lon="2.02646">
        <ele>152.60000610352</ele>
        <time>2020-01-02T14:07:18.000Z</time>
      </trkpt>
      <trkpt lat="49.44211" lon="2.02689">
        <ele>152.60000610352</ele>
        <time>2020-01-02T14:07:25.000Z</time>
      </trkpt>
      <trkpt lat="49.44185" lon="2.02741">
        <ele>152.39999389648</ele>
        <time>2020-01-02T14:07:33.000Z</time>
      </trkpt>
      <trkpt lat="49.44162" lon="2.02786">
        <ele>152</ele>
        <time>2020-01-02T14:07:40.000Z</time>
      </trkpt>
      <trkpt lat="49.44139" lon="2.02833">
        <ele>152.19999694824</ele>
        <time>2020-01-02T14:07:47.000Z</time>
      </trkpt>
      <trkpt lat="49.44124" lon="2.02861">
        <ele>152</ele>
        <time>2020-01-02T14:07:51.000Z</time>
      </trkpt>
      <trkpt lat="49.44115" lon="2.02876">
        <ele>152</ele>
        <time>2020-01-02T14:07:53.000Z</time>
      </trkpt>
      <trkpt lat="49.44093" lon="2.02926">
        <ele>151</ele>
        <time>2020-01-02T14:07:59.000Z</time>
      </trkpt>
      <trkpt lat="49.44074" lon="2.02974">
        <ele>149.39999389648</ele>
        <time>2020-01-02T14:08:04.000Z</time>
      </trkpt>
      <trkpt lat="49.44069" lon="2.02985">
        <ele>149</ele>
        <time>2020-01-02T14:08:05.000Z</time>
      </trkpt>
      <trkpt lat="49.44062" lon="2.03004">
        <ele>148.19999694824</ele>
        <time>2020-01-02T14:08:07.000Z</time>
      </trkpt>
      <trkpt lat="49.44052" lon="2.03029">
        <ele>146.80000305176</ele>
        <time>2020-01-02T14:08:10.000Z</time>
      </trkpt>
      <trkpt lat="49.44046" lon="2.03044">
        <ele>145.19999694824</ele>
        <time>2020-01-02T14:08:12.000Z</time>
      </trkpt>
      <trkpt lat="49.44045" lon="2.03051">
        <ele>144.80000305176</ele>
        <time>2020-01-02T14:08:13.000Z</time>
      </trkpt>
      <trkpt lat="49.44045" lon="2.03063">
        <ele>144.39999389648</ele>
        <time>2020-01-02T14:08:15.000Z</time>
      </trkpt>
      <trkpt lat="49.4405" lon="2.03075">
        <ele>144.39999389648</ele>
        <time>2020-01-02T14:08:17.000Z</time>
      </trkpt>
      <trkpt lat="49.44053" lon="2.0308">
        <ele>144.19999694824</ele>
        <time>2020-01-02T14:08:18.000Z</time>
      </trkpt>
      <trkpt lat="49.44057" lon="2.03086">
        <ele>144</ele>
        <time>2020-01-02T14:08:19.000Z</time>
      </trkpt>
      <trkpt lat="49.44078" lon="2.03122">
        <ele>143.80000305176</ele>
        <time>2020-01-02T14:08:24.000Z</time>
      </trkpt>
      <trkpt lat="49.44093" lon="2.03147">
        <ele>143.39999389648</ele>
        <time>2020-01-02T14:08:27.000Z</time>
      </trkpt>
      <trkpt lat="49.44098" lon="2.03156">
        <ele>143</ele>
        <time>2020-01-02T14:08:28.000Z</time>
      </trkpt>
      <trkpt lat="49.44103" lon="2.03164">
        <ele>142.39999389648</ele>
        <time>2020-01-02T14:08:29.000Z</time>
      </trkpt>
      <trkpt lat="49.44108" lon="2.03172">
        <ele>141.39999389648</ele>
        <time>2020-01-02T14:08:30.000Z</time>
      </trkpt>
      <trkpt lat="49.44113" lon="2.0318">
        <ele>140</ele>
        <time>2020-01-02T14:08:31.000Z</time>
      </trkpt>
      <trkpt lat="49.44129" lon="2.03206">
        <ele>138.39999389648</ele>
        <time>2020-01-02T14:08:34.000Z</time>
      </trkpt>
      <trkpt lat="49.44145" lon="2.03233">
        <ele>137.39999389648</ele>
        <time>2020-01-02T14:08:37.000Z</time>
      </trkpt>
      <trkpt lat="49.44151" lon="2.03242">
        <ele>136.80000305176</ele>
        <time>2020-01-02T14:08:38.000Z</time>
      </trkpt>
      <trkpt lat="49.44161" lon="2.03261">
        <ele>135.80000305176</ele>
        <time>2020-01-02T14:08:40.000Z</time>
      </trkpt>
      <trkpt lat="49.44177" lon="2.03288">
        <ele>134.80000305176</ele>
        <time>2020-01-02T14:08:43.000Z</time>
      </trkpt>
      <trkpt lat="49.44183" lon="2.03297">
        <ele>134.19999694824</ele>
        <time>2020-01-02T14:08:44.000Z</time>
      </trkpt>
      <trkpt lat="49.44188" lon="2.03306">
        <ele>133.80000305176</ele>
        <time>2020-01-02T14:08:45.000Z</time>
      </trkpt>
      <trkpt lat="49.44197" lon="2.03325">
        <ele>132.80000305176</ele>
        <time>2020-01-02T14:08:47.000Z</time>
      </trkpt>
      <trkpt lat="49.44218" lon="2.03359">
        <ele>131.60000610352</ele>
        <time>2020-01-02T14:08:51.000Z</time>
      </trkpt>
      <trkpt lat="49.44237" lon="2.03381">
        <ele>130.39999389648</ele>
        <time>2020-01-02T14:08:54.000Z</time>
      </trkpt>
      <trkpt lat="49.44244" lon="2.03386">
        <ele>130.19999694824</ele>
        <time>2020-01-02T14:08:55.000Z</time>
      </trkpt>
      <trkpt lat="49.44251" lon="2.0339">
        <ele>130</ele>
        <time>2020-01-02T14:08:56.000Z</time>
      </trkpt>
      <trkpt lat="49.44258" lon="2.03394">
        <ele>129.19999694824</ele>
        <time>2020-01-02T14:08:57.000Z</time>
      </trkpt>
      <trkpt lat="49.44273" lon="2.03403">
        <ele>128</ele>
        <time>2020-01-02T14:08:59.000Z</time>
      </trkpt>
      <trkpt lat="49.44293" lon="2.03416">
        <ele>126.80000305176</ele>
        <time>2020-01-02T14:09:02.000Z</time>
      </trkpt>
      <trkpt lat="49.44299" lon="2.0342">
        <ele>126.19999694824</ele>
        <time>2020-01-02T14:09:03.000Z</time>
      </trkpt>
      <trkpt lat="49.44325" lon="2.03438">
        <ele>125.40000152588</ele>
        <time>2020-01-02T14:09:07.000Z</time>
      </trkpt>
      <trkpt lat="49.44351" lon="2.03459">
        <ele>124.40000152588</ele>
        <time>2020-01-02T14:09:11.000Z</time>
      </trkpt>
      <trkpt lat="49.44356" lon="2.03465">
        <ele>124</ele>
        <time>2020-01-02T14:09:12.000Z</time>
      </trkpt>
      <trkpt lat="49.44372" lon="2.03485">
        <ele>123.40000152588</ele>
        <time>2020-01-02T14:09:15.000Z</time>
      </trkpt>
      <trkpt lat="49.44381" lon="2.035">
        <ele>123</ele>
        <time>2020-01-02T14:09:17.000Z</time>
      </trkpt>
      <trkpt lat="49.44404" lon="2.03529">
        <ele>122.59999847412</ele>
        <time>2020-01-02T14:09:21.000Z</time>
      </trkpt>
      <trkpt lat="49.4442" lon="2.03554">
        <ele>122</ele>
        <time>2020-01-02T14:09:24.000Z</time>
      </trkpt>
      <trkpt lat="49.44435" lon="2.0358">
        <ele>120.80000305176</ele>
        <time>2020-01-02T14:09:27.000Z</time>
      </trkpt>
      <trkpt lat="49.4444" lon="2.03588">
        <ele>120.19999694824</ele>
        <time>2020-01-02T14:09:28.000Z</time>
      </trkpt>
      <trkpt lat="49.44456" lon="2.0361">
        <ele>118.80000305176</ele>
        <time>2020-01-02T14:09:31.000Z</time>
      </trkpt>
      <trkpt lat="49.44465" lon="2.03625">
        <ele>118</ele>
        <time>2020-01-02T14:09:33.000Z</time>
      </trkpt>
      <trkpt lat="49.44471" lon="2.03631">
        <ele>117.59999847412</ele>
        <time>2020-01-02T14:09:34.000Z</time>
      </trkpt>
      <trkpt lat="49.44476" lon="2.03637">
        <ele>117.19999694824</ele>
        <time>2020-01-02T14:09:35.000Z</time>
      </trkpt>
      <trkpt lat="49.44492" lon="2.03656">
        <ele>116.80000305176</ele>
        <time>2020-01-02T14:09:38.000Z</time>
      </trkpt>
      <trkpt lat="49.44509" lon="2.03669">
        <ele>116.40000152588</ele>
        <time>2020-01-02T14:09:41.000Z</time>
      </trkpt>
      <trkpt lat="49.44521" lon="2.03679">
        <ele>116.19999694824</ele>
        <time>2020-01-02T14:09:43.000Z</time>
      </trkpt>
      <trkpt lat="49.44543" lon="2.03705">
        <ele>115.19999694824</ele>
        <time>2020-01-02T14:09:47.000Z</time>
      </trkpt>
      <trkpt lat="49.44548" lon="2.03712">
        <ele>114.80000305176</ele>
        <time>2020-01-02T14:09:48.000Z</time>
      </trkpt>
      <trkpt lat="49.44562" lon="2.03735">
        <ele>114.19999694824</ele>
        <time>2020-01-02T14:09:51.000Z</time>
      </trkpt>
      <trkpt lat="49.44571" lon="2.0375">
        <ele>113.40000152588</ele>
        <time>2020-01-02T14:09:53.000Z</time>
      </trkpt>
      <trkpt lat="49.44584" lon="2.0377">
        <ele>112.80000305176</ele>
        <time>2020-01-02T14:09:56.000Z</time>
      </trkpt>
      <trkpt lat="49.44587" lon="2.03778">
        <ele>112.59999847412</ele>
        <time>2020-01-02T14:09:57.000Z</time>
      </trkpt>
      <trkpt lat="49.4459" lon="2.03784">
        <ele>112.59999847412</ele>
        <time>2020-01-02T14:09:58.000Z</time>
      </trkpt>
      <trkpt lat="49.44601" lon="2.03804">
        <ele>112.40000152588</ele>
        <time>2020-01-02T14:10:01.000Z</time>
      </trkpt>
      <trkpt lat="49.44609" lon="2.03816">
        <ele>112.40000152588</ele>
        <time>2020-01-02T14:10:03.000Z</time>
      </trkpt>
      <trkpt lat="49.44617" lon="2.03824">
        <ele>112.19999694824</ele>
        <time>2020-01-02T14:10:05.000Z</time>
      </trkpt>
      <trkpt lat="49.44622" lon="2.03827">
        <ele>112.19999694824</ele>
        <time>2020-01-02T14:10:07.000Z</time>
      </trkpt>
      <trkpt lat="49.44631" lon="2.03818">
        <ele>112.19999694824</ele>
        <time>2020-01-02T14:10:11.000Z</time>
      </trkpt>
      <trkpt lat="49.44635" lon="2.03814">
        <ele>112.40000152588</ele>
        <time>2020-01-02T14:10:12.000Z</time>
      </trkpt>
      <trkpt lat="49.4465" lon="2.03796">
        <ele>112.40000152588</ele>
        <time>2020-01-02T14:10:16.000Z</time>
      </trkpt>
      <trkpt lat="49.44658" lon="2.03787">
        <ele>112.59999847412</ele>
        <time>2020-01-02T14:10:18.000Z</time>
      </trkpt>
      <trkpt lat="49.44674" lon="2.03766">
        <ele>112.80000305176</ele>
        <time>2020-01-02T14:10:22.000Z</time>
      </trkpt>
      <trkpt lat="49.44682" lon="2.03758">
        <ele>113</ele>
        <time>2020-01-02T14:10:24.000Z</time>
      </trkpt>
      <trkpt lat="49.44692" lon="2.03747">
        <ele>113.40000152588</ele>
        <time>2020-01-02T14:10:27.000Z</time>
      </trkpt>
      <trkpt lat="49.44693" lon="2.03744">
        <ele>113.59999847412</ele>
        <time>2020-01-02T14:10:28.000Z</time>
      </trkpt>
      <trkpt lat="49.44699" lon="2.03736">
        <ele>115</ele>
        <time>2020-01-02T14:10:31.000Z</time>
      </trkpt>
      <trkpt lat="49.44701" lon="2.03733">
        <ele>115.40000152588</ele>
        <time>2020-01-02T14:10:32.000Z</time>
      </trkpt>
      <trkpt lat="49.44702" lon="2.0373">
        <ele>116.19999694824</ele>
        <time>2020-01-02T14:10:34.000Z</time>
      </trkpt>
      <trkpt lat="49.44704" lon="2.03727">
        <ele>117.19999694824</ele>
        <time>2020-01-02T14:10:36.000Z</time>
      </trkpt>
      <trkpt lat="49.44706" lon="2.03725">
        <ele>117.80000305176</ele>
        <time>2020-01-02T14:10:37.000Z</time>
      </trkpt>
      <trkpt lat="49.44709" lon="2.03721">
        <ele>118.59999847412</ele>
        <time>2020-01-02T14:10:39.000Z</time>
      </trkpt>
      <trkpt lat="49.44713" lon="2.03718">
        <ele>119.59999847412</ele>
        <time>2020-01-02T14:10:41.000Z</time>
      </trkpt>
      <trkpt lat="49.44715" lon="2.03716">
        <ele>120</ele>
        <time>2020-01-02T14:10:42.000Z</time>
      </trkpt>
      <trkpt lat="49.44719" lon="2.03713">
        <ele>120.59999847412</ele>
        <time>2020-01-02T14:10:44.000Z</time>
      </trkpt>
      <trkpt lat="49.4472" lon="2.03711">
        <ele>121</ele>
        <time>2020-01-02T14:10:45.000Z</time>
      </trkpt>
      <trkpt lat="49.44721" lon="2.03707">
        <ele>122.19999694824</ele>
        <time>2020-01-02T14:10:47.000Z</time>
      </trkpt>
      <trkpt lat="49.44724" lon="2.03703">
        <ele>123</ele>
        <time>2020-01-02T14:10:49.000Z</time>
      </trkpt>
      <trkpt lat="49.44726" lon="2.037">
        <ele>123.40000152588</ele>
        <time>2020-01-02T14:10:50.000Z</time>
      </trkpt>
      <trkpt lat="49.44732" lon="2.0369">
        <ele>124.40000152588</ele>
        <time>2020-01-02T14:10:53.000Z</time>
      </trkpt>
      <trkpt lat="49.44734" lon="2.03687">
        <ele>124.80000305176</ele>
        <time>2020-01-02T14:10:54.000Z</time>
      </trkpt>
      <trkpt lat="49.44736" lon="2.03686">
        <ele>125</ele>
        <time>2020-01-02T14:10:55.000Z</time>
      </trkpt>
      <trkpt lat="49.4474" lon="2.03684">
        <ele>125.80000305176</ele>
        <time>2020-01-02T14:10:57.000Z</time>
      </trkpt>
      <trkpt lat="49.44741" lon="2.03683">
        <ele>126</ele>
        <time>2020-01-02T14:10:58.000Z</time>
      </trkpt>
      <trkpt lat="49.44768" lon="2.03656">
        <ele>128.19999694824</ele>
        <time>2020-01-02T14:12:45.000Z</time>
      </trkpt>
      <trkpt lat="49.44769" lon="2.03653">
        <ele>128.19999694824</ele>
        <time>2020-01-02T14:12:46.000Z</time>
      </trkpt>
      <trkpt lat="49.44772" lon="2.03642">
        <ele>128.39999389648</ele>
        <time>2020-01-02T14:12:50.000Z</time>
      </trkpt>
      <trkpt lat="49.44774" lon="2.03639">
        <ele>128.39999389648</ele>
        <time>2020-01-02T14:12:51.000Z</time>
      </trkpt>
      <trkpt lat="49.44787" lon="2.03619">
        <ele>128.39999389648</ele>
        <time>2020-01-02T14:12:56.000Z</time>
      </trkpt>
      <trkpt lat="49.44795" lon="2.03607">
        <ele>128.60000610352</ele>
        <time>2020-01-02T14:12:59.000Z</time>
      </trkpt>
      <trkpt lat="49.44799" lon="2.03604">
        <ele>128.60000610352</ele>
        <time>2020-01-02T14:13:00.000Z</time>
      </trkpt>
      <trkpt lat="49.44814" lon="2.03579">
        <ele>128.60000610352</ele>
        <time>2020-01-02T14:13:06.000Z</time>
      </trkpt>
      <trkpt lat="49.44819" lon="2.03572">
        <ele>128.60000610352</ele>
        <time>2020-01-02T14:13:08.000Z</time>
      </trkpt>
      <trkpt lat="49.44827" lon="2.03565">
        <ele>128.39999389648</ele>
        <time>2020-01-02T14:13:10.000Z</time>
      </trkpt>
      <trkpt lat="49.44838" lon="2.0355">
        <ele>128</ele>
        <time>2020-01-02T14:13:13.000Z</time>
      </trkpt>
      <trkpt lat="49.44842" lon="2.03545">
        <ele>127.80000305176</ele>
        <time>2020-01-02T14:13:14.000Z</time>
      </trkpt>
      <trkpt lat="49.44846" lon="2.03539">
        <ele>127.80000305176</ele>
        <time>2020-01-02T14:13:15.000Z</time>
      </trkpt>
      <trkpt lat="49.44853" lon="2.03527">
        <ele>127.59999847412</ele>
        <time>2020-01-02T14:13:18.000Z</time>
      </trkpt>
      <trkpt lat="49.44861" lon="2.03516">
        <ele>126.59999847412</ele>
        <time>2020-01-02T14:13:21.000Z</time>
      </trkpt>
      <trkpt lat="49.4487" lon="2.03501">
        <ele>125.59999847412</ele>
        <time>2020-01-02T14:13:24.000Z</time>
      </trkpt>
      <trkpt lat="49.44874" lon="2.03496">
        <ele>125.40000152588</ele>
        <time>2020-01-02T14:13:25.000Z</time>
      </trkpt>
      <trkpt lat="49.44893" lon="2.03469">
        <ele>124.19999694824</ele>
        <time>2020-01-02T14:13:30.000Z</time>
      </trkpt>
      <trkpt lat="49.44907" lon="2.03449">
        <ele>124</ele>
        <time>2020-01-02T14:13:35.000Z</time>
      </trkpt>
      <trkpt lat="49.4492" lon="2.0343">
        <ele>123.80000305176</ele>
        <time>2020-01-02T14:13:40.000Z</time>
      </trkpt>
      <trkpt lat="49.44933" lon="2.03409">
        <ele>124</ele>
        <time>2020-01-02T14:13:45.000Z</time>
      </trkpt>
      <trkpt lat="49.4495" lon="2.03392">
        <ele>124.19999694824</ele>
        <time>2020-01-02T14:13:50.000Z</time>
      </trkpt>
      <trkpt lat="49.44965" lon="2.03374">
        <ele>123.40000152588</ele>
        <time>2020-01-02T14:13:55.000Z</time>
      </trkpt>
      <trkpt lat="49.44969" lon="2.03365">
        <ele>122.80000305176</ele>
        <time>2020-01-02T14:13:57.000Z</time>
      </trkpt>
      <trkpt lat="49.44978" lon="2.03351">
        <ele>121.40000152588</ele>
        <time>2020-01-02T14:14:00.000Z</time>
      </trkpt>
      <trkpt lat="49.44987" lon="2.03341">
        <ele>120</ele>
        <time>2020-01-02T14:14:03.000Z</time>
      </trkpt>
      <trkpt lat="49.44993" lon="2.03333">
        <ele>119</ele>
        <time>2020-01-02T14:14:05.000Z</time>
      </trkpt>
      <trkpt lat="49.45" lon="2.03324">
        <ele>117.80000305176</ele>
        <time>2020-01-02T14:14:07.000Z</time>
      </trkpt>
      <trkpt lat="49.45007" lon="2.03317">
        <ele>116.40000152588</ele>
        <time>2020-01-02T14:14:09.000Z</time>
      </trkpt>
      <trkpt lat="49.45011" lon="2.03314">
        <ele>115.80000305176</ele>
        <time>2020-01-02T14:14:10.000Z</time>
      </trkpt>
      <trkpt lat="49.45014" lon="2.03313">
        <ele>115</ele>
        <time>2020-01-02T14:14:11.000Z</time>
      </trkpt>
      <trkpt lat="49.45018" lon="2.03319">
        <ele>114.40000152588</ele>
        <time>2020-01-02T14:14:13.000Z</time>
      </trkpt>
      <trkpt lat="49.45018" lon="2.03324">
        <ele>113.80000305176</ele>
        <time>2020-01-02T14:14:14.000Z</time>
      </trkpt>
      <trkpt lat="49.45022" lon="2.03336">
        <ele>113</ele>
        <time>2020-01-02T14:14:16.000Z</time>
      </trkpt>
      <trkpt lat="49.45029" lon="2.03358">
        <ele>111.80000305176</ele>
        <time>2020-01-02T14:14:19.000Z</time>
      </trkpt>
      <trkpt lat="49.45038" lon="2.03388">
        <ele>110.59999847412</ele>
        <time>2020-01-02T14:14:23.000Z</time>
      </trkpt>
      <trkpt lat="49.45041" lon="2.03396">
        <ele>110.19999694824</ele>
        <time>2020-01-02T14:14:24.000Z</time>
      </trkpt>
      <trkpt lat="49.45053" lon="2.0344">
        <ele>109.59999847412</ele>
        <time>2020-01-02T14:14:30.000Z</time>
      </trkpt>
      <trkpt lat="49.45062" lon="2.03474">
        <ele>109.19999694824</ele>
        <time>2020-01-02T14:14:35.000Z</time>
      </trkpt>
      <trkpt lat="49.45069" lon="2.03498">
        <ele>109</ele>
        <time>2020-01-02T14:14:38.000Z</time>
      </trkpt>
      <trkpt lat="49.45077" lon="2.03522">
        <ele>109</ele>
        <time>2020-01-02T14:14:41.000Z</time>
      </trkpt>
      <trkpt lat="49.45087" lon="2.03545">
        <ele>108.19999694824</ele>
        <time>2020-01-02T14:14:44.000Z</time>
      </trkpt>
      <trkpt lat="49.45094" lon="2.0356">
        <ele>107.80000305176</ele>
        <time>2020-01-02T14:14:46.000Z</time>
      </trkpt>
      <trkpt lat="49.45104" lon="2.03583">
        <ele>106.80000305176</ele>
        <time>2020-01-02T14:14:49.000Z</time>
      </trkpt>
      <trkpt lat="49.45114" lon="2.03604">
        <ele>106.19999694824</ele>
        <time>2020-01-02T14:14:52.000Z</time>
      </trkpt>
      <trkpt lat="49.45126" lon="2.03625">
        <ele>105.80000305176</ele>
        <time>2020-01-02T14:14:55.000Z</time>
      </trkpt>
      <trkpt lat="49.45146" lon="2.03657">
        <ele>104.80000305176</ele>
        <time>2020-01-02T14:15:00.000Z</time>
      </trkpt>
      <trkpt lat="49.4515" lon="2.03664">
        <ele>104.59999847412</ele>
        <time>2020-01-02T14:15:01.000Z</time>
      </trkpt>
      <trkpt lat="49.45174" lon="2.03697">
        <ele>103.19999694824</ele>
        <time>2020-01-02T14:15:07.000Z</time>
      </trkpt>
      <trkpt lat="49.45201" lon="2.03724">
        <ele>102.19999694824</ele>
        <time>2020-01-02T14:15:13.000Z</time>
      </trkpt>
      <trkpt lat="49.45206" lon="2.03728">
        <ele>102</ele>
        <time>2020-01-02T14:15:14.000Z</time>
      </trkpt>
      <trkpt lat="49.45226" lon="2.0374">
        <ele>101.59999847412</ele>
        <time>2020-01-02T14:15:18.000Z</time>
      </trkpt>
      <trkpt lat="49.4523" lon="2.03743">
        <ele>101.19999694824</ele>
        <time>2020-01-02T14:15:19.000Z</time>
      </trkpt>
      <trkpt lat="49.45235" lon="2.03745">
        <ele>101</ele>
        <time>2020-01-02T14:15:20.000Z</time>
      </trkpt>
      <trkpt lat="49.45247" lon="2.03746">
        <ele>100.59999847412</ele>
        <time>2020-01-02T14:15:23.000Z</time>
      </trkpt>
      <trkpt lat="49.45253" lon="2.0375">
        <ele>100.59999847412</ele>
        <time>2020-01-02T14:15:27.000Z</time>
      </trkpt>
      <trkpt lat="49.4526" lon="2.03758">
        <ele>101</ele>
        <time>2020-01-02T14:15:33.000Z</time>
      </trkpt>
      <trkpt lat="49.45263" lon="2.03764">
        <ele>102</ele>
        <time>2020-01-02T14:15:37.000Z</time>
      </trkpt>
      <trkpt lat="49.45264" lon="2.03766">
        <ele>102.19999694824</ele>
        <time>2020-01-02T14:15:38.000Z</time>
      </trkpt>
      <trkpt lat="49.45264" lon="2.03768">
        <ele>102.40000152588</ele>
        <time>2020-01-02T14:15:39.000Z</time>
      </trkpt>
      <trkpt lat="49.45267" lon="2.03779">
        <ele>102.59999847412</ele>
        <time>2020-01-02T14:15:42.000Z</time>
      </trkpt>
      <trkpt lat="49.45268" lon="2.03794">
        <ele>103.19999694824</ele>
        <time>2020-01-02T14:15:46.000Z</time>
      </trkpt>
      <trkpt lat="49.45268" lon="2.03797">
        <ele>103.40000152588</ele>
        <time>2020-01-02T14:15:47.000Z</time>
      </trkpt>
      <trkpt lat="49.45267" lon="2.038">
        <ele>103.59999847412</ele>
        <time>2020-01-02T14:15:48.000Z</time>
      </trkpt>
      <trkpt lat="49.45268" lon="2.03815">
        <ele>103.80000305176</ele>
        <time>2020-01-02T14:15:51.000Z</time>
      </trkpt>
      <trkpt lat="49.45267" lon="2.03821">
        <ele>104</ele>
        <time>2020-01-02T14:15:52.000Z</time>
      </trkpt>
      <trkpt lat="49.45269" lon="2.03839">
        <ele>104</ele>
        <time>2020-01-02T14:15:56.000Z</time>
      </trkpt>
      <trkpt lat="49.45278" lon="2.0386">
        <ele>104.19999694824</ele>
        <time>2020-01-02T14:16:00.000Z</time>
      </trkpt>
      <trkpt lat="49.45282" lon="2.03869">
        <ele>104.19999694824</ele>
        <time>2020-01-02T14:16:02.000Z</time>
      </trkpt>
      <trkpt lat="49.45294" lon="2.0389">
        <ele>104.80000305176</ele>
        <time>2020-01-02T14:16:07.000Z</time>
      </trkpt>
      <trkpt lat="49.45298" lon="2.03896">
        <ele>105.19999694824</ele>
        <time>2020-01-02T14:16:09.000Z</time>
      </trkpt>
      <trkpt lat="49.45298" lon="2.03898">
        <ele>105.40000152588</ele>
        <time>2020-01-02T14:16:10.000Z</time>
      </trkpt>
      <trkpt lat="49.45299" lon="2.03901">
        <ele>105.80000305176</ele>
        <time>2020-01-02T14:16:11.000Z</time>
      </trkpt>
      <trkpt lat="49.45299" lon="2.03909">
        <ele>106.59999847412</ele>
        <time>2020-01-02T14:16:13.000Z</time>
      </trkpt>
      <trkpt lat="49.45302" lon="2.03929">
        <ele>107.80000305176</ele>
        <time>2020-01-02T14:16:17.000Z</time>
      </trkpt>
      <trkpt lat="49.45304" lon="2.03937">
        <ele>108</ele>
        <time>2020-01-02T14:16:19.000Z</time>
      </trkpt>
      <trkpt lat="49.45306" lon="2.03944">
        <ele>108.40000152588</ele>
        <time>2020-01-02T14:16:21.000Z</time>
      </trkpt>
      <trkpt lat="49.45307" lon="2.03948">
        <ele>108.80000305176</ele>
        <time>2020-01-02T14:16:22.000Z</time>
      </trkpt>
      <trkpt lat="49.45313" lon="2.0396">
        <ele>109.19999694824</ele>
        <time>2020-01-02T14:16:25.000Z</time>
      </trkpt>
      <trkpt lat="49.45317" lon="2.03967">
        <ele>110</ele>
        <time>2020-01-02T14:16:27.000Z</time>
      </trkpt>
      <trkpt lat="49.4532" lon="2.03981">
        <ele>110.80000305176</ele>
        <time>2020-01-02T14:16:31.000Z</time>
      </trkpt>
      <trkpt lat="49.4532" lon="2.03997">
        <ele>112</ele>
        <time>2020-01-02T14:16:35.000Z</time>
      </trkpt>
      <trkpt lat="49.45318" lon="2.04006">
        <ele>112.59999847412</ele>
        <time>2020-01-02T14:16:37.000Z</time>
      </trkpt>
      <trkpt lat="49.45313" lon="2.04032">
        <ele>112.80000305176</ele>
        <time>2020-01-02T14:16:42.000Z</time>
      </trkpt>
      <trkpt lat="49.45307" lon="2.04049">
        <ele>112.80000305176</ele>
        <time>2020-01-02T14:16:45.000Z</time>
      </trkpt>
      <trkpt lat="49.45305" lon="2.04056">
        <ele>112.80000305176</ele>
        <time>2020-01-02T14:16:46.000Z</time>
      </trkpt>
      <trkpt lat="49.45303" lon="2.04061">
        <ele>112.80000305176</ele>
        <time>2020-01-02T14:16:47.000Z</time>
      </trkpt>
      <trkpt lat="49.45296" lon="2.04091">
        <ele>111.80000305176</ele>
        <time>2020-01-02T14:16:52.000Z</time>
      </trkpt>
      <trkpt lat="49.45294" lon="2.04104">
        <ele>111</ele>
        <time>2020-01-02T14:16:54.000Z</time>
      </trkpt>
      <trkpt lat="49.45293" lon="2.04117">
        <ele>110.40000152588</ele>
        <time>2020-01-02T14:16:56.000Z</time>
      </trkpt>
      <trkpt lat="49.45293" lon="2.04137">
        <ele>109.80000305176</ele>
        <time>2020-01-02T14:16:59.000Z</time>
      </trkpt>
      <trkpt lat="49.4529" lon="2.04156">
        <ele>109</ele>
        <time>2020-01-02T14:17:02.000Z</time>
      </trkpt>
      <trkpt lat="49.45289" lon="2.04162">
        <ele>108.80000305176</ele>
        <time>2020-01-02T14:17:03.000Z</time>
      </trkpt>
      <trkpt lat="49.45282" lon="2.04193">
        <ele>108</ele>
        <time>2020-01-02T14:17:09.000Z</time>
      </trkpt>
      <trkpt lat="49.45275" lon="2.04204">
        <ele>107.80000305176</ele>
        <time>2020-01-02T14:17:12.000Z</time>
      </trkpt>
      <trkpt lat="49.45274" lon="2.0421">
        <ele>107.59999847412</ele>
        <time>2020-01-02T14:17:13.000Z</time>
      </trkpt>
      <trkpt lat="49.45272" lon="2.04216">
        <ele>107.59999847412</ele>
        <time>2020-01-02T14:17:14.000Z</time>
      </trkpt>
      <trkpt lat="49.45268" lon="2.0424">
        <ele>106.59999847412</ele>
        <time>2020-01-02T14:17:18.000Z</time>
      </trkpt>
      <trkpt lat="49.45267" lon="2.0425">
        <ele>105.40000152588</ele>
        <time>2020-01-02T14:17:20.000Z</time>
      </trkpt>
      <trkpt lat="49.45262" lon="2.0427">
        <ele>104.40000152588</ele>
        <time>2020-01-02T14:17:24.000Z</time>
      </trkpt>
      <trkpt lat="49.45259" lon="2.04274">
        <ele>104.19999694824</ele>
        <time>2020-01-02T14:17:25.000Z</time>
      </trkpt>
      <trkpt lat="49.45249" lon="2.04288">
        <ele>104</ele>
        <time>2020-01-02T14:17:28.000Z</time>
      </trkpt>
      <trkpt lat="49.45246" lon="2.04293">
        <ele>104</ele>
        <time>2020-01-02T14:17:29.000Z</time>
      </trkpt>
      <trkpt lat="49.45239" lon="2.04322">
        <ele>103.19999694824</ele>
        <time>2020-01-02T14:17:34.000Z</time>
      </trkpt>
      <trkpt lat="49.45239" lon="2.04327">
        <ele>103.19999694824</ele>
        <time>2020-01-02T14:17:35.000Z</time>
      </trkpt>
      <trkpt lat="49.45239" lon="2.04358">
        <ele>102.19999694824</ele>
        <time>2020-01-02T14:17:40.000Z</time>
      </trkpt>
      <trkpt lat="49.4525" lon="2.04386">
        <ele>101.59999847412</ele>
        <time>2020-01-02T14:17:45.000Z</time>
      </trkpt>
      <trkpt lat="49.45255" lon="2.04396">
        <ele>100.80000305176</ele>
        <time>2020-01-02T14:17:47.000Z</time>
      </trkpt>
      <trkpt lat="49.45267" lon="2.04418">
        <ele>100.19999694824</ele>
        <time>2020-01-02T14:17:52.000Z</time>
      </trkpt>
      <trkpt lat="49.45275" lon="2.04436">
        <ele>100.19999694824</ele>
        <time>2020-01-02T14:17:56.000Z</time>
      </trkpt>
      <trkpt lat="49.45287" lon="2.04458">
        <ele>99.800003051758</ele>
        <time>2020-01-02T14:18:01.000Z</time>
      </trkpt>
      <trkpt lat="49.45298" lon="2.04478">
        <ele>99.199996948242</ele>
        <time>2020-01-02T14:18:05.000Z</time>
      </trkpt>
      <trkpt lat="49.45299" lon="2.04483">
        <ele>99.199996948242</ele>
        <time>2020-01-02T14:18:06.000Z</time>
      </trkpt>
      <trkpt lat="49.45302" lon="2.04494">
        <ele>99</ele>
        <time>2020-01-02T14:18:08.000Z</time>
      </trkpt>
      <trkpt lat="49.45307" lon="2.04503">
        <ele>98.800003051758</ele>
        <time>2020-01-02T14:18:10.000Z</time>
      </trkpt>
      <trkpt lat="49.45316" lon="2.04514">
        <ele>98.199996948242</ele>
        <time>2020-01-02T14:18:13.000Z</time>
      </trkpt>
      <trkpt lat="49.4532" lon="2.04524">
        <ele>98</ele>
        <time>2020-01-02T14:18:15.000Z</time>
      </trkpt>
      <trkpt lat="49.45326" lon="2.04542">
        <ele>97.800003051758</ele>
        <time>2020-01-02T14:18:18.000Z</time>
      </trkpt>
      <trkpt lat="49.45328" lon="2.04547">
        <ele>97.800003051758</ele>
        <time>2020-01-02T14:18:19.000Z</time>
      </trkpt>
      <trkpt lat="49.45337" lon="2.04561">
        <ele>97.599998474121</ele>
        <time>2020-01-02T14:18:22.000Z</time>
      </trkpt>
      <trkpt lat="49.45352" lon="2.04588">
        <ele>97.199996948242</ele>
        <time>2020-01-02T14:18:27.000Z</time>
      </trkpt>
      <trkpt lat="49.45362" lon="2.04609">
        <ele>96.800003051758</ele>
        <time>2020-01-02T14:18:31.000Z</time>
      </trkpt>
      <trkpt lat="49.45363" lon="2.04615">
        <ele>96.599998474121</ele>
        <time>2020-01-02T14:18:32.000Z</time>
      </trkpt>
      <trkpt lat="49.45369" lon="2.04632">
        <ele>96</ele>
        <time>2020-01-02T14:18:35.000Z</time>
      </trkpt>
      <trkpt lat="49.45371" lon="2.04636">
        <ele>96</ele>
        <time>2020-01-02T14:18:36.000Z</time>
      </trkpt>
      <trkpt lat="49.45382" lon="2.04654">
        <ele>95.599998474121</ele>
        <time>2020-01-02T14:18:40.000Z</time>
      </trkpt>
      <trkpt lat="49.45385" lon="2.04659">
        <ele>95.400001525879</ele>
        <time>2020-01-02T14:18:41.000Z</time>
      </trkpt>
      <trkpt lat="49.45401" lon="2.04695">
        <ele>95</ele>
        <time>2020-01-02T14:18:47.000Z</time>
      </trkpt>
      <trkpt lat="49.45415" lon="2.04709">
        <ele>94.800003051758</ele>
        <time>2020-01-02T14:18:51.000Z</time>
      </trkpt>
      <trkpt lat="49.45433" lon="2.04723">
        <ele>94.800003051758</ele>
        <time>2020-01-02T14:18:56.000Z</time>
      </trkpt>
      <trkpt lat="49.45451" lon="2.04734">
        <ele>94.800003051758</ele>
        <time>2020-01-02T14:19:01.000Z</time>
      </trkpt>
      <trkpt lat="49.45453" lon="2.04733">
        <ele>94.800003051758</ele>
        <time>2020-01-02T14:19:02.000Z</time>
      </trkpt>
      <trkpt lat="49.45457" lon="2.04729">
        <ele>94.800003051758</ele>
        <time>2020-01-02T14:19:04.000Z</time>
      </trkpt>
      <trkpt lat="49.45465" lon="2.04708">
        <ele>95</ele>
        <time>2020-01-02T14:19:09.000Z</time>
      </trkpt>
      <trkpt lat="49.4547" lon="2.04693">
        <ele>95</ele>
        <time>2020-01-02T14:19:12.000Z</time>
      </trkpt>
      <trkpt lat="49.45474" lon="2.04683">
        <ele>95.199996948242</ele>
        <time>2020-01-02T14:19:14.000Z</time>
      </trkpt>
      <trkpt lat="49.4549" lon="2.04656">
        <ele>96.199996948242</ele>
        <time>2020-01-02T14:19:20.000Z</time>
      </trkpt>
      <trkpt lat="49.455" lon="2.04635">
        <ele>96.800003051758</ele>
        <time>2020-01-02T14:19:25.000Z</time>
      </trkpt>
      <trkpt lat="49.45503" lon="2.0463">
        <ele>97</ele>
        <time>2020-01-02T14:19:26.000Z</time>
      </trkpt>
      <trkpt lat="49.45508" lon="2.04614">
        <ele>97.800003051758</ele>
        <time>2020-01-02T14:19:29.000Z</time>
      </trkpt>
      <trkpt lat="49.4551" lon="2.04604">
        <ele>98</ele>
        <time>2020-01-02T14:19:31.000Z</time>
      </trkpt>
      <trkpt lat="49.45522" lon="2.04573">
        <ele>99</ele>
        <time>2020-01-02T14:19:38.000Z</time>
      </trkpt>
      <trkpt lat="49.45524" lon="2.04568">
        <ele>99</ele>
        <time>2020-01-02T14:19:39.000Z</time>
      </trkpt>
      <trkpt lat="49.45538" lon="2.04536">
        <ele>100.19999694824</ele>
        <time>2020-01-02T14:19:46.000Z</time>
      </trkpt>
      <trkpt lat="49.4554" lon="2.04531">
        <ele>100.19999694824</ele>
        <time>2020-01-02T14:19:47.000Z</time>
      </trkpt>
      <trkpt lat="49.45549" lon="2.0451">
        <ele>100.80000305176</ele>
        <time>2020-01-02T14:19:52.000Z</time>
      </trkpt>
      <trkpt lat="49.45553" lon="2.04497">
        <ele>101.19999694824</ele>
        <time>2020-01-02T14:19:55.000Z</time>
      </trkpt>
      <trkpt lat="49.45558" lon="2.04482">
        <ele>101.40000152588</ele>
        <time>2020-01-02T14:19:58.000Z</time>
      </trkpt>
      <trkpt lat="49.45571" lon="2.04455">
        <ele>102</ele>
        <time>2020-01-02T14:20:04.000Z</time>
      </trkpt>
      <trkpt lat="49.45574" lon="2.04446">
        <ele>102.19999694824</ele>
        <time>2020-01-02T14:20:06.000Z</time>
      </trkpt>
      <trkpt lat="49.45583" lon="2.04422">
        <ele>102.80000305176</ele>
        <time>2020-01-02T14:20:11.000Z</time>
      </trkpt>
      <trkpt lat="49.45595" lon="2.04393">
        <ele>103.40000152588</ele>
        <time>2020-01-02T14:20:17.000Z</time>
      </trkpt>
      <trkpt lat="49.45606" lon="2.04365">
        <ele>104.40000152588</ele>
        <time>2020-01-02T14:20:23.000Z</time>
      </trkpt>
      <trkpt lat="49.45607" lon="2.04361">
        <ele>104.59999847412</ele>
        <time>2020-01-02T14:20:24.000Z</time>
      </trkpt>
      <trkpt lat="49.45614" lon="2.04341">
        <ele>105.59999847412</ele>
        <time>2020-01-02T14:20:28.000Z</time>
      </trkpt>
      <trkpt lat="49.45623" lon="2.04321">
        <ele>106.19999694824</ele>
        <time>2020-01-02T14:20:32.000Z</time>
      </trkpt>
      <trkpt lat="49.45628" lon="2.04312">
        <ele>106.80000305176</ele>
        <time>2020-01-02T14:20:34.000Z</time>
      </trkpt>
      <trkpt lat="49.45632" lon="2.04302">
        <ele>107</ele>
        <time>2020-01-02T14:20:36.000Z</time>
      </trkpt>
      <trkpt lat="49.45638" lon="2.04283">
        <ele>107.80000305176</ele>
        <time>2020-01-02T14:20:40.000Z</time>
      </trkpt>
      <trkpt lat="49.45642" lon="2.04273">
        <ele>108</ele>
        <time>2020-01-02T14:20:42.000Z</time>
      </trkpt>
      <trkpt lat="49.45648" lon="2.04254">
        <ele>108.59999847412</ele>
        <time>2020-01-02T14:20:46.000Z</time>
      </trkpt>
      <trkpt lat="49.45651" lon="2.04243">
        <ele>109.19999694824</ele>
        <time>2020-01-02T14:20:48.000Z</time>
      </trkpt>
      <trkpt lat="49.45656" lon="2.04224">
        <ele>109.80000305176</ele>
        <time>2020-01-02T14:20:52.000Z</time>
      </trkpt>
      <trkpt lat="49.45657" lon="2.04219">
        <ele>109.80000305176</ele>
        <time>2020-01-02T14:20:53.000Z</time>
      </trkpt>
      <trkpt lat="49.45667" lon="2.04194">
        <ele>110.80000305176</ele>
        <time>2020-01-02T14:20:58.000Z</time>
      </trkpt>
      <trkpt lat="49.45669" lon="2.04189">
        <ele>111</ele>
        <time>2020-01-02T14:20:59.000Z</time>
      </trkpt>
      <trkpt lat="49.45678" lon="2.04165">
        <ele>111.59999847412</ele>
        <time>2020-01-02T14:21:04.000Z</time>
      </trkpt>
      <trkpt lat="49.45681" lon="2.04161">
        <ele>111.80000305176</ele>
        <time>2020-01-02T14:21:05.000Z</time>
      </trkpt>
      <trkpt lat="49.45689" lon="2.04141">
        <ele>112.59999847412</ele>
        <time>2020-01-02T14:21:09.000Z</time>
      </trkpt>
      <trkpt lat="49.45691" lon="2.04135">
        <ele>112.80000305176</ele>
        <time>2020-01-02T14:21:10.000Z</time>
      </trkpt>
      <trkpt lat="49.457" lon="2.0411">
        <ele>113.80000305176</ele>
        <time>2020-01-02T14:21:15.000Z</time>
      </trkpt>
      <trkpt lat="49.45702" lon="2.04106">
        <ele>114</ele>
        <time>2020-01-02T14:21:16.000Z</time>
      </trkpt>
      <trkpt lat="49.45711" lon="2.04084">
        <ele>114.40000152588</ele>
        <time>2020-01-02T14:21:20.000Z</time>
      </trkpt>
      <trkpt lat="49.45718" lon="2.04065">
        <ele>115.19999694824</ele>
        <time>2020-01-02T14:21:24.000Z</time>
      </trkpt>
      <trkpt lat="49.45719" lon="2.04059">
        <ele>115.40000152588</ele>
        <time>2020-01-02T14:21:25.000Z</time>
      </trkpt>
      <trkpt lat="49.45726" lon="2.04041">
        <ele>115.80000305176</ele>
        <time>2020-01-02T14:21:29.000Z</time>
      </trkpt>
      <trkpt lat="49.45731" lon="2.04032">
        <ele>116.19999694824</ele>
        <time>2020-01-02T14:21:31.000Z</time>
      </trkpt>
      <trkpt lat="49.45734" lon="2.04022">
        <ele>116.59999847412</ele>
        <time>2020-01-02T14:21:33.000Z</time>
      </trkpt>
      <trkpt lat="49.45744" lon="2.03995">
        <ele>117.59999847412</ele>
        <time>2020-01-02T14:21:38.000Z</time>
      </trkpt>
      <trkpt lat="49.45745" lon="2.0399">
        <ele>117.80000305176</ele>
        <time>2020-01-02T14:21:39.000Z</time>
      </trkpt>
      <trkpt lat="49.45752" lon="2.03965">
        <ele>118.19999694824</ele>
        <time>2020-01-02T14:21:44.000Z</time>
      </trkpt>
      <trkpt lat="49.45754" lon="2.0396">
        <ele>118.40000152588</ele>
        <time>2020-01-02T14:21:45.000Z</time>
      </trkpt>
      <trkpt lat="49.45761" lon="2.03937">
        <ele>119.19999694824</ele>
        <time>2020-01-02T14:21:50.000Z</time>
      </trkpt>
      <trkpt lat="49.45764" lon="2.03928">
        <ele>119.40000152588</ele>
        <time>2020-01-02T14:21:52.000Z</time>
      </trkpt>
      <trkpt lat="49.45771" lon="2.03913">
        <ele>119.59999847412</ele>
        <time>2020-01-02T14:21:56.000Z</time>
      </trkpt>
      <trkpt lat="49.45778" lon="2.03884">
        <ele>120.40000152588</ele>
        <time>2020-01-02T14:22:02.000Z</time>
      </trkpt>
      <trkpt lat="49.4578" lon="2.03879">
        <ele>120.59999847412</ele>
        <time>2020-01-02T14:22:03.000Z</time>
      </trkpt>
      <trkpt lat="49.45791" lon="2.03854">
        <ele>121.59999847412</ele>
        <time>2020-01-02T14:22:09.000Z</time>
      </trkpt>
      <trkpt lat="49.45801" lon="2.0382">
        <ele>122.19999694824</ele>
        <time>2020-01-02T14:22:16.000Z</time>
      </trkpt>
      <trkpt lat="49.45807" lon="2.03796">
        <ele>122.59999847412</ele>
        <time>2020-01-02T14:22:21.000Z</time>
      </trkpt>
      <trkpt lat="49.45808" lon="2.03792">
        <ele>122.59999847412</ele>
        <time>2020-01-02T14:22:22.000Z</time>
      </trkpt>
      <trkpt lat="49.45812" lon="2.03775">
        <ele>123.19999694824</ele>
        <time>2020-01-02T14:22:28.000Z</time>
      </trkpt>
      <trkpt lat="49.45815" lon="2.03768">
        <ele>123.80000305176</ele>
        <time>2020-01-02T14:22:31.000Z</time>
      </trkpt>
      <trkpt lat="49.45818" lon="2.03763">
        <ele>124</ele>
        <time>2020-01-02T14:22:33.000Z</time>
      </trkpt>
      <trkpt lat="49.45827" lon="2.03736">
        <ele>124.19999694824</ele>
        <time>2020-01-02T14:22:39.000Z</time>
      </trkpt>
      <trkpt lat="49.45831" lon="2.03712">
        <ele>124.19999694824</ele>
        <time>2020-01-02T14:22:44.000Z</time>
      </trkpt>
      <trkpt lat="49.45839" lon="2.03685">
        <ele>124.40000152588</ele>
        <time>2020-01-02T14:22:50.000Z</time>
      </trkpt>
      <trkpt lat="49.45847" lon="2.03661">
        <ele>124.40000152588</ele>
        <time>2020-01-02T14:22:55.000Z</time>
      </trkpt>
      <trkpt lat="49.45851" lon="2.03643">
        <ele>124.59999847412</ele>
        <time>2020-01-02T14:22:58.000Z</time>
      </trkpt>
      <trkpt lat="49.45856" lon="2.03631">
        <ele>124.80000305176</ele>
        <time>2020-01-02T14:23:00.000Z</time>
      </trkpt>
      <trkpt lat="49.45869" lon="2.03595">
        <ele>124.80000305176</ele>
        <time>2020-01-02T14:23:06.000Z</time>
      </trkpt>
      <trkpt lat="49.45872" lon="2.0359">
        <ele>124.80000305176</ele>
        <time>2020-01-02T14:23:07.000Z</time>
      </trkpt>
      <trkpt lat="49.4588" lon="2.03571">
        <ele>124.59999847412</ele>
        <time>2020-01-02T14:23:10.000Z</time>
      </trkpt>
      <trkpt lat="49.45886" lon="2.03557">
        <ele>124.59999847412</ele>
        <time>2020-01-02T14:23:12.000Z</time>
      </trkpt>
      <trkpt lat="49.45894" lon="2.03533">
        <ele>124.40000152588</ele>
        <time>2020-01-02T14:23:16.000Z</time>
      </trkpt>
      <trkpt lat="49.45903" lon="2.03501">
        <ele>124.19999694824</ele>
        <time>2020-01-02T14:23:21.000Z</time>
      </trkpt>
      <trkpt lat="49.45909" lon="2.03488">
        <ele>124</ele>
        <time>2020-01-02T14:23:23.000Z</time>
      </trkpt>
      <trkpt lat="49.45917" lon="2.03474">
        <ele>123.80000305176</ele>
        <time>2020-01-02T14:23:25.000Z</time>
      </trkpt>
      <trkpt lat="49.45921" lon="2.03467">
        <ele>123.80000305176</ele>
        <time>2020-01-02T14:23:26.000Z</time>
      </trkpt>
      <trkpt lat="49.45928" lon="2.03452">
        <ele>123.59999847412</ele>
        <time>2020-01-02T14:23:28.000Z</time>
      </trkpt>
      <trkpt lat="49.45939" lon="2.03423">
        <ele>123.19999694824</ele>
        <time>2020-01-02T14:23:32.000Z</time>
      </trkpt>
      <trkpt lat="49.45941" lon="2.03416">
        <ele>123.19999694824</ele>
        <time>2020-01-02T14:23:33.000Z</time>
      </trkpt>
      <trkpt lat="49.45943" lon="2.03408">
        <ele>123</ele>
        <time>2020-01-02T14:23:34.000Z</time>
      </trkpt>
      <trkpt lat="49.45951" lon="2.03389">
        <ele>122.59999847412</ele>
        <time>2020-01-02T14:23:37.000Z</time>
      </trkpt>
      <trkpt lat="49.45955" lon="2.03378">
        <ele>122.40000152588</ele>
        <time>2020-01-02T14:23:39.000Z</time>
      </trkpt>
      <trkpt lat="49.45957" lon="2.03371">
        <ele>122.40000152588</ele>
        <time>2020-01-02T14:23:40.000Z</time>
      </trkpt>
      <trkpt lat="49.45961" lon="2.03358">
        <ele>122.19999694824</ele>
        <time>2020-01-02T14:23:42.000Z</time>
      </trkpt>
      <trkpt lat="49.45964" lon="2.03352">
        <ele>122.19999694824</ele>
        <time>2020-01-02T14:23:43.000Z</time>
      </trkpt>
      <trkpt lat="49.45969" lon="2.03339">
        <ele>122</ele>
        <time>2020-01-02T14:23:46.000Z</time>
      </trkpt>
      <trkpt lat="49.45972" lon="2.03333">
        <ele>122</ele>
        <time>2020-01-02T14:23:51.000Z</time>
      </trkpt>
      <trkpt lat="49.45973" lon="2.03332">
        <ele>122</ele>
        <time>2020-01-02T14:23:53.000Z</time>
      </trkpt>
      <trkpt lat="49.45979" lon="2.03337">
        <ele>122</ele>
        <time>2020-01-02T14:23:56.000Z</time>
      </trkpt>
      <trkpt lat="49.45985" lon="2.03341">
        <ele>122</ele>
        <time>2020-01-02T14:23:58.000Z</time>
      </trkpt>
      <trkpt lat="49.45996" lon="2.03346">
        <ele>121.80000305176</ele>
        <time>2020-01-02T14:24:01.000Z</time>
      </trkpt>
      <trkpt lat="49.46014" lon="2.03358">
        <ele>121.40000152588</ele>
        <time>2020-01-02T14:24:06.000Z</time>
      </trkpt>
      <trkpt lat="49.46017" lon="2.03361">
        <ele>121</ele>
        <time>2020-01-02T14:24:07.000Z</time>
      </trkpt>
      <trkpt lat="49.46033" lon="2.03369">
        <ele>120.19999694824</ele>
        <time>2020-01-02T14:24:11.000Z</time>
      </trkpt>
      <trkpt lat="49.46037" lon="2.03372">
        <ele>120</ele>
        <time>2020-01-02T14:24:12.000Z</time>
      </trkpt>
      <trkpt lat="49.46041" lon="2.03375">
        <ele>119.80000305176</ele>
        <time>2020-01-02T14:24:13.000Z</time>
      </trkpt>
      <trkpt lat="49.46051" lon="2.03382">
        <ele>119.40000152588</ele>
        <time>2020-01-02T14:24:15.000Z</time>
      </trkpt>
      <trkpt lat="49.46061" lon="2.03389">
        <ele>118.80000305176</ele>
        <time>2020-01-02T14:24:17.000Z</time>
      </trkpt>
      <trkpt lat="49.46069" lon="2.03396">
        <ele>117.80000305176</ele>
        <time>2020-01-02T14:24:19.000Z</time>
      </trkpt>
      <trkpt lat="49.46074" lon="2.03399">
        <ele>117.40000152588</ele>
        <time>2020-01-02T14:24:20.000Z</time>
      </trkpt>
      <trkpt lat="49.46078" lon="2.03401">
        <ele>116.59999847412</ele>
        <time>2020-01-02T14:24:21.000Z</time>
      </trkpt>
      <trkpt lat="49.46086" lon="2.03405">
        <ele>115.59999847412</ele>
        <time>2020-01-02T14:24:23.000Z</time>
      </trkpt>
      <trkpt lat="49.46092" lon="2.03408">
        <ele>114.80000305176</ele>
        <time>2020-01-02T14:24:25.000Z</time>
      </trkpt>
      <trkpt lat="49.46095" lon="2.03408">
        <ele>114</ele>
        <time>2020-01-02T14:24:26.000Z</time>
      </trkpt>
      <trkpt lat="49.46103" lon="2.03408">
        <ele>112.40000152588</ele>
        <time>2020-01-02T14:24:29.000Z</time>
      </trkpt>
      <trkpt lat="49.46106" lon="2.03407">
        <ele>112</ele>
        <time>2020-01-02T14:24:30.000Z</time>
      </trkpt>
      <trkpt lat="49.46111" lon="2.03406">
        <ele>111</ele>
        <time>2020-01-02T14:24:32.000Z</time>
      </trkpt>
      <trkpt lat="49.46117" lon="2.03406">
        <ele>109.59999847412</ele>
        <time>2020-01-02T14:24:34.000Z</time>
      </trkpt>
      <trkpt lat="49.46119" lon="2.03405">
        <ele>109</ele>
        <time>2020-01-02T14:24:35.000Z</time>
      </trkpt>
      <trkpt lat="49.46126" lon="2.03403">
        <ele>108.59999847412</ele>
        <time>2020-01-02T14:24:37.000Z</time>
      </trkpt>
      <trkpt lat="49.46135" lon="2.03403">
        <ele>107.59999847412</ele>
        <time>2020-01-02T14:24:39.000Z</time>
      </trkpt>
      <trkpt lat="49.4614" lon="2.03403">
        <ele>107.19999694824</ele>
        <time>2020-01-02T14:24:40.000Z</time>
      </trkpt>
      <trkpt lat="49.46145" lon="2.03402">
        <ele>106.59999847412</ele>
        <time>2020-01-02T14:24:41.000Z</time>
      </trkpt>
      <trkpt lat="49.46149" lon="2.03402">
        <ele>106</ele>
        <time>2020-01-02T14:24:42.000Z</time>
      </trkpt>
      <trkpt lat="49.46157" lon="2.03401">
        <ele>104.40000152588</ele>
        <time>2020-01-02T14:24:44.000Z</time>
      </trkpt>
      <trkpt lat="49.46165" lon="2.03401">
        <ele>102.19999694824</ele>
        <time>2020-01-02T14:24:46.000Z</time>
      </trkpt>
      <trkpt lat="49.46169" lon="2.03402">
        <ele>101.19999694824</ele>
        <time>2020-01-02T14:24:47.000Z</time>
      </trkpt>
      <trkpt lat="49.46178" lon="2.03402">
        <ele>99.400001525879</ele>
        <time>2020-01-02T14:24:49.000Z</time>
      </trkpt>
      <trkpt lat="49.46181" lon="2.03402">
        <ele>98.800003051758</ele>
        <time>2020-01-02T14:24:50.000Z</time>
      </trkpt>
      <trkpt lat="49.46184" lon="2.03401">
        <ele>98.400001525879</ele>
        <time>2020-01-02T14:24:51.000Z</time>
      </trkpt>
      <trkpt lat="49.46194" lon="2.03396">
        <ele>97.199996948242</ele>
        <time>2020-01-02T14:24:54.000Z</time>
      </trkpt>
      <trkpt lat="49.46197" lon="2.03394">
        <ele>96.800003051758</ele>
        <time>2020-01-02T14:24:55.000Z</time>
      </trkpt>
      <trkpt lat="49.46204" lon="2.03394">
        <ele>95.800003051758</ele>
        <time>2020-01-02T14:24:57.000Z</time>
      </trkpt>
      <trkpt lat="49.46209" lon="2.03392">
        <ele>95</ele>
        <time>2020-01-02T14:24:59.000Z</time>
      </trkpt>
      <trkpt lat="49.46212" lon="2.03391">
        <ele>94.800003051758</ele>
        <time>2020-01-02T14:25:00.000Z</time>
      </trkpt>
      <trkpt lat="49.46219" lon="2.03384">
        <ele>94</ele>
        <time>2020-01-02T14:25:03.000Z</time>
      </trkpt>
      <trkpt lat="49.4622" lon="2.0338">
        <ele>93.800003051758</ele>
        <time>2020-01-02T14:25:04.000Z</time>
      </trkpt>
      <trkpt lat="49.4622" lon="2.03376">
        <ele>93.800003051758</ele>
        <time>2020-01-02T14:25:05.000Z</time>
      </trkpt>
      <trkpt lat="49.46222" lon="2.0336">
        <ele>92.800003051758</ele>
        <time>2020-01-02T14:25:09.000Z</time>
      </trkpt>
      <trkpt lat="49.46223" lon="2.03349">
        <ele>92.800003051758</ele>
        <time>2020-01-02T14:25:12.000Z</time>
      </trkpt>
      <trkpt lat="49.46222" lon="2.03344">
        <ele>92.800003051758</ele>
        <time>2020-01-02T14:25:14.000Z</time>
      </trkpt>
      <trkpt lat="49.46219" lon="2.03327">
        <ele>93.199996948242</ele>
        <time>2020-01-02T14:25:19.000Z</time>
      </trkpt>
      <trkpt lat="49.46218" lon="2.03307">
        <ele>94</ele>
        <time>2020-01-02T14:25:24.000Z</time>
      </trkpt>
      <trkpt lat="49.46219" lon="2.03296">
        <ele>94.199996948242</ele>
        <time>2020-01-02T14:25:27.000Z</time>
      </trkpt>
      <trkpt lat="49.4622" lon="2.03284">
        <ele>94.400001525879</ele>
        <time>2020-01-02T14:25:30.000Z</time>
      </trkpt>
      <trkpt lat="49.46214" lon="2.03256">
        <ele>94.400001525879</ele>
        <time>2020-01-02T14:25:36.000Z</time>
      </trkpt>
      <trkpt lat="49.4621" lon="2.03234">
        <ele>94.800003051758</ele>
        <time>2020-01-02T14:25:41.000Z</time>
      </trkpt>
      <trkpt lat="49.4621" lon="2.0323">
        <ele>94.800003051758</ele>
        <time>2020-01-02T14:25:42.000Z</time>
      </trkpt>
      <trkpt lat="49.46208" lon="2.03215">
        <ele>95.199996948242</ele>
        <time>2020-01-02T14:25:46.000Z</time>
      </trkpt>
      <trkpt lat="49.46207" lon="2.03212">
        <ele>95.199996948242</ele>
        <time>2020-01-02T14:25:47.000Z</time>
      </trkpt>
      <trkpt lat="49.46206" lon="2.03199">
        <ele>95.599998474121</ele>
        <time>2020-01-02T14:25:50.000Z</time>
      </trkpt>
      <trkpt lat="49.46204" lon="2.0319">
        <ele>95.599998474121</ele>
        <time>2020-01-02T14:25:52.000Z</time>
      </trkpt>
      <trkpt lat="49.462" lon="2.03177">
        <ele>95.800003051758</ele>
        <time>2020-01-02T14:25:55.000Z</time>
      </trkpt>
      <trkpt lat="49.46196" lon="2.03145">
        <ele>96.199996948242</ele>
        <time>2020-01-02T14:26:02.000Z</time>
      </trkpt>
      <trkpt lat="49.46193" lon="2.03119">
        <ele>96.199996948242</ele>
        <time>2020-01-02T14:26:07.000Z</time>
      </trkpt>
      <trkpt lat="49.46187" lon="2.03093">
        <ele>96.599998474121</ele>
        <time>2020-01-02T14:26:12.000Z</time>
      </trkpt>
      <trkpt lat="49.46188" lon="2.03088">
        <ele>96.599998474121</ele>
        <time>2020-01-02T14:26:13.000Z</time>
      </trkpt>
      <trkpt lat="49.46189" lon="2.03078">
        <ele>96.599998474121</ele>
        <time>2020-01-02T14:26:15.000Z</time>
      </trkpt>
      <trkpt lat="49.46189" lon="2.03055">
        <ele>96.599998474121</ele>
        <time>2020-01-02T14:26:20.000Z</time>
      </trkpt>
      <trkpt lat="49.46178" lon="2.03019">
        <ele>95.400001525879</ele>
        <time>2020-01-02T14:26:26.000Z</time>
      </trkpt>
      <trkpt lat="49.46178" lon="2.03008">
        <ele>94.599998474121</ele>
        <time>2020-01-02T14:26:28.000Z</time>
      </trkpt>
      <trkpt lat="49.4618" lon="2.02987">
        <ele>93.599998474121</ele>
        <time>2020-01-02T14:26:32.000Z</time>
      </trkpt>
      <trkpt lat="49.4618" lon="2.02981">
        <ele>93.599998474121</ele>
        <time>2020-01-02T14:26:33.000Z</time>
      </trkpt>
      <trkpt lat="49.46176" lon="2.02961">
        <ele>93.599998474121</ele>
        <time>2020-01-02T14:26:37.000Z</time>
      </trkpt>
      <trkpt lat="49.46176" lon="2.02953">
        <ele>93.599998474121</ele>
        <time>2020-01-02T14:26:39.000Z</time>
      </trkpt>
      <trkpt lat="49.46178" lon="2.02946">
        <ele>93.599998474121</ele>
        <time>2020-01-02T14:26:41.000Z</time>
      </trkpt>
      <trkpt lat="49.46179" lon="2.0293">
        <ele>94</ele>
        <time>2020-01-02T14:26:45.000Z</time>
      </trkpt>
      <trkpt lat="49.46182" lon="2.0292">
        <ele>94.599998474121</ele>
        <time>2020-01-02T14:26:48.000Z</time>
      </trkpt>
      <trkpt lat="49.46183" lon="2.02917">
        <ele>94.800003051758</ele>
        <time>2020-01-02T14:26:49.000Z</time>
      </trkpt>
      <trkpt lat="49.46184" lon="2.02907">
        <ele>95.599998474121</ele>
        <time>2020-01-02T14:26:52.000Z</time>
      </trkpt>
      <trkpt lat="49.46185" lon="2.02893">
        <ele>96.599998474121</ele>
        <time>2020-01-02T14:26:56.000Z</time>
      </trkpt>
      <trkpt lat="49.46185" lon="2.0289">
        <ele>97</ele>
        <time>2020-01-02T14:26:57.000Z</time>
      </trkpt>
      <trkpt lat="49.46181" lon="2.02876">
        <ele>98.199996948242</ele>
        <time>2020-01-02T14:27:01.000Z</time>
      </trkpt>
      <trkpt lat="49.4618" lon="2.02872">
        <ele>99</ele>
        <time>2020-01-02T14:27:02.000Z</time>
      </trkpt>
      <trkpt lat="49.4618" lon="2.02869">
        <ele>99.199996948242</ele>
        <time>2020-01-02T14:27:03.000Z</time>
      </trkpt>
      <trkpt lat="49.46179" lon="2.02863">
        <ele>99.599998474121</ele>
        <time>2020-01-02T14:27:05.000Z</time>
      </trkpt>
      <trkpt lat="49.46178" lon="2.02858">
        <ele>100.19999694824</ele>
        <time>2020-01-02T14:27:07.000Z</time>
      </trkpt>
      <trkpt lat="49.46177" lon="2.02855">
        <ele>100.40000152588</ele>
        <time>2020-01-02T14:27:08.000Z</time>
      </trkpt>
      <trkpt lat="49.46177" lon="2.02851">
        <ele>100.80000305176</ele>
        <time>2020-01-02T14:27:09.000Z</time>
      </trkpt>
      <trkpt lat="49.46175" lon="2.02841">
        <ele>101.59999847412</ele>
        <time>2020-01-02T14:27:12.000Z</time>
      </trkpt>
      <trkpt lat="49.46171" lon="2.02827">
        <ele>102.80000305176</ele>
        <time>2020-01-02T14:27:17.000Z</time>
      </trkpt>
      <trkpt lat="49.46164" lon="2.02809">
        <ele>103.59999847412</ele>
        <time>2020-01-02T14:27:22.000Z</time>
      </trkpt>
      <trkpt lat="49.46163" lon="2.02807">
        <ele>103.80000305176</ele>
        <time>2020-01-02T14:27:23.000Z</time>
      </trkpt>
      <trkpt lat="49.46161" lon="2.02792">
        <ele>104.40000152588</ele>
        <time>2020-01-02T14:27:28.000Z</time>
      </trkpt>
      <trkpt lat="49.46161" lon="2.02785">
        <ele>105</ele>
        <time>2020-01-02T14:27:30.000Z</time>
      </trkpt>
      <trkpt lat="49.46159" lon="2.02775">
        <ele>105.40000152588</ele>
        <time>2020-01-02T14:27:33.000Z</time>
      </trkpt>
      <trkpt lat="49.46159" lon="2.02761">
        <ele>105.59999847412</ele>
        <time>2020-01-02T14:27:37.000Z</time>
      </trkpt>
      <trkpt lat="49.46158" lon="2.02758">
        <ele>105.80000305176</ele>
        <time>2020-01-02T14:27:38.000Z</time>
      </trkpt>
      <trkpt lat="49.46156" lon="2.02753">
        <ele>106</ele>
        <time>2020-01-02T14:27:40.000Z</time>
      </trkpt>
      <trkpt lat="49.46147" lon="2.0273">
        <ele>106.59999847412</ele>
        <time>2020-01-02T14:27:46.000Z</time>
      </trkpt>
      <trkpt lat="49.46142" lon="2.0272">
        <ele>107.19999694824</ele>
        <time>2020-01-02T14:27:49.000Z</time>
      </trkpt>
      <trkpt lat="49.46138" lon="2.0271">
        <ele>107.40000152588</ele>
        <time>2020-01-02T14:27:52.000Z</time>
      </trkpt>
      <trkpt lat="49.46131" lon="2.02692">
        <ele>108.19999694824</ele>
        <time>2020-01-02T14:27:57.000Z</time>
      </trkpt>
      <trkpt lat="49.46131" lon="2.02689">
        <ele>108.40000152588</ele>
        <time>2020-01-02T14:27:58.000Z</time>
      </trkpt>
      <trkpt lat="49.46124" lon="2.02668">
        <ele>109.40000152588</ele>
        <time>2020-01-02T14:28:04.000Z</time>
      </trkpt>
      <trkpt lat="49.46116" lon="2.02649">
        <ele>110.19999694824</ele>
        <time>2020-01-02T14:28:09.000Z</time>
      </trkpt>
      <trkpt lat="49.46115" lon="2.02645">
        <ele>110.59999847412</ele>
        <time>2020-01-02T14:28:10.000Z</time>
      </trkpt>
      <trkpt lat="49.46105" lon="2.02624">
        <ele>111.19999694824</ele>
        <time>2020-01-02T14:28:16.000Z</time>
      </trkpt>
      <trkpt lat="49.461" lon="2.02613">
        <ele>111.59999847412</ele>
        <time>2020-01-02T14:28:19.000Z</time>
      </trkpt>
      <trkpt lat="49.46099" lon="2.0261">
        <ele>111.80000305176</ele>
        <time>2020-01-02T14:28:20.000Z</time>
      </trkpt>
      <trkpt lat="49.46098" lon="2.02607">
        <ele>112</ele>
        <time>2020-01-02T14:28:21.000Z</time>
      </trkpt>
      <trkpt lat="49.46093" lon="2.02598">
        <ele>112.59999847412</ele>
        <time>2020-01-02T14:28:24.000Z</time>
      </trkpt>
      <trkpt lat="49.46093" lon="2.02595">
        <ele>112.80000305176</ele>
        <time>2020-01-02T14:28:25.000Z</time>
      </trkpt>
      <trkpt lat="49.46091" lon="2.02592">
        <ele>112.80000305176</ele>
        <time>2020-01-02T14:28:26.000Z</time>
      </trkpt>
      <trkpt lat="49.46086" lon="2.02583">
        <ele>113.19999694824</ele>
        <time>2020-01-02T14:28:29.000Z</time>
      </trkpt>
      <trkpt lat="49.46083" lon="2.02573">
        <ele>113.59999847412</ele>
        <time>2020-01-02T14:28:32.000Z</time>
      </trkpt>
      <trkpt lat="49.46078" lon="2.0256">
        <ele>114</ele>
        <time>2020-01-02T14:28:35.000Z</time>
      </trkpt>
      <trkpt lat="49.46069" lon="2.0253">
        <ele>114.59999847412</ele>
        <time>2020-01-02T14:28:42.000Z</time>
      </trkpt>
      <trkpt lat="49.46068" lon="2.02526">
        <ele>114.80000305176</ele>
        <time>2020-01-02T14:28:43.000Z</time>
      </trkpt>
      <trkpt lat="49.46064" lon="2.02509">
        <ele>115</ele>
        <time>2020-01-02T14:28:47.000Z</time>
      </trkpt>
      <trkpt lat="49.46055" lon="2.02477">
        <ele>115.40000152588</ele>
        <time>2020-01-02T14:28:54.000Z</time>
      </trkpt>
      <trkpt lat="49.46053" lon="2.02468">
        <ele>115.80000305176</ele>
        <time>2020-01-02T14:28:56.000Z</time>
      </trkpt>
      <trkpt lat="49.46047" lon="2.02449">
        <ele>116.19999694824</ele>
        <time>2020-01-02T14:29:00.000Z</time>
      </trkpt>
      <trkpt lat="49.46038" lon="2.02422">
        <ele>116.80000305176</ele>
        <time>2020-01-02T14:29:05.000Z</time>
      </trkpt>
      <trkpt lat="49.4603" lon="2.02399">
        <ele>117.19999694824</ele>
        <time>2020-01-02T14:29:10.000Z</time>
      </trkpt>
      <trkpt lat="49.4602" lon="2.02368">
        <ele>117.80000305176</ele>
        <time>2020-01-02T14:29:16.000Z</time>
      </trkpt>
      <trkpt lat="49.46018" lon="2.02358">
        <ele>117.80000305176</ele>
        <time>2020-01-02T14:29:18.000Z</time>
      </trkpt>
      <trkpt lat="49.46012" lon="2.02342">
        <ele>118</ele>
        <time>2020-01-02T14:29:21.000Z</time>
      </trkpt>
      <trkpt lat="49.46007" lon="2.02327">
        <ele>118.19999694824</ele>
        <time>2020-01-02T14:29:25.000Z</time>
      </trkpt>
      <trkpt lat="49.46005" lon="2.02323">
        <ele>118.19999694824</ele>
        <time>2020-01-02T14:29:26.000Z</time>
      </trkpt>
      <trkpt lat="49.45997" lon="2.02296">
        <ele>118.40000152588</ele>
        <time>2020-01-02T14:29:31.000Z</time>
      </trkpt>
      <trkpt lat="49.45986" lon="2.02277">
        <ele>119</ele>
        <time>2020-01-02T14:29:35.000Z</time>
      </trkpt>
      <trkpt lat="49.45982" lon="2.02269">
        <ele>119</ele>
        <time>2020-01-02T14:29:37.000Z</time>
      </trkpt>
      <trkpt lat="49.45981" lon="2.02266">
        <ele>119</ele>
        <time>2020-01-02T14:29:38.000Z</time>
      </trkpt>
      <trkpt lat="49.45976" lon="2.02254">
        <ele>119.40000152588</ele>
        <time>2020-01-02T14:29:41.000Z</time>
      </trkpt>
      <trkpt lat="49.45965" lon="2.02236">
        <ele>119.80000305176</ele>
        <time>2020-01-02T14:29:46.000Z</time>
      </trkpt>
      <trkpt lat="49.45964" lon="2.02233">
        <ele>120.19999694824</ele>
        <time>2020-01-02T14:29:47.000Z</time>
      </trkpt>
      <trkpt lat="49.45961" lon="2.02224">
        <ele>120.59999847412</ele>
        <time>2020-01-02T14:29:51.000Z</time>
      </trkpt>
      <trkpt lat="49.45953" lon="2.02205">
        <ele>121.40000152588</ele>
        <time>2020-01-02T14:29:58.000Z</time>
      </trkpt>
      <trkpt lat="49.45952" lon="2.02201">
        <ele>121.40000152588</ele>
        <time>2020-01-02T14:29:59.000Z</time>
      </trkpt>
      <trkpt lat="49.45946" lon="2.02181">
        <ele>121.59999847412</ele>
        <time>2020-01-02T14:30:05.000Z</time>
      </trkpt>
      <trkpt lat="49.45944" lon="2.02178">
        <ele>121.59999847412</ele>
        <time>2020-01-02T14:30:06.000Z</time>
      </trkpt>
      <trkpt lat="49.45935" lon="2.02161">
        <ele>121.80000305176</ele>
        <time>2020-01-02T14:30:11.000Z</time>
      </trkpt>
      <trkpt lat="49.45926" lon="2.0214">
        <ele>122.19999694824</ele>
        <time>2020-01-02T14:30:17.000Z</time>
      </trkpt>
      <trkpt lat="49.45921" lon="2.02128">
        <ele>122.40000152588</ele>
        <time>2020-01-02T14:30:20.000Z</time>
      </trkpt>
      <trkpt lat="49.45916" lon="2.02114">
        <ele>122.59999847412</ele>
        <time>2020-01-02T14:30:24.000Z</time>
      </trkpt>
      <trkpt lat="49.4591" lon="2.02093">
        <ele>123</ele>
        <time>2020-01-02T14:30:29.000Z</time>
      </trkpt>
      <trkpt lat="49.45895" lon="2.0207">
        <ele>123.40000152588</ele>
        <time>2020-01-02T14:30:34.000Z</time>
      </trkpt>
      <trkpt lat="49.45889" lon="2.02058">
        <ele>123.59999847412</ele>
        <time>2020-01-02T14:30:37.000Z</time>
      </trkpt>
      <trkpt lat="49.45886" lon="2.0205">
        <ele>123.80000305176</ele>
        <time>2020-01-02T14:30:39.000Z</time>
      </trkpt>
      <trkpt lat="49.45888" lon="2.0203">
        <ele>124</ele>
        <time>2020-01-02T14:30:44.000Z</time>
      </trkpt>
      <trkpt lat="49.45891" lon="2.02007">
        <ele>124.19999694824</ele>
        <time>2020-01-02T14:30:49.000Z</time>
      </trkpt>
      <trkpt lat="49.45898" lon="2.01982">
        <ele>124.40000152588</ele>
        <time>2020-01-02T14:30:54.000Z</time>
      </trkpt>
      <trkpt lat="49.45902" lon="2.01945">
        <ele>124.19999694824</ele>
        <time>2020-01-02T14:31:01.000Z</time>
      </trkpt>
      <trkpt lat="49.45911" lon="2.01918">
        <ele>124</ele>
        <time>2020-01-02T14:31:06.000Z</time>
      </trkpt>
      <trkpt lat="49.45932" lon="2.01873">
        <ele>123.59999847412</ele>
        <time>2020-01-02T14:31:14.000Z</time>
      </trkpt>
      <trkpt lat="49.45941" lon="2.01854">
        <ele>123.40000152588</ele>
        <time>2020-01-02T14:31:17.000Z</time>
      </trkpt>
      <trkpt lat="49.45948" lon="2.01835">
        <ele>123.19999694824</ele>
        <time>2020-01-02T14:31:20.000Z</time>
      </trkpt>
      <trkpt lat="49.45957" lon="2.01815">
        <ele>123</ele>
        <time>2020-01-02T14:31:23.000Z</time>
      </trkpt>
      <trkpt lat="49.45966" lon="2.01793">
        <ele>122.59999847412</ele>
        <time>2020-01-02T14:31:26.000Z</time>
      </trkpt>
      <trkpt lat="49.45969" lon="2.01785">
        <ele>122.40000152588</ele>
        <time>2020-01-02T14:31:27.000Z</time>
      </trkpt>
      <trkpt lat="49.45972" lon="2.01776">
        <ele>122</ele>
        <time>2020-01-02T14:31:28.000Z</time>
      </trkpt>
      <trkpt lat="49.45981" lon="2.0175">
        <ele>121.19999694824</ele>
        <time>2020-01-02T14:31:31.000Z</time>
      </trkpt>
      <trkpt lat="49.45983" lon="2.01742">
        <ele>120.80000305176</ele>
        <time>2020-01-02T14:31:32.000Z</time>
      </trkpt>
      <trkpt lat="49.45993" lon="2.01719">
        <ele>119.59999847412</ele>
        <time>2020-01-02T14:31:35.000Z</time>
      </trkpt>
      <trkpt lat="49.45996" lon="2.01712">
        <ele>119.19999694824</ele>
        <time>2020-01-02T14:31:36.000Z</time>
      </trkpt>
      <trkpt lat="49.46001" lon="2.01698">
        <ele>119</ele>
        <time>2020-01-02T14:31:38.000Z</time>
      </trkpt>
      <trkpt lat="49.46006" lon="2.01678">
        <ele>119</ele>
        <time>2020-01-02T14:31:41.000Z</time>
      </trkpt>
      <trkpt lat="49.46012" lon="2.01652">
        <ele>119</ele>
        <time>2020-01-02T14:31:46.000Z</time>
      </trkpt>
      <trkpt lat="49.46013" lon="2.01645">
        <ele>119</ele>
        <time>2020-01-02T14:31:47.000Z</time>
      </trkpt>
      <trkpt lat="49.46024" lon="2.01613">
        <ele>120</ele>
        <time>2020-01-02T14:31:52.000Z</time>
      </trkpt>
      <trkpt lat="49.46034" lon="2.01579">
        <ele>120.40000152588</ele>
        <time>2020-01-02T14:31:58.000Z</time>
      </trkpt>
      <trkpt lat="49.46039" lon="2.01567">
        <ele>120.40000152588</ele>
        <time>2020-01-02T14:32:00.000Z</time>
      </trkpt>
      <trkpt lat="49.46048" lon="2.0155">
        <ele>120.40000152588</ele>
        <time>2020-01-02T14:32:03.000Z</time>
      </trkpt>
      <trkpt lat="49.4605" lon="2.01543">
        <ele>120.40000152588</ele>
        <time>2020-01-02T14:32:04.000Z</time>
      </trkpt>
      <trkpt lat="49.46055" lon="2.01524">
        <ele>120</ele>
        <time>2020-01-02T14:32:07.000Z</time>
      </trkpt>
      <trkpt lat="49.46057" lon="2.0151">
        <ele>119.40000152588</ele>
        <time>2020-01-02T14:32:09.000Z</time>
      </trkpt>
      <trkpt lat="49.46061" lon="2.01484">
        <ele>118.40000152588</ele>
        <time>2020-01-02T14:32:13.000Z</time>
      </trkpt>
      <trkpt lat="49.46063" lon="2.0148">
        <ele>118</ele>
        <time>2020-01-02T14:32:14.000Z</time>
      </trkpt>
      <trkpt lat="49.46065" lon="2.0147">
        <ele>117</ele>
        <time>2020-01-02T14:32:17.000Z</time>
      </trkpt>
      <trkpt lat="49.46066" lon="2.01467">
        <ele>116.40000152588</ele>
        <time>2020-01-02T14:32:18.000Z</time>
      </trkpt>
      <trkpt lat="49.46066" lon="2.01458">
        <ele>115.80000305176</ele>
        <time>2020-01-02T14:32:20.000Z</time>
      </trkpt>
      <trkpt lat="49.46066" lon="2.01444">
        <ele>115.19999694824</ele>
        <time>2020-01-02T14:32:23.000Z</time>
      </trkpt>
      <trkpt lat="49.46068" lon="2.01437">
        <ele>115.19999694824</ele>
        <time>2020-01-02T14:32:25.000Z</time>
      </trkpt>
      <trkpt lat="49.46072" lon="2.01431">
        <ele>115.19999694824</ele>
        <time>2020-01-02T14:32:27.000Z</time>
      </trkpt>
      <trkpt lat="49.46086" lon="2.0142">
        <ele>115.19999694824</ele>
        <time>2020-01-02T14:32:32.000Z</time>
      </trkpt>
      <trkpt lat="49.46097" lon="2.01414">
        <ele>115.19999694824</ele>
        <time>2020-01-02T14:32:36.000Z</time>
      </trkpt>
      <trkpt lat="49.46105" lon="2.01407">
        <ele>115.19999694824</ele>
        <time>2020-01-02T14:32:41.000Z</time>
      </trkpt>
      <trkpt lat="49.46112" lon="2.01403">
        <ele>114.80000305176</ele>
        <time>2020-01-02T14:32:43.000Z</time>
      </trkpt>
      <trkpt lat="49.46117" lon="2.01401">
        <ele>114.40000152588</ele>
        <time>2020-01-02T14:32:45.000Z</time>
      </trkpt>
      <trkpt lat="49.46132" lon="2.01387">
        <ele>113.59999847412</ele>
        <time>2020-01-02T14:32:50.000Z</time>
      </trkpt>
      <trkpt lat="49.46134" lon="2.01385">
        <ele>113.19999694824</ele>
        <time>2020-01-02T14:32:51.000Z</time>
      </trkpt>
      <trkpt lat="49.46144" lon="2.01378">
        <ele>112.19999694824</ele>
        <time>2020-01-02T14:32:54.000Z</time>
      </trkpt>
      <trkpt lat="49.4615" lon="2.01375">
        <ele>111.40000152588</ele>
        <time>2020-01-02T14:32:56.000Z</time>
      </trkpt>
      <trkpt lat="49.46157" lon="2.01374">
        <ele>111.19999694824</ele>
        <time>2020-01-02T14:32:58.000Z</time>
      </trkpt>
      <trkpt lat="49.46168" lon="2.01372">
        <ele>110</ele>
        <time>2020-01-02T14:33:01.000Z</time>
      </trkpt>
      <trkpt lat="49.46178" lon="2.01369">
        <ele>108.80000305176</ele>
        <time>2020-01-02T14:33:03.000Z</time>
      </trkpt>
      <trkpt lat="49.46193" lon="2.01365">
        <ele>108</ele>
        <time>2020-01-02T14:33:06.000Z</time>
      </trkpt>
      <trkpt lat="49.46204" lon="2.0136">
        <ele>107.80000305176</ele>
        <time>2020-01-02T14:33:10.000Z</time>
      </trkpt>
      <trkpt lat="49.46214" lon="2.01356">
        <ele>107.80000305176</ele>
        <time>2020-01-02T14:33:14.000Z</time>
      </trkpt>
      <trkpt lat="49.46258" lon="2.01327">
        <ele>111.59999847412</ele>
        <time>2020-01-02T14:33:46.000Z</time>
      </trkpt>
      <trkpt lat="49.46258" lon="2.01324">
        <ele>111.80000305176</ele>
        <time>2020-01-02T14:33:47.000Z</time>
      </trkpt>
      <trkpt lat="49.46261" lon="2.01313">
        <ele>111.80000305176</ele>
        <time>2020-01-02T14:33:52.000Z</time>
      </trkpt>
      <trkpt lat="49.46265" lon="2.01305">
        <ele>112</ele>
        <time>2020-01-02T14:33:56.000Z</time>
      </trkpt>
      <trkpt lat="49.46272" lon="2.0129">
        <ele>112.80000305176</ele>
        <time>2020-01-02T14:34:02.000Z</time>
      </trkpt>
      <trkpt lat="49.46274" lon="2.01284">
        <ele>113</ele>
        <time>2020-01-02T14:34:04.000Z</time>
      </trkpt>
      <trkpt lat="49.46278" lon="2.01276">
        <ele>113.19999694824</ele>
        <time>2020-01-02T14:34:07.000Z</time>
      </trkpt>
      <trkpt lat="49.46286" lon="2.01259">
        <ele>114</ele>
        <time>2020-01-02T14:34:12.000Z</time>
      </trkpt>
      <trkpt lat="49.46287" lon="2.01257">
        <ele>114</ele>
        <time>2020-01-02T14:34:13.000Z</time>
      </trkpt>
      <trkpt lat="49.46287" lon="2.01248">
        <ele>114.19999694824</ele>
        <time>2020-01-02T14:34:16.000Z</time>
      </trkpt>
      <trkpt lat="49.46293" lon="2.01231">
        <ele>114.80000305176</ele>
        <time>2020-01-02T14:34:20.000Z</time>
      </trkpt>
      <trkpt lat="49.46297" lon="2.01214">
        <ele>115</ele>
        <time>2020-01-02T14:34:24.000Z</time>
      </trkpt>
      <trkpt lat="49.463" lon="2.01209">
        <ele>115</ele>
        <time>2020-01-02T14:34:26.000Z</time>
      </trkpt>
      <trkpt lat="49.46303" lon="2.012">
        <ele>115</ele>
        <time>2020-01-02T14:34:29.000Z</time>
      </trkpt>
      <trkpt lat="49.46307" lon="2.01178">
        <ele>115</ele>
        <time>2020-01-02T14:34:35.000Z</time>
      </trkpt>
      <trkpt lat="49.46315" lon="2.0116">
        <ele>114.80000305176</ele>
        <time>2020-01-02T14:34:40.000Z</time>
      </trkpt>
      <trkpt lat="49.4632" lon="2.01147">
        <ele>114.19999694824</ele>
        <time>2020-01-02T14:34:44.000Z</time>
      </trkpt>
      <trkpt lat="49.46321" lon="2.01143">
        <ele>114.19999694824</ele>
        <time>2020-01-02T14:34:45.000Z</time>
      </trkpt>
      <trkpt lat="49.46322" lon="2.01139">
        <ele>114.19999694824</ele>
        <time>2020-01-02T14:34:46.000Z</time>
      </trkpt>
      <trkpt lat="49.46323" lon="2.01132">
        <ele>113.80000305176</ele>
        <time>2020-01-02T14:34:48.000Z</time>
      </trkpt>
      <trkpt lat="49.46322" lon="2.01128">
        <ele>113.59999847412</ele>
        <time>2020-01-02T14:34:49.000Z</time>
      </trkpt>
      <trkpt lat="49.46323" lon="2.01117">
        <ele>113.40000152588</ele>
        <time>2020-01-02T14:34:52.000Z</time>
      </trkpt>
      <trkpt lat="49.46323" lon="2.01112">
        <ele>113.40000152588</ele>
        <time>2020-01-02T14:34:53.000Z</time>
      </trkpt>
      <trkpt lat="49.46323" lon="2.01109">
        <ele>113.40000152588</ele>
        <time>2020-01-02T14:34:54.000Z</time>
      </trkpt>
      <trkpt lat="49.46324" lon="2.01089">
        <ele>113</ele>
        <time>2020-01-02T14:35:00.000Z</time>
      </trkpt>
      <trkpt lat="49.46324" lon="2.0108">
        <ele>113</ele>
        <time>2020-01-02T14:35:04.000Z</time>
      </trkpt>
      <trkpt lat="49.46306" lon="2.00996">
        <ele>116.80000305176</ele>
        <time>2020-01-02T14:36:41.000Z</time>
      </trkpt>
      <trkpt lat="49.46305" lon="2.00989">
        <ele>116.80000305176</ele>
        <time>2020-01-02T14:36:43.000Z</time>
      </trkpt>
      <trkpt lat="49.46302" lon="2.00983">
        <ele>117</ele>
        <time>2020-01-02T14:36:45.000Z</time>
      </trkpt>
      <trkpt lat="49.463" lon="2.00981">
        <ele>117</ele>
        <time>2020-01-02T14:36:46.000Z</time>
      </trkpt>
      <trkpt lat="49.46292" lon="2.00965">
        <ele>117.80000305176</ele>
        <time>2020-01-02T14:36:50.000Z</time>
      </trkpt>
      <trkpt lat="49.46289" lon="2.00956">
        <ele>118</ele>
        <time>2020-01-02T14:36:52.000Z</time>
      </trkpt>
      <trkpt lat="49.4628" lon="2.00936">
        <ele>119</ele>
        <time>2020-01-02T14:36:57.000Z</time>
      </trkpt>
      <trkpt lat="49.46273" lon="2.0092">
        <ele>119.80000305176</ele>
        <time>2020-01-02T14:37:01.000Z</time>
      </trkpt>
      <trkpt lat="49.46271" lon="2.00916">
        <ele>120.19999694824</ele>
        <time>2020-01-02T14:37:02.000Z</time>
      </trkpt>
      <trkpt lat="49.46268" lon="2.00906">
        <ele>121.19999694824</ele>
        <time>2020-01-02T14:37:05.000Z</time>
      </trkpt>
      <trkpt lat="49.46266" lon="2.00899">
        <ele>122</ele>
        <time>2020-01-02T14:37:07.000Z</time>
      </trkpt>
      <trkpt lat="49.46264" lon="2.00893">
        <ele>122.19999694824</ele>
        <time>2020-01-02T14:37:09.000Z</time>
      </trkpt>
      <trkpt lat="49.46257" lon="2.00883">
        <ele>123</ele>
        <time>2020-01-02T14:37:12.000Z</time>
      </trkpt>
      <trkpt lat="49.46256" lon="2.00878">
        <ele>123</ele>
        <time>2020-01-02T14:37:13.000Z</time>
      </trkpt>
      <trkpt lat="49.46254" lon="2.00864">
        <ele>124</ele>
        <time>2020-01-02T14:37:17.000Z</time>
      </trkpt>
      <trkpt lat="49.4625" lon="2.00853">
        <ele>124.19999694824</ele>
        <time>2020-01-02T14:37:20.000Z</time>
      </trkpt>
      <trkpt lat="49.46248" lon="2.00846">
        <ele>124.59999847412</ele>
        <time>2020-01-02T14:37:22.000Z</time>
      </trkpt>
      <trkpt lat="49.46245" lon="2.00837">
        <ele>124.80000305176</ele>
        <time>2020-01-02T14:37:24.000Z</time>
      </trkpt>
      <trkpt lat="49.46239" lon="2.00823">
        <ele>125.40000152588</ele>
        <time>2020-01-02T14:37:27.000Z</time>
      </trkpt>
      <trkpt lat="49.46237" lon="2.00819">
        <ele>125.40000152588</ele>
        <time>2020-01-02T14:37:28.000Z</time>
      </trkpt>
      <trkpt lat="49.46225" lon="2.00793">
        <ele>125.80000305176</ele>
        <time>2020-01-02T14:37:34.000Z</time>
      </trkpt>
      <trkpt lat="49.46219" lon="2.00779">
        <ele>125.80000305176</ele>
        <time>2020-01-02T14:37:37.000Z</time>
      </trkpt>
      <trkpt lat="49.46213" lon="2.00769">
        <ele>125.80000305176</ele>
        <time>2020-01-02T14:37:39.000Z</time>
      </trkpt>
      <trkpt lat="49.46205" lon="2.00746">
        <ele>126</ele>
        <time>2020-01-02T14:37:44.000Z</time>
      </trkpt>
      <trkpt lat="49.462" lon="2.00731">
        <ele>126.19999694824</ele>
        <time>2020-01-02T14:37:47.000Z</time>
      </trkpt>
      <trkpt lat="49.46195" lon="2.00722">
        <ele>126.19999694824</ele>
        <time>2020-01-02T14:37:49.000Z</time>
      </trkpt>
      <trkpt lat="49.46182" lon="2.00697">
        <ele>126.80000305176</ele>
        <time>2020-01-02T14:37:54.000Z</time>
      </trkpt>
      <trkpt lat="49.46174" lon="2.00669">
        <ele>126.80000305176</ele>
        <time>2020-01-02T14:38:00.000Z</time>
      </trkpt>
      <trkpt lat="49.46169" lon="2.00648">
        <ele>126.80000305176</ele>
        <time>2020-01-02T14:38:05.000Z</time>
      </trkpt>
      <trkpt lat="49.46163" lon="2.00626">
        <ele>127.19999694824</ele>
        <time>2020-01-02T14:38:10.000Z</time>
      </trkpt>
      <trkpt lat="49.46166" lon="2.00614">
        <ele>127.40000152588</ele>
        <time>2020-01-02T14:38:13.000Z</time>
      </trkpt>
      <trkpt lat="49.46168" lon="2.00607">
        <ele>127.59999847412</ele>
        <time>2020-01-02T14:38:15.000Z</time>
      </trkpt>
      <trkpt lat="49.46173" lon="2.00585">
        <ele>127.59999847412</ele>
        <time>2020-01-02T14:38:20.000Z</time>
      </trkpt>
      <trkpt lat="49.46176" lon="2.00559">
        <ele>127.59999847412</ele>
        <time>2020-01-02T14:38:25.000Z</time>
      </trkpt>
      <trkpt lat="49.46181" lon="2.00539">
        <ele>128</ele>
        <time>2020-01-02T14:38:30.000Z</time>
      </trkpt>
      <trkpt lat="49.46187" lon="2.00511">
        <ele>128.19999694824</ele>
        <time>2020-01-02T14:38:36.000Z</time>
      </trkpt>
      <trkpt lat="49.46191" lon="2.00492">
        <ele>128.19999694824</ele>
        <time>2020-01-02T14:38:40.000Z</time>
      </trkpt>
      <trkpt lat="49.46196" lon="2.00468">
        <ele>128.19999694824</ele>
        <time>2020-01-02T14:38:45.000Z</time>
      </trkpt>
      <trkpt lat="49.46197" lon="2.00459">
        <ele>128.19999694824</ele>
        <time>2020-01-02T14:38:47.000Z</time>
      </trkpt>
      <trkpt lat="49.46199" lon="2.0045">
        <ele>128</ele>
        <time>2020-01-02T14:38:49.000Z</time>
      </trkpt>
      <trkpt lat="49.46202" lon="2.0044">
        <ele>128</ele>
        <time>2020-01-02T14:38:51.000Z</time>
      </trkpt>
      <trkpt lat="49.46205" lon="2.00426">
        <ele>127.59999847412</ele>
        <time>2020-01-02T14:38:54.000Z</time>
      </trkpt>
      <trkpt lat="49.4621" lon="2.00405">
        <ele>127.59999847412</ele>
        <time>2020-01-02T14:38:59.000Z</time>
      </trkpt>
      <trkpt lat="49.46212" lon="2.00399">
        <ele>127.40000152588</ele>
        <time>2020-01-02T14:39:01.000Z</time>
      </trkpt>
      <trkpt lat="49.46213" lon="2.00389">
        <ele>127.19999694824</ele>
        <time>2020-01-02T14:39:04.000Z</time>
      </trkpt>
      <trkpt lat="49.46216" lon="2.00375">
        <ele>126.80000305176</ele>
        <time>2020-01-02T14:39:08.000Z</time>
      </trkpt>
      <trkpt lat="49.46219" lon="2.0037">
        <ele>126.19999694824</ele>
        <time>2020-01-02T14:39:10.000Z</time>
      </trkpt>
      <trkpt lat="49.4622" lon="2.00367">
        <ele>126</ele>
        <time>2020-01-02T14:39:11.000Z</time>
      </trkpt>
      <trkpt lat="49.46226" lon="2.0036">
        <ele>124.80000305176</ele>
        <time>2020-01-02T14:39:15.000Z</time>
      </trkpt>
      <trkpt lat="49.4623" lon="2.00355">
        <ele>123.80000305176</ele>
        <time>2020-01-02T14:39:18.000Z</time>
      </trkpt>
      <trkpt lat="49.46232" lon="2.00353">
        <ele>123.59999847412</ele>
        <time>2020-01-02T14:39:19.000Z</time>
      </trkpt>
      <trkpt lat="49.46235" lon="2.00346">
        <ele>122.59999847412</ele>
        <time>2020-01-02T14:39:23.000Z</time>
      </trkpt>
      <trkpt lat="49.46236" lon="2.00343">
        <ele>121.59999847412</ele>
        <time>2020-01-02T14:39:26.000Z</time>
      </trkpt>
      <trkpt lat="49.46249" lon="2.00336">
        <ele>118.80000305176</ele>
        <time>2020-01-02T14:39:38.000Z</time>
      </trkpt>
      <trkpt lat="49.46252" lon="2.00337">
        <ele>118.40000152588</ele>
        <time>2020-01-02T14:39:39.000Z</time>
      </trkpt>
      <trkpt lat="49.46261" lon="2.00345">
        <ele>117.40000152588</ele>
        <time>2020-01-02T14:39:42.000Z</time>
      </trkpt>
      <trkpt lat="49.4627" lon="2.00352">
        <ele>116.80000305176</ele>
        <time>2020-01-02T14:39:45.000Z</time>
      </trkpt>
      <trkpt lat="49.46273" lon="2.00355">
        <ele>116.40000152588</ele>
        <time>2020-01-02T14:39:46.000Z</time>
      </trkpt>
      <trkpt lat="49.46283" lon="2.00361">
        <ele>115.40000152588</ele>
        <time>2020-01-02T14:39:50.000Z</time>
      </trkpt>
      <trkpt lat="49.46286" lon="2.00364">
        <ele>115.19999694824</ele>
        <time>2020-01-02T14:39:51.000Z</time>
      </trkpt>
      <trkpt lat="49.46299" lon="2.00374">
        <ele>115</ele>
        <time>2020-01-02T14:39:57.000Z</time>
      </trkpt>
      <trkpt lat="49.46315" lon="2.00386">
        <ele>114.80000305176</ele>
        <time>2020-01-02T14:40:05.000Z</time>
      </trkpt>
      <trkpt lat="49.46327" lon="2.00398">
        <ele>114.59999847412</ele>
        <time>2020-01-02T14:40:10.000Z</time>
      </trkpt>
      <trkpt lat="49.4634" lon="2.00413">
        <ele>114.59999847412</ele>
        <time>2020-01-02T14:40:16.000Z</time>
      </trkpt>
      <trkpt lat="49.46343" lon="2.00413">
        <ele>114.40000152588</ele>
        <time>2020-01-02T14:40:17.000Z</time>
      </trkpt>
      <trkpt lat="49.46349" lon="2.00409">
        <ele>114.19999694824</ele>
        <time>2020-01-02T14:40:20.000Z</time>
      </trkpt>
      <trkpt lat="49.46363" lon="2.00397">
        <ele>113</ele>
        <time>2020-01-02T14:40:25.000Z</time>
      </trkpt>
      <trkpt lat="49.46369" lon="2.0039">
        <ele>112.80000305176</ele>
        <time>2020-01-02T14:40:27.000Z</time>
      </trkpt>
      <trkpt lat="49.46374" lon="2.00372">
        <ele>112.59999847412</ele>
        <time>2020-01-02T14:40:31.000Z</time>
      </trkpt>
      <trkpt lat="49.46371" lon="2.00341">
        <ele>112.59999847412</ele>
        <time>2020-01-02T14:40:37.000Z</time>
      </trkpt>
      <trkpt lat="49.46373" lon="2.00295">
        <ele>112.80000305176</ele>
        <time>2020-01-02T14:40:46.000Z</time>
      </trkpt>
      <trkpt lat="49.46377" lon="2.00247">
        <ele>113.19999694824</ele>
        <time>2020-01-02T14:40:55.000Z</time>
      </trkpt>
      <trkpt lat="49.46385" lon="2.00203">
        <ele>113.80000305176</ele>
        <time>2020-01-02T14:41:04.000Z</time>
      </trkpt>
      <trkpt lat="49.46397" lon="2.00158">
        <ele>114</ele>
        <time>2020-01-02T14:41:13.000Z</time>
      </trkpt>
      <trkpt lat="49.46405" lon="2.00134">
        <ele>114.40000152588</ele>
        <time>2020-01-02T14:41:18.000Z</time>
      </trkpt>
      <trkpt lat="49.46411" lon="2.0012">
        <ele>114.59999847412</ele>
        <time>2020-01-02T14:41:21.000Z</time>
      </trkpt>
      <trkpt lat="49.46426" lon="2.0008">
        <ele>114.80000305176</ele>
        <time>2020-01-02T14:41:30.000Z</time>
      </trkpt>
      <trkpt lat="49.46437" lon="2.0004">
        <ele>115.19999694824</ele>
        <time>2020-01-02T14:41:38.000Z</time>
      </trkpt>
      <trkpt lat="49.46457" lon="1.99981">
        <ele>115.40000152588</ele>
        <time>2020-01-02T14:41:50.000Z</time>
      </trkpt>
      <trkpt lat="49.46474" lon="1.99926">
        <ele>115.40000152588</ele>
        <time>2020-01-02T14:42:01.000Z</time>
      </trkpt>
      <trkpt lat="49.46483" lon="1.99892">
        <ele>115.59999847412</ele>
        <time>2020-01-02T14:42:08.000Z</time>
      </trkpt>
      <trkpt lat="49.46487" lon="1.99878">
        <ele>115.80000305176</ele>
        <time>2020-01-02T14:42:11.000Z</time>
      </trkpt>
      <trkpt lat="49.46501" lon="1.99834">
        <ele>116</ele>
        <time>2020-01-02T14:42:20.000Z</time>
      </trkpt>
      <trkpt lat="49.46512" lon="1.99794">
        <ele>116.59999847412</ele>
        <time>2020-01-02T14:42:29.000Z</time>
      </trkpt>
      <trkpt lat="49.46522" lon="1.99755">
        <ele>116.80000305176</ele>
        <time>2020-01-02T14:42:38.000Z</time>
      </trkpt>
      <trkpt lat="49.46523" lon="1.9975">
        <ele>116.80000305176</ele>
        <time>2020-01-02T14:42:39.000Z</time>
      </trkpt>
      <trkpt lat="49.46522" lon="1.99728">
        <ele>116.80000305176</ele>
        <time>2020-01-02T14:42:44.000Z</time>
      </trkpt>
      <trkpt lat="49.46517" lon="1.997">
        <ele>117</ele>
        <time>2020-01-02T14:42:51.000Z</time>
      </trkpt>
      <trkpt lat="49.46518" lon="1.99678">
        <ele>117.19999694824</ele>
        <time>2020-01-02T14:42:57.000Z</time>
      </trkpt>
      <trkpt lat="49.46524" lon="1.99648">
        <ele>117.19999694824</ele>
        <time>2020-01-02T14:43:05.000Z</time>
      </trkpt>
      <trkpt lat="49.46529" lon="1.99617">
        <ele>117.40000152588</ele>
        <time>2020-01-02T14:43:13.000Z</time>
      </trkpt>
      <trkpt lat="49.46532" lon="1.99604">
        <ele>117.40000152588</ele>
        <time>2020-01-02T14:43:18.000Z</time>
      </trkpt>
      <trkpt lat="49.46536" lon="1.99582">
        <ele>117.80000305176</ele>
        <time>2020-01-02T14:43:25.000Z</time>
      </trkpt>
      <trkpt lat="49.46538" lon="1.99562">
        <ele>117.80000305176</ele>
        <time>2020-01-02T14:43:31.000Z</time>
      </trkpt>
      <trkpt lat="49.46543" lon="1.99538">
        <ele>117.80000305176</ele>
        <time>2020-01-02T14:43:38.000Z</time>
      </trkpt>
      <trkpt lat="49.46549" lon="1.99519">
        <ele>117.80000305176</ele>
        <time>2020-01-02T14:43:45.000Z</time>
      </trkpt>
      <trkpt lat="49.46559" lon="1.99493">
        <ele>117.80000305176</ele>
        <time>2020-01-02T14:43:52.000Z</time>
      </trkpt>
      <trkpt lat="49.46569" lon="1.99479">
        <ele>118</ele>
        <time>2020-01-02T14:43:59.000Z</time>
      </trkpt>
      <trkpt lat="49.4657" lon="1.99477">
        <ele>118</ele>
        <time>2020-01-02T14:44:00.000Z</time>
      </trkpt>
      <trkpt lat="49.46581" lon="1.9946">
        <ele>118</ele>
        <time>2020-01-02T14:44:07.000Z</time>
      </trkpt>
      <trkpt lat="49.46583" lon="1.99458">
        <ele>118</ele>
        <time>2020-01-02T14:44:10.000Z</time>
      </trkpt>
      <trkpt lat="49.46585" lon="1.99452">
        <ele>118.19999694824</ele>
        <time>2020-01-02T14:44:23.000Z</time>
      </trkpt>
      <trkpt lat="49.46592" lon="1.99439">
        <ele>118.19999694824</ele>
        <time>2020-01-02T14:44:30.000Z</time>
      </trkpt>
      <trkpt lat="49.46596" lon="1.99432">
        <ele>118.19999694824</ele>
        <time>2020-01-02T14:44:34.000Z</time>
      </trkpt>
      <trkpt lat="49.46596" lon="1.99429">
        <ele>118.19999694824</ele>
        <time>2020-01-02T14:44:36.000Z</time>
      </trkpt>
      <trkpt lat="49.46598" lon="1.99426">
        <ele>118.40000152588</ele>
        <time>2020-01-02T14:44:40.000Z</time>
      </trkpt>
      <trkpt lat="49.46607" lon="1.99409">
        <ele>118.59999847412</ele>
        <time>2020-01-02T14:45:03.000Z</time>
      </trkpt>
      <trkpt lat="49.46616" lon="1.99389">
        <ele>118.59999847412</ele>
        <time>2020-01-02T14:45:10.000Z</time>
      </trkpt>
      <trkpt lat="49.46629" lon="1.99363">
        <ele>118.59999847412</ele>
        <time>2020-01-02T14:45:18.000Z</time>
      </trkpt>
      <trkpt lat="49.46637" lon="1.99352">
        <ele>118.80000305176</ele>
        <time>2020-01-02T14:45:24.000Z</time>
      </trkpt>
      <trkpt lat="49.46648" lon="1.99337">
        <ele>119.19999694824</ele>
        <time>2020-01-02T14:45:32.000Z</time>
      </trkpt>
      <trkpt lat="49.46653" lon="1.9933">
        <ele>119.19999694824</ele>
        <time>2020-01-02T14:45:38.000Z</time>
      </trkpt>
      <trkpt lat="49.46653" lon="1.9933">
        <ele>119.19999694824</ele>
        <time>2020-01-02T14:45:39.000Z</time>
      </trkpt>
      <trkpt lat="49.46655" lon="1.99326">
        <ele>119.40000152588</ele>
        <time>2020-01-02T14:45:56.000Z</time>
      </trkpt>
      <trkpt lat="49.46656" lon="1.99324">
        <ele>119.40000152588</ele>
        <time>2020-01-02T14:45:57.000Z</time>
      </trkpt>
      <trkpt lat="49.46666" lon="1.99299">
        <ele>119.40000152588</ele>
        <time>2020-01-02T14:46:05.000Z</time>
      </trkpt>
      <trkpt lat="49.46671" lon="1.99272">
        <ele>119.40000152588</ele>
        <time>2020-01-02T14:46:12.000Z</time>
      </trkpt>
      <trkpt lat="49.46674" lon="1.99254">
        <ele>119.59999847412</ele>
        <time>2020-01-02T14:46:17.000Z</time>
      </trkpt>
      <trkpt lat="49.46676" lon="1.99239">
        <ele>120</ele>
        <time>2020-01-02T14:46:21.000Z</time>
      </trkpt>
      <trkpt lat="49.46679" lon="1.99217">
        <ele>120.80000305176</ele>
        <time>2020-01-02T14:46:27.000Z</time>
      </trkpt>
      <trkpt lat="49.4668" lon="1.99214">
        <ele>120.80000305176</ele>
        <time>2020-01-02T14:46:28.000Z</time>
      </trkpt>
      <trkpt lat="49.46684" lon="1.99201">
        <ele>121.40000152588</ele>
        <time>2020-01-02T14:46:33.000Z</time>
      </trkpt>
      <trkpt lat="49.46687" lon="1.99187">
        <ele>121.80000305176</ele>
        <time>2020-01-02T14:46:38.000Z</time>
      </trkpt>
      <trkpt lat="49.46688" lon="1.99184">
        <ele>122</ele>
        <time>2020-01-02T14:46:39.000Z</time>
      </trkpt>
      <trkpt lat="49.46695" lon="1.99167">
        <ele>123</ele>
        <time>2020-01-02T14:46:45.000Z</time>
      </trkpt>
      <trkpt lat="49.46702" lon="1.9915">
        <ele>124</ele>
        <time>2020-01-02T14:46:52.000Z</time>
      </trkpt>
      <trkpt lat="49.46705" lon="1.99135">
        <ele>124.80000305176</ele>
        <time>2020-01-02T14:46:57.000Z</time>
      </trkpt>
      <trkpt lat="49.46708" lon="1.9913">
        <ele>125</ele>
        <time>2020-01-02T14:46:59.000Z</time>
      </trkpt>
      <trkpt lat="49.46713" lon="1.99117">
        <ele>125.80000305176</ele>
        <time>2020-01-02T14:47:04.000Z</time>
      </trkpt>
      <trkpt lat="49.46716" lon="1.99113">
        <ele>126.40000152588</ele>
        <time>2020-01-02T14:47:06.000Z</time>
      </trkpt>
      <trkpt lat="49.46728" lon="1.99101">
        <ele>127.40000152588</ele>
        <time>2020-01-02T14:47:12.000Z</time>
      </trkpt>
      <trkpt lat="49.46743" lon="1.9909">
        <ele>128.60000610352</ele>
        <time>2020-01-02T14:47:19.000Z</time>
      </trkpt>
      <trkpt lat="49.46745" lon="1.99088">
        <ele>128.80000305176</ele>
        <time>2020-01-02T14:47:20.000Z</time>
      </trkpt>
      <trkpt lat="49.46761" lon="1.99078">
        <ele>129.39999389648</ele>
        <time>2020-01-02T14:47:27.000Z</time>
      </trkpt>
      <trkpt lat="49.46766" lon="1.99075">
        <ele>129.60000610352</ele>
        <time>2020-01-02T14:47:29.000Z</time>
      </trkpt>
      <trkpt lat="49.46786" lon="1.9906">
        <ele>130</ele>
        <time>2020-01-02T14:47:37.000Z</time>
      </trkpt>
      <trkpt lat="49.46803" lon="1.99039">
        <ele>131</ele>
        <time>2020-01-02T14:47:46.000Z</time>
      </trkpt>
      <trkpt lat="49.46818" lon="1.99023">
        <ele>131.60000610352</ele>
        <time>2020-01-02T14:47:53.000Z</time>
      </trkpt>
      <trkpt lat="49.46834" lon="1.99001">
        <ele>131.80000305176</ele>
        <time>2020-01-02T14:48:01.000Z</time>
      </trkpt>
      <trkpt lat="49.46851" lon="1.98976">
        <ele>132</ele>
        <time>2020-01-02T14:48:10.000Z</time>
      </trkpt>
      <trkpt lat="49.46853" lon="1.98973">
        <ele>132</ele>
        <time>2020-01-02T14:48:11.000Z</time>
      </trkpt>
      <trkpt lat="49.46868" lon="1.9895">
        <ele>132.19999694824</ele>
        <time>2020-01-02T14:48:19.000Z</time>
      </trkpt>
      <trkpt lat="49.46886" lon="1.98921">
        <ele>132.19999694824</ele>
        <time>2020-01-02T14:48:28.000Z</time>
      </trkpt>
      <trkpt lat="49.46902" lon="1.98896">
        <ele>132.60000610352</ele>
        <time>2020-01-02T14:48:36.000Z</time>
      </trkpt>
      <trkpt lat="49.46918" lon="1.98873">
        <ele>133</ele>
        <time>2020-01-02T14:48:44.000Z</time>
      </trkpt>
      <trkpt lat="49.46922" lon="1.98865">
        <ele>133.19999694824</ele>
        <time>2020-01-02T14:48:47.000Z</time>
      </trkpt>
      <trkpt lat="49.4693" lon="1.98854">
        <ele>133.19999694824</ele>
        <time>2020-01-02T14:48:51.000Z</time>
      </trkpt>
      <trkpt lat="49.46951" lon="1.98824">
        <ele>133.60000610352</ele>
        <time>2020-01-02T14:49:01.000Z</time>
      </trkpt>
      <trkpt lat="49.46967" lon="1.98799">
        <ele>133.80000305176</ele>
        <time>2020-01-02T14:49:09.000Z</time>
      </trkpt>
      <trkpt lat="49.46983" lon="1.98774">
        <ele>134.19999694824</ele>
        <time>2020-01-02T14:49:17.000Z</time>
      </trkpt>
      <trkpt lat="49.46987" lon="1.98767">
        <ele>134.39999389648</ele>
        <time>2020-01-02T14:49:19.000Z</time>
      </trkpt>
      <trkpt lat="49.46997" lon="1.98754">
        <ele>134.39999389648</ele>
        <time>2020-01-02T14:49:24.000Z</time>
      </trkpt>
      <trkpt lat="49.47016" lon="1.98733">
        <ele>135</ele>
        <time>2020-01-02T14:49:32.000Z</time>
      </trkpt>
      <trkpt lat="49.47041" lon="1.98706">
        <ele>135.60000610352</ele>
        <time>2020-01-02T14:49:43.000Z</time>
      </trkpt>
      <trkpt lat="49.47043" lon="1.98703">
        <ele>135.60000610352</ele>
        <time>2020-01-02T14:49:44.000Z</time>
      </trkpt>
      <trkpt lat="49.47059" lon="1.98679">
        <ele>136.19999694824</ele>
        <time>2020-01-02T14:49:52.000Z</time>
      </trkpt>
      <trkpt lat="49.47065" lon="1.98669">
        <ele>136.60000610352</ele>
        <time>2020-01-02T14:49:55.000Z</time>
      </trkpt>
      <trkpt lat="49.47073" lon="1.98651">
        <ele>137.19999694824</ele>
        <time>2020-01-02T14:50:00.000Z</time>
      </trkpt>
      <trkpt lat="49.4708" lon="1.98636">
        <ele>137.80000305176</ele>
        <time>2020-01-02T14:50:04.000Z</time>
      </trkpt>
      <trkpt lat="49.47091" lon="1.98608">
        <ele>138.39999389648</ele>
        <time>2020-01-02T14:50:11.000Z</time>
      </trkpt>
      <trkpt lat="49.47097" lon="1.98591">
        <ele>139.19999694824</ele>
        <time>2020-01-02T14:50:15.000Z</time>
      </trkpt>
      <trkpt lat="49.47103" lon="1.98574">
        <ele>139.39999389648</ele>
        <time>2020-01-02T14:50:19.000Z</time>
      </trkpt>
      <trkpt lat="49.47108" lon="1.98557">
        <ele>140.19999694824</ele>
        <time>2020-01-02T14:50:23.000Z</time>
      </trkpt>
      <trkpt lat="49.47114" lon="1.98541">
        <ele>140.60000610352</ele>
        <time>2020-01-02T14:50:27.000Z</time>
      </trkpt>
      <trkpt lat="49.47127" lon="1.98499">
        <ele>141</ele>
        <time>2020-01-02T14:50:37.000Z</time>
      </trkpt>
      <trkpt lat="49.47139" lon="1.98464">
        <ele>141.19999694824</ele>
        <time>2020-01-02T14:50:46.000Z</time>
      </trkpt>
      <trkpt lat="49.47153" lon="1.98451">
        <ele>141.19999694824</ele>
        <time>2020-01-02T14:50:51.000Z</time>
      </trkpt>
      <trkpt lat="49.47178" lon="1.98428">
        <ele>140.60000610352</ele>
        <time>2020-01-02T14:50:59.000Z</time>
      </trkpt>
      <trkpt lat="49.47211" lon="1.98398">
        <ele>140</ele>
        <time>2020-01-02T14:51:09.000Z</time>
      </trkpt>
      <trkpt lat="49.47229" lon="1.98382">
        <ele>139.80000305176</ele>
        <time>2020-01-02T14:51:15.000Z</time>
      </trkpt>
      <trkpt lat="49.47251" lon="1.98363">
        <ele>139.39999389648</ele>
        <time>2020-01-02T14:51:22.000Z</time>
      </trkpt>
      <trkpt lat="49.47254" lon="1.9836">
        <ele>139.39999389648</ele>
        <time>2020-01-02T14:51:23.000Z</time>
      </trkpt>
      <trkpt lat="49.47285" lon="1.98331">
        <ele>139.19999694824</ele>
        <time>2020-01-02T14:51:31.000Z</time>
      </trkpt>
      <trkpt lat="49.4732" lon="1.98302">
        <ele>138.80000305176</ele>
        <time>2020-01-02T14:51:39.000Z</time>
      </trkpt>
      <trkpt lat="49.47337" lon="1.98289">
        <ele>138.60000610352</ele>
        <time>2020-01-02T14:51:43.000Z</time>
      </trkpt>
      <trkpt lat="49.47346" lon="1.98284">
        <ele>138.39999389648</ele>
        <time>2020-01-02T14:51:45.000Z</time>
      </trkpt>
      <trkpt lat="49.47385" lon="1.9826">
        <ele>138</ele>
        <time>2020-01-02T14:51:54.000Z</time>
      </trkpt>
      <trkpt lat="49.47412" lon="1.98238">
        <ele>137.80000305176</ele>
        <time>2020-01-02T14:52:01.000Z</time>
      </trkpt>
      <trkpt lat="49.47431" lon="1.98224">
        <ele>138</ele>
        <time>2020-01-02T14:52:06.000Z</time>
      </trkpt>
      <trkpt lat="49.47439" lon="1.98219">
        <ele>138</ele>
        <time>2020-01-02T14:52:08.000Z</time>
      </trkpt>
      <trkpt lat="49.47479" lon="1.98193">
        <ele>139</ele>
        <time>2020-01-02T14:52:17.000Z</time>
      </trkpt>
      <trkpt lat="49.47499" lon="1.98181">
        <ele>140</ele>
        <time>2020-01-02T14:52:21.000Z</time>
      </trkpt>
      <trkpt lat="49.47522" lon="1.98163">
        <ele>140.80000305176</ele>
        <time>2020-01-02T14:52:26.000Z</time>
      </trkpt>
      <trkpt lat="49.47526" lon="1.98159">
        <ele>141</ele>
        <time>2020-01-02T14:52:27.000Z</time>
      </trkpt>
      <trkpt lat="49.47544" lon="1.98143">
        <ele>141.19999694824</ele>
        <time>2020-01-02T14:52:31.000Z</time>
      </trkpt>
      <trkpt lat="49.47551" lon="1.98132">
        <ele>141.19999694824</ele>
        <time>2020-01-02T14:52:33.000Z</time>
      </trkpt>
      <trkpt lat="49.47578" lon="1.98086">
        <ele>141.80000305176</ele>
        <time>2020-01-02T14:52:41.000Z</time>
      </trkpt>
      <trkpt lat="49.47581" lon="1.98081">
        <ele>141.80000305176</ele>
        <time>2020-01-02T14:52:42.000Z</time>
      </trkpt>
      <trkpt lat="49.47587" lon="1.98063">
        <ele>142</ele>
        <time>2020-01-02T14:52:45.000Z</time>
      </trkpt>
      <trkpt lat="49.47588" lon="1.98048">
        <ele>142</ele>
        <time>2020-01-02T14:52:47.000Z</time>
      </trkpt>
      <trkpt lat="49.47591" lon="1.98025">
        <ele>142.19999694824</ele>
        <time>2020-01-02T14:52:50.000Z</time>
      </trkpt>
      <trkpt lat="49.47601" lon="1.97959">
        <ele>142.60000610352</ele>
        <time>2020-01-02T14:52:59.000Z</time>
      </trkpt>
      <trkpt lat="49.47602" lon="1.9793">
        <ele>143</ele>
        <time>2020-01-02T14:53:03.000Z</time>
      </trkpt>
      <trkpt lat="49.47602" lon="1.97916">
        <ele>143.39999389648</ele>
        <time>2020-01-02T14:53:05.000Z</time>
      </trkpt>
      <trkpt lat="49.47601" lon="1.97909">
        <ele>143.39999389648</ele>
        <time>2020-01-02T14:53:06.000Z</time>
      </trkpt>
      <trkpt lat="49.47598" lon="1.97901">
        <ele>143.60000610352</ele>
        <time>2020-01-02T14:53:07.000Z</time>
      </trkpt>
      <trkpt lat="49.47592" lon="1.97881">
        <ele>144</ele>
        <time>2020-01-02T14:53:10.000Z</time>
      </trkpt>
      <trkpt lat="49.47589" lon="1.97875">
        <ele>144</ele>
        <time>2020-01-02T14:53:11.000Z</time>
      </trkpt>
      <trkpt lat="49.47586" lon="1.97869">
        <ele>144.19999694824</ele>
        <time>2020-01-02T14:53:12.000Z</time>
      </trkpt>
      <trkpt lat="49.47559" lon="1.97824">
        <ele>145.39999389648</ele>
        <time>2020-01-02T14:53:20.000Z</time>
      </trkpt>
      <trkpt lat="49.47533" lon="1.97777">
        <ele>146.19999694824</ele>
        <time>2020-01-02T14:53:28.000Z</time>
      </trkpt>
      <trkpt lat="49.4753" lon="1.97772">
        <ele>146.60000610352</ele>
        <time>2020-01-02T14:53:29.000Z</time>
      </trkpt>
      <trkpt lat="49.47521" lon="1.97756">
        <ele>146.80000305176</ele>
        <time>2020-01-02T14:53:32.000Z</time>
      </trkpt>
      <trkpt lat="49.47508" lon="1.97734">
        <ele>147</ele>
        <time>2020-01-02T14:53:36.000Z</time>
      </trkpt>
      <trkpt lat="49.47488" lon="1.97699">
        <ele>147</ele>
        <time>2020-01-02T14:53:42.000Z</time>
      </trkpt>
      <trkpt lat="49.4748" lon="1.97682">
        <ele>147.19999694824</ele>
        <time>2020-01-02T14:53:45.000Z</time>
      </trkpt>
      <trkpt lat="49.47472" lon="1.97663">
        <ele>147.19999694824</ele>
        <time>2020-01-02T14:53:48.000Z</time>
      </trkpt>
      <trkpt lat="49.47457" lon="1.97626">
        <ele>147.39999389648</ele>
        <time>2020-01-02T14:53:54.000Z</time>
      </trkpt>
      <trkpt lat="49.47444" lon="1.97605">
        <ele>147.60000610352</ele>
        <time>2020-01-02T14:53:58.000Z</time>
      </trkpt>
      <trkpt lat="49.47439" lon="1.97596">
        <ele>147.80000305176</ele>
        <time>2020-01-02T14:54:00.000Z</time>
      </trkpt>
      <trkpt lat="49.47423" lon="1.97571">
        <ele>148.19999694824</ele>
        <time>2020-01-02T14:54:06.000Z</time>
      </trkpt>
      <trkpt lat="49.47414" lon="1.97558">
        <ele>148.80000305176</ele>
        <time>2020-01-02T14:54:09.000Z</time>
      </trkpt>
      <trkpt lat="49.47404" lon="1.97545">
        <ele>149.39999389648</ele>
        <time>2020-01-02T14:54:12.000Z</time>
      </trkpt>
      <trkpt lat="49.47401" lon="1.97541">
        <ele>149.39999389648</ele>
        <time>2020-01-02T14:54:13.000Z</time>
      </trkpt>
      <trkpt lat="49.4738" lon="1.97521">
        <ele>150</ele>
        <time>2020-01-02T14:54:20.000Z</time>
      </trkpt>
      <trkpt lat="49.47374" lon="1.97514">
        <ele>150</ele>
        <time>2020-01-02T14:54:22.000Z</time>
      </trkpt>
      <trkpt lat="49.47357" lon="1.97497">
        <ele>150.39999389648</ele>
        <time>2020-01-02T14:54:27.000Z</time>
      </trkpt>
      <trkpt lat="49.47338" lon="1.97476">
        <ele>150.39999389648</ele>
        <time>2020-01-02T14:54:33.000Z</time>
      </trkpt>
      <trkpt lat="49.47317" lon="1.97451">
        <ele>150.60000610352</ele>
        <time>2020-01-02T14:54:40.000Z</time>
      </trkpt>
      <trkpt lat="49.47289" lon="1.9742">
        <ele>151</ele>
        <time>2020-01-02T14:54:49.000Z</time>
      </trkpt>
      <trkpt lat="49.47282" lon="1.97408">
        <ele>151.19999694824</ele>
        <time>2020-01-02T14:54:52.000Z</time>
      </trkpt>
      <trkpt lat="49.47277" lon="1.97403">
        <ele>151.19999694824</ele>
        <time>2020-01-02T14:54:54.000Z</time>
      </trkpt>
      <trkpt lat="49.47263" lon="1.97388">
        <ele>151.80000305176</ele>
        <time>2020-01-02T14:55:00.000Z</time>
      </trkpt>
      <trkpt lat="49.47261" lon="1.97386">
        <ele>152.19999694824</ele>
        <time>2020-01-02T14:55:01.000Z</time>
      </trkpt>
      <trkpt lat="49.47251" lon="1.97376">
        <ele>153.39999389648</ele>
        <time>2020-01-02T14:55:05.000Z</time>
      </trkpt>
      <trkpt lat="49.47246" lon="1.97371">
        <ele>153.60000610352</ele>
        <time>2020-01-02T14:55:07.000Z</time>
      </trkpt>
      <trkpt lat="49.47233" lon="1.97357">
        <ele>154.39999389648</ele>
        <time>2020-01-02T14:55:12.000Z</time>
      </trkpt>
      <trkpt lat="49.47228" lon="1.9735">
        <ele>154.60000610352</ele>
        <time>2020-01-02T14:55:14.000Z</time>
      </trkpt>
      <trkpt lat="49.47215" lon="1.97329">
        <ele>155.39999389648</ele>
        <time>2020-01-02T14:55:20.000Z</time>
      </trkpt>
      <trkpt lat="49.47213" lon="1.97325">
        <ele>155.60000610352</ele>
        <time>2020-01-02T14:55:21.000Z</time>
      </trkpt>
      <trkpt lat="49.47203" lon="1.97304">
        <ele>156.60000610352</ele>
        <time>2020-01-02T14:55:27.000Z</time>
      </trkpt>
      <trkpt lat="49.47195" lon="1.97291">
        <ele>157.19999694824</ele>
        <time>2020-01-02T14:55:31.000Z</time>
      </trkpt>
      <trkpt lat="49.47177" lon="1.97257">
        <ele>157.60000610352</ele>
        <time>2020-01-02T14:55:41.000Z</time>
      </trkpt>
      <trkpt lat="49.47175" lon="1.97254">
        <ele>157.80000305176</ele>
        <time>2020-01-02T14:55:42.000Z</time>
      </trkpt>
      <trkpt lat="49.47154" lon="1.97223">
        <ele>158.60000610352</ele>
        <time>2020-01-02T14:55:52.000Z</time>
      </trkpt>
      <trkpt lat="49.47135" lon="1.97199">
        <ele>158.60000610352</ele>
        <time>2020-01-02T14:56:00.000Z</time>
      </trkpt>
      <trkpt lat="49.47112" lon="1.97172">
        <ele>159</ele>
        <time>2020-01-02T14:56:09.000Z</time>
      </trkpt>
      <trkpt lat="49.47109" lon="1.97169">
        <ele>159</ele>
        <time>2020-01-02T14:56:10.000Z</time>
      </trkpt>
      <trkpt lat="49.4709" lon="1.97141">
        <ele>159.60000610352</ele>
        <time>2020-01-02T14:56:18.000Z</time>
      </trkpt>
      <trkpt lat="49.47076" lon="1.97118">
        <ele>160.19999694824</ele>
        <time>2020-01-02T14:56:24.000Z</time>
      </trkpt>
      <trkpt lat="49.47066" lon="1.97104">
        <ele>160.19999694824</ele>
        <time>2020-01-02T14:56:28.000Z</time>
      </trkpt>
      <trkpt lat="49.47042" lon="1.97073">
        <ele>161</ele>
        <time>2020-01-02T14:56:37.000Z</time>
      </trkpt>
      <trkpt lat="49.47021" lon="1.9706">
        <ele>161.19999694824</ele>
        <time>2020-01-02T14:56:43.000Z</time>
      </trkpt>
      <trkpt lat="49.47014" lon="1.97057">
        <ele>161.19999694824</ele>
        <time>2020-01-02T14:56:45.000Z</time>
      </trkpt>
      <trkpt lat="49.46988" lon="1.97044">
        <ele>161.19999694824</ele>
        <time>2020-01-02T14:56:52.000Z</time>
      </trkpt>
      <trkpt lat="49.46967" lon="1.97033">
        <ele>160.19999694824</ele>
        <time>2020-01-02T14:56:58.000Z</time>
      </trkpt>
      <trkpt lat="49.46963" lon="1.97031">
        <ele>160</ele>
        <time>2020-01-02T14:56:59.000Z</time>
      </trkpt>
      <trkpt lat="49.46956" lon="1.97024">
        <ele>160</ele>
        <time>2020-01-02T14:57:01.000Z</time>
      </trkpt>
      <trkpt lat="49.46947" lon="1.97011">
        <ele>159</ele>
        <time>2020-01-02T14:57:04.000Z</time>
      </trkpt>
      <trkpt lat="49.46936" lon="1.96993">
        <ele>158</ele>
        <time>2020-01-02T14:57:08.000Z</time>
      </trkpt>
      <trkpt lat="49.4693" lon="1.96985">
        <ele>157</ele>
        <time>2020-01-02T14:57:10.000Z</time>
      </trkpt>
      <trkpt lat="49.46927" lon="1.96982">
        <ele>156.80000305176</ele>
        <time>2020-01-02T14:57:11.000Z</time>
      </trkpt>
      <trkpt lat="49.46909" lon="1.96953">
        <ele>156.19999694824</ele>
        <time>2020-01-02T14:57:18.000Z</time>
      </trkpt>
      <trkpt lat="49.46906" lon="1.96949">
        <ele>156.19999694824</ele>
        <time>2020-01-02T14:57:19.000Z</time>
      </trkpt>
      <trkpt lat="49.46883" lon="1.96911">
        <ele>155.39999389648</ele>
        <time>2020-01-02T14:57:27.000Z</time>
      </trkpt>
      <trkpt lat="49.46878" lon="1.96901">
        <ele>155</ele>
        <time>2020-01-02T14:57:29.000Z</time>
      </trkpt>
      <trkpt lat="49.46859" lon="1.96866">
        <ele>155</ele>
        <time>2020-01-02T14:57:36.000Z</time>
      </trkpt>
      <trkpt lat="49.46829" lon="1.96825">
        <ele>155.19999694824</ele>
        <time>2020-01-02T14:57:45.000Z</time>
      </trkpt>
      <trkpt lat="49.46801" lon="1.96794">
        <ele>155.39999389648</ele>
        <time>2020-01-02T14:57:53.000Z</time>
      </trkpt>
      <trkpt lat="49.46781" lon="1.96771">
        <ele>156.39999389648</ele>
        <time>2020-01-02T14:57:59.000Z</time>
      </trkpt>
      <trkpt lat="49.46771" lon="1.9676">
        <ele>156.60000610352</ele>
        <time>2020-01-02T14:58:02.000Z</time>
      </trkpt>
      <trkpt lat="49.4674" lon="1.96719">
        <ele>157.19999694824</ele>
        <time>2020-01-02T14:58:12.000Z</time>
      </trkpt>
      <trkpt lat="49.46731" lon="1.96708">
        <ele>157.39999389648</ele>
        <time>2020-01-02T14:58:15.000Z</time>
      </trkpt>
      <trkpt lat="49.4671" lon="1.96679">
        <ele>158.39999389648</ele>
        <time>2020-01-02T14:58:22.000Z</time>
      </trkpt>
      <trkpt lat="49.46688" lon="1.96652">
        <ele>159.39999389648</ele>
        <time>2020-01-02T14:58:29.000Z</time>
      </trkpt>
      <trkpt lat="49.46669" lon="1.96631">
        <ele>160.39999389648</ele>
        <time>2020-01-02T14:58:35.000Z</time>
      </trkpt>
      <trkpt lat="49.46653" lon="1.96613">
        <ele>161.39999389648</ele>
        <time>2020-01-02T14:58:40.000Z</time>
      </trkpt>
      <trkpt lat="49.4665" lon="1.96609">
        <ele>161.39999389648</ele>
        <time>2020-01-02T14:58:41.000Z</time>
      </trkpt>
      <trkpt lat="49.46626" lon="1.96579">
        <ele>162</ele>
        <time>2020-01-02T14:58:49.000Z</time>
      </trkpt>
      <trkpt lat="49.46617" lon="1.96566">
        <ele>162.60000610352</ele>
        <time>2020-01-02T14:58:52.000Z</time>
      </trkpt>
      <trkpt lat="49.46604" lon="1.96544">
        <ele>163</ele>
        <time>2020-01-02T14:58:57.000Z</time>
      </trkpt>
      <trkpt lat="49.46596" lon="1.96525">
        <ele>163.60000610352</ele>
        <time>2020-01-02T14:59:01.000Z</time>
      </trkpt>
      <trkpt lat="49.46592" lon="1.96509">
        <ele>164.39999389648</ele>
        <time>2020-01-02T14:59:04.000Z</time>
      </trkpt>
      <trkpt lat="49.46591" lon="1.96495">
        <ele>165</ele>
        <time>2020-01-02T14:59:07.000Z</time>
      </trkpt>
      <trkpt lat="49.46591" lon="1.96481">
        <ele>165.39999389648</ele>
        <time>2020-01-02T14:59:10.000Z</time>
      </trkpt>
      <trkpt lat="49.4659" lon="1.96466">
        <ele>166</ele>
        <time>2020-01-02T14:59:13.000Z</time>
      </trkpt>
      <trkpt lat="49.46586" lon="1.96454">
        <ele>166.60000610352</ele>
        <time>2020-01-02T14:59:16.000Z</time>
      </trkpt>
      <trkpt lat="49.46583" lon="1.96447">
        <ele>167</ele>
        <time>2020-01-02T14:59:18.000Z</time>
      </trkpt>
      <trkpt lat="49.46573" lon="1.96424">
        <ele>168</ele>
        <time>2020-01-02T14:59:24.000Z</time>
      </trkpt>
      <trkpt lat="49.46563" lon="1.96402">
        <ele>169.19999694824</ele>
        <time>2020-01-02T14:59:30.000Z</time>
      </trkpt>
      <trkpt lat="49.46559" lon="1.96395">
        <ele>169.60000610352</ele>
        <time>2020-01-02T14:59:32.000Z</time>
      </trkpt>
      <trkpt lat="49.46551" lon="1.96372">
        <ele>170.39999389648</ele>
        <time>2020-01-02T14:59:38.000Z</time>
      </trkpt>
      <trkpt lat="49.46551" lon="1.96363">
        <ele>170.60000610352</ele>
        <time>2020-01-02T14:59:40.000Z</time>
      </trkpt>
      <trkpt lat="49.46552" lon="1.96359">
        <ele>170.60000610352</ele>
        <time>2020-01-02T14:59:41.000Z</time>
      </trkpt>
      <trkpt lat="49.46556" lon="1.96346">
        <ele>171.19999694824</ele>
        <time>2020-01-02T14:59:44.000Z</time>
      </trkpt>
      <trkpt lat="49.46557" lon="1.96343">
        <ele>171.60000610352</ele>
        <time>2020-01-02T14:59:45.000Z</time>
      </trkpt>
      <trkpt lat="49.46563" lon="1.96323">
        <ele>172.80000305176</ele>
        <time>2020-01-02T14:59:50.000Z</time>
      </trkpt>
      <trkpt lat="49.46566" lon="1.96301">
        <ele>173.80000305176</ele>
        <time>2020-01-02T14:59:55.000Z</time>
      </trkpt>
      <trkpt lat="49.46566" lon="1.96296">
        <ele>173.80000305176</ele>
        <time>2020-01-02T14:59:56.000Z</time>
      </trkpt>
      <trkpt lat="49.46566" lon="1.96277">
        <ele>174.80000305176</ele>
        <time>2020-01-02T15:00:00.000Z</time>
      </trkpt>
      <trkpt lat="49.46565" lon="1.96258">
        <ele>175.39999389648</ele>
        <time>2020-01-02T15:00:04.000Z</time>
      </trkpt>
      <trkpt lat="49.46566" lon="1.96233">
        <ele>175.80000305176</ele>
        <time>2020-01-02T15:00:09.000Z</time>
      </trkpt>
      <trkpt lat="49.46566" lon="1.96218">
        <ele>176.19999694824</ele>
        <time>2020-01-02T15:00:12.000Z</time>
      </trkpt>
      <trkpt lat="49.46568" lon="1.96198">
        <ele>176.80000305176</ele>
        <time>2020-01-02T15:00:16.000Z</time>
      </trkpt>
      <trkpt lat="49.4657" lon="1.96183">
        <ele>177.19999694824</ele>
        <time>2020-01-02T15:00:19.000Z</time>
      </trkpt>
      <trkpt lat="49.46574" lon="1.96154">
        <ele>177.80000305176</ele>
        <time>2020-01-02T15:00:25.000Z</time>
      </trkpt>
      <trkpt lat="49.46579" lon="1.9613">
        <ele>179</ele>
        <time>2020-01-02T15:00:30.000Z</time>
      </trkpt>
      <trkpt lat="49.46588" lon="1.96097">
        <ele>180.19999694824</ele>
        <time>2020-01-02T15:00:37.000Z</time>
      </trkpt>
      <trkpt lat="49.4659" lon="1.96088">
        <ele>180.39999389648</ele>
        <time>2020-01-02T15:00:39.000Z</time>
      </trkpt>
      <trkpt lat="49.46594" lon="1.96054">
        <ele>181.39999389648</ele>
        <time>2020-01-02T15:00:46.000Z</time>
      </trkpt>
      <trkpt lat="49.46595" lon="1.96048">
        <ele>181.60000610352</ele>
        <time>2020-01-02T15:00:47.000Z</time>
      </trkpt>
      <trkpt lat="49.46599" lon="1.96023">
        <ele>182.39999389648</ele>
        <time>2020-01-02T15:00:52.000Z</time>
      </trkpt>
      <trkpt lat="49.46601" lon="1.96005">
        <ele>182.80000305176</ele>
        <time>2020-01-02T15:00:56.000Z</time>
      </trkpt>
      <trkpt lat="49.46599" lon="1.95983">
        <ele>183.39999389648</ele>
        <time>2020-01-02T15:01:02.000Z</time>
      </trkpt>
      <trkpt lat="49.46598" lon="1.9598">
        <ele>183.60000610352</ele>
        <time>2020-01-02T15:01:03.000Z</time>
      </trkpt>
      <trkpt lat="49.46598" lon="1.95967">
        <ele>184.60000610352</ele>
        <time>2020-01-02T15:01:08.000Z</time>
      </trkpt>
      <trkpt lat="49.46596" lon="1.95952">
        <ele>185.19999694824</ele>
        <time>2020-01-02T15:01:13.000Z</time>
      </trkpt>
      <trkpt lat="49.46596" lon="1.95948">
        <ele>185.39999389648</ele>
        <time>2020-01-02T15:01:14.000Z</time>
      </trkpt>
      <trkpt lat="49.46595" lon="1.95941">
        <ele>185.60000610352</ele>
        <time>2020-01-02T15:01:16.000Z</time>
      </trkpt>
      <trkpt lat="49.46592" lon="1.95928">
        <ele>186.39999389648</ele>
        <time>2020-01-02T15:01:20.000Z</time>
      </trkpt>
      <trkpt lat="49.46591" lon="1.95923">
        <ele>186.60000610352</ele>
        <time>2020-01-02T15:01:22.000Z</time>
      </trkpt>
      <trkpt lat="49.46588" lon="1.95908">
        <ele>187.80000305176</ele>
        <time>2020-01-02T15:01:27.000Z</time>
      </trkpt>
      <trkpt lat="49.46587" lon="1.95894">
        <ele>189</ele>
        <time>2020-01-02T15:01:32.000Z</time>
      </trkpt>
      <trkpt lat="49.46586" lon="1.9589">
        <ele>189</ele>
        <time>2020-01-02T15:01:33.000Z</time>
      </trkpt>
      <trkpt lat="49.46584" lon="1.95875">
        <ele>190</ele>
        <time>2020-01-02T15:01:38.000Z</time>
      </trkpt>
      <trkpt lat="49.46582" lon="1.95868">
        <ele>190.60000610352</ele>
        <time>2020-01-02T15:01:40.000Z</time>
      </trkpt>
      <trkpt lat="49.46582" lon="1.95865">
        <ele>191</ele>
        <time>2020-01-02T15:01:41.000Z</time>
      </trkpt>
      <trkpt lat="49.46582" lon="1.9586">
        <ele>191.60000610352</ele>
        <time>2020-01-02T15:01:43.000Z</time>
      </trkpt>
      <trkpt lat="49.4658" lon="1.9585">
        <ele>192</ele>
        <time>2020-01-02T15:01:46.000Z</time>
      </trkpt>
      <trkpt lat="49.46578" lon="1.95841">
        <ele>193.19999694824</ele>
        <time>2020-01-02T15:01:49.000Z</time>
      </trkpt>
      <trkpt lat="49.46578" lon="1.95838">
        <ele>193.39999389648</ele>
        <time>2020-01-02T15:01:50.000Z</time>
      </trkpt>
      <trkpt lat="49.46578" lon="1.95829">
        <ele>194.19999694824</ele>
        <time>2020-01-02T15:01:53.000Z</time>
      </trkpt>
      <trkpt lat="49.46577" lon="1.95825">
        <ele>194.80000305176</ele>
        <time>2020-01-02T15:01:56.000Z</time>
      </trkpt>
      <trkpt lat="49.46584" lon="1.95709">
        <ele>203.80000305176</ele>
        <time>2020-01-02T15:03:45.000Z</time>
      </trkpt>
      <trkpt lat="49.46587" lon="1.95703">
        <ele>203.80000305176</ele>
        <time>2020-01-02T15:03:48.000Z</time>
      </trkpt>
      <trkpt lat="49.46594" lon="1.95684">
        <ele>204.39999389648</ele>
        <time>2020-01-02T15:03:55.000Z</time>
      </trkpt>
      <trkpt lat="49.46602" lon="1.95674">
        <ele>204.80000305176</ele>
        <time>2020-01-02T15:03:59.000Z</time>
      </trkpt>
      <trkpt lat="49.46605" lon="1.9567">
        <ele>205</ele>
        <time>2020-01-02T15:04:01.000Z</time>
      </trkpt>
      <trkpt lat="49.46613" lon="1.95657">
        <ele>205.60000610352</ele>
        <time>2020-01-02T15:04:07.000Z</time>
      </trkpt>
      <trkpt lat="49.46618" lon="1.95654">
        <ele>205.80000305176</ele>
        <time>2020-01-02T15:04:09.000Z</time>
      </trkpt>
      <trkpt lat="49.46625" lon="1.95649">
        <ele>206</ele>
        <time>2020-01-02T15:04:12.000Z</time>
      </trkpt>
      <trkpt lat="49.46637" lon="1.95636">
        <ele>206.39999389648</ele>
        <time>2020-01-02T15:04:18.000Z</time>
      </trkpt>
      <trkpt lat="49.46641" lon="1.95632">
        <ele>206.80000305176</ele>
        <time>2020-01-02T15:04:20.000Z</time>
      </trkpt>
      <trkpt lat="49.46645" lon="1.95624">
        <ele>207.39999389648</ele>
        <time>2020-01-02T15:04:23.000Z</time>
      </trkpt>
      <trkpt lat="49.46651" lon="1.95617">
        <ele>207.80000305176</ele>
        <time>2020-01-02T15:04:27.000Z</time>
      </trkpt>
      <trkpt lat="49.46652" lon="1.95615">
        <ele>208</ele>
        <time>2020-01-02T15:04:28.000Z</time>
      </trkpt>
      <trkpt lat="49.46661" lon="1.95597">
        <ele>209</ele>
        <time>2020-01-02T15:04:36.000Z</time>
      </trkpt>
      <trkpt lat="49.46663" lon="1.9559">
        <ele>209.60000610352</ele>
        <time>2020-01-02T15:04:39.000Z</time>
      </trkpt>
      <trkpt lat="49.46666" lon="1.95581">
        <ele>210</ele>
        <time>2020-01-02T15:04:44.000Z</time>
      </trkpt>
      <trkpt lat="49.46669" lon="1.95568">
        <ele>211.19999694824</ele>
        <time>2020-01-02T15:04:49.000Z</time>
      </trkpt>
      <trkpt lat="49.46673" lon="1.95557">
        <ele>212.39999389648</ele>
        <time>2020-01-02T15:04:54.000Z</time>
      </trkpt>
      <trkpt lat="49.46674" lon="1.95551">
        <ele>213.39999389648</ele>
        <time>2020-01-02T15:04:57.000Z</time>
      </trkpt>
      <trkpt lat="49.46674" lon="1.95549">
        <ele>213.80000305176</ele>
        <time>2020-01-02T15:04:58.000Z</time>
      </trkpt>
      <trkpt lat="49.46676" lon="1.95543">
        <ele>214.39999389648</ele>
        <time>2020-01-02T15:05:01.000Z</time>
      </trkpt>
      <trkpt lat="49.4668" lon="1.95529">
        <ele>215.60000610352</ele>
        <time>2020-01-02T15:05:07.000Z</time>
      </trkpt>
      <trkpt lat="49.4668" lon="1.95527">
        <ele>215.60000610352</ele>
        <time>2020-01-02T15:05:08.000Z</time>
      </trkpt>
      <trkpt lat="49.46685" lon="1.95515">
        <ele>216.60000610352</ele>
        <time>2020-01-02T15:05:14.000Z</time>
      </trkpt>
      <trkpt lat="49.46688" lon="1.95507">
        <ele>217.19999694824</ele>
        <time>2020-01-02T15:05:18.000Z</time>
      </trkpt>
      <trkpt lat="49.46692" lon="1.95495">
        <ele>217.60000610352</ele>
        <time>2020-01-02T15:05:24.000Z</time>
      </trkpt>
      <trkpt lat="49.46693" lon="1.95484">
        <ele>218.19999694824</ele>
        <time>2020-01-02T15:05:29.000Z</time>
      </trkpt>
      <trkpt lat="49.46696" lon="1.95474">
        <ele>218.80000305176</ele>
        <time>2020-01-02T15:05:34.000Z</time>
      </trkpt>
      <trkpt lat="49.46698" lon="1.95462">
        <ele>219.60000610352</ele>
        <time>2020-01-02T15:05:39.000Z</time>
      </trkpt>
      <trkpt lat="49.46699" lon="1.9546">
        <ele>219.80000305176</ele>
        <time>2020-01-02T15:05:40.000Z</time>
      </trkpt>
      <trkpt lat="49.46701" lon="1.95445">
        <ele>220.80000305176</ele>
        <time>2020-01-02T15:05:47.000Z</time>
      </trkpt>
      <trkpt lat="49.46701" lon="1.9544">
        <ele>221.39999389648</ele>
        <time>2020-01-02T15:05:50.000Z</time>
      </trkpt>
      <trkpt lat="49.46702" lon="1.9543">
        <ele>222</ele>
        <time>2020-01-02T15:05:54.000Z</time>
      </trkpt>
      <trkpt lat="49.467" lon="1.95423">
        <ele>222.19999694824</ele>
        <time>2020-01-02T15:05:56.000Z</time>
      </trkpt>
      <trkpt lat="49.46699" lon="1.95415">
        <ele>222.39999389648</ele>
        <time>2020-01-02T15:05:59.000Z</time>
      </trkpt>
      <trkpt lat="49.467" lon="1.95403">
        <ele>223</ele>
        <time>2020-01-02T15:06:04.000Z</time>
      </trkpt>
      <trkpt lat="49.46698" lon="1.95391">
        <ele>223.39999389648</ele>
        <time>2020-01-02T15:06:09.000Z</time>
      </trkpt>
      <trkpt lat="49.46696" lon="1.95376">
        <ele>224.39999389648</ele>
        <time>2020-01-02T15:06:15.000Z</time>
      </trkpt>
      <trkpt lat="49.46696" lon="1.95367">
        <ele>225.19999694824</ele>
        <time>2020-01-02T15:06:19.000Z</time>
      </trkpt>
      <trkpt lat="49.46696" lon="1.95366">
        <ele>225.39999389648</ele>
        <time>2020-01-02T15:06:20.000Z</time>
      </trkpt>
      <trkpt lat="49.46694" lon="1.95345">
        <ele>226.60000610352</ele>
        <time>2020-01-02T15:06:28.000Z</time>
      </trkpt>
      <trkpt lat="49.46694" lon="1.95343">
        <ele>226.60000610352</ele>
        <time>2020-01-02T15:06:29.000Z</time>
      </trkpt>
      <trkpt lat="49.46697" lon="1.9532">
        <ele>227.39999389648</ele>
        <time>2020-01-02T15:06:37.000Z</time>
      </trkpt>
      <trkpt lat="49.46697" lon="1.95313">
        <ele>227.60000610352</ele>
        <time>2020-01-02T15:06:40.000Z</time>
      </trkpt>
      <trkpt lat="49.46695" lon="1.95306">
        <ele>228.19999694824</ele>
        <time>2020-01-02T15:06:43.000Z</time>
      </trkpt>
      <trkpt lat="49.46695" lon="1.95299">
        <ele>228.80000305176</ele>
        <time>2020-01-02T15:06:46.000Z</time>
      </trkpt>
      <trkpt lat="49.46695" lon="1.95296">
        <ele>229</ele>
        <time>2020-01-02T15:06:47.000Z</time>
      </trkpt>
      <trkpt lat="49.46696" lon="1.95284">
        <ele>229.80000305176</ele>
        <time>2020-01-02T15:06:51.000Z</time>
      </trkpt>
      <trkpt lat="49.46697" lon="1.95275">
        <ele>230.19999694824</ele>
        <time>2020-01-02T15:06:54.000Z</time>
      </trkpt>
      <trkpt lat="49.46699" lon="1.95267">
        <ele>230.60000610352</ele>
        <time>2020-01-02T15:06:57.000Z</time>
      </trkpt>
      <trkpt lat="49.467" lon="1.95263">
        <ele>231.19999694824</ele>
        <time>2020-01-02T15:06:59.000Z</time>
      </trkpt>
      <trkpt lat="49.46704" lon="1.95253">
        <ele>231.80000305176</ele>
        <time>2020-01-02T15:07:03.000Z</time>
      </trkpt>
      <trkpt lat="49.46708" lon="1.9524">
        <ele>232.19999694824</ele>
        <time>2020-01-02T15:07:08.000Z</time>
      </trkpt>
      <trkpt lat="49.4671" lon="1.95235">
        <ele>232.39999389648</ele>
        <time>2020-01-02T15:07:10.000Z</time>
      </trkpt>
      <trkpt lat="49.46718" lon="1.95223">
        <ele>232.60000610352</ele>
        <time>2020-01-02T15:07:15.000Z</time>
      </trkpt>
      <trkpt lat="49.46725" lon="1.95209">
        <ele>233.19999694824</ele>
        <time>2020-01-02T15:07:20.000Z</time>
      </trkpt>
      <trkpt lat="49.46726" lon="1.95206">
        <ele>233.39999389648</ele>
        <time>2020-01-02T15:07:21.000Z</time>
      </trkpt>
      <trkpt lat="49.46734" lon="1.95188">
        <ele>234.19999694824</ele>
        <time>2020-01-02T15:07:27.000Z</time>
      </trkpt>
      <trkpt lat="49.46741" lon="1.95172">
        <ele>235.19999694824</ele>
        <time>2020-01-02T15:07:32.000Z</time>
      </trkpt>
      <trkpt lat="49.46743" lon="1.95165">
        <ele>235.39999389648</ele>
        <time>2020-01-02T15:07:34.000Z</time>
      </trkpt>
      <trkpt lat="49.4675" lon="1.95153">
        <ele>236</ele>
        <time>2020-01-02T15:07:38.000Z</time>
      </trkpt>
      <trkpt lat="49.46752" lon="1.95151">
        <ele>236.19999694824</ele>
        <time>2020-01-02T15:07:39.000Z</time>
      </trkpt>
      <trkpt lat="49.46756" lon="1.95148">
        <ele>236.60000610352</ele>
        <time>2020-01-02T15:07:41.000Z</time>
      </trkpt>
      <trkpt lat="49.46761" lon="1.95144">
        <ele>237.19999694824</ele>
        <time>2020-01-02T15:07:44.000Z</time>
      </trkpt>
      <trkpt lat="49.46765" lon="1.9514">
        <ele>237.39999389648</ele>
        <time>2020-01-02T15:07:46.000Z</time>
      </trkpt>
      <trkpt lat="49.46771" lon="1.95137">
        <ele>237.39999389648</ele>
        <time>2020-01-02T15:07:48.000Z</time>
      </trkpt>
      <trkpt lat="49.46773" lon="1.95135">
        <ele>237.60000610352</ele>
        <time>2020-01-02T15:07:49.000Z</time>
      </trkpt>
      <trkpt lat="49.46788" lon="1.95122">
        <ele>237.80000305176</ele>
        <time>2020-01-02T15:07:54.000Z</time>
      </trkpt>
      <trkpt lat="49.46805" lon="1.95102">
        <ele>237.39999389648</ele>
        <time>2020-01-02T15:08:00.000Z</time>
      </trkpt>
      <trkpt lat="49.4682" lon="1.95068">
        <ele>236.80000305176</ele>
        <time>2020-01-02T15:08:07.000Z</time>
      </trkpt>
      <trkpt lat="49.46832" lon="1.95037">
        <ele>236.39999389648</ele>
        <time>2020-01-02T15:08:14.000Z</time>
      </trkpt>
      <trkpt lat="49.46841" lon="1.95018">
        <ele>236.39999389648</ele>
        <time>2020-01-02T15:08:18.000Z</time>
      </trkpt>
      <trkpt lat="49.46842" lon="1.95012">
        <ele>236.39999389648</ele>
        <time>2020-01-02T15:08:19.000Z</time>
      </trkpt>
      <trkpt lat="49.46853" lon="1.94986">
        <ele>236.19999694824</ele>
        <time>2020-01-02T15:08:24.000Z</time>
      </trkpt>
      <trkpt lat="49.46867" lon="1.94958">
        <ele>236</ele>
        <time>2020-01-02T15:08:29.000Z</time>
      </trkpt>
      <trkpt lat="49.46877" lon="1.94943">
        <ele>235.80000305176</ele>
        <time>2020-01-02T15:08:32.000Z</time>
      </trkpt>
      <trkpt lat="49.46885" lon="1.94927">
        <ele>235.60000610352</ele>
        <time>2020-01-02T15:08:35.000Z</time>
      </trkpt>
      <trkpt lat="49.46896" lon="1.94912">
        <ele>235.39999389648</ele>
        <time>2020-01-02T15:08:39.000Z</time>
      </trkpt>
      <trkpt lat="49.46899" lon="1.94903">
        <ele>235.39999389648</ele>
        <time>2020-01-02T15:08:41.000Z</time>
      </trkpt>
      <trkpt lat="49.46905" lon="1.94892">
        <ele>235.19999694824</ele>
        <time>2020-01-02T15:08:43.000Z</time>
      </trkpt>
      <trkpt lat="49.46904" lon="1.94863">
        <ele>235.19999694824</ele>
        <time>2020-01-02T15:08:47.000Z</time>
      </trkpt>
      <trkpt lat="49.46896" lon="1.94824">
        <ele>235.19999694824</ele>
        <time>2020-01-02T15:08:53.000Z</time>
      </trkpt>
      <trkpt lat="49.46888" lon="1.94787">
        <ele>235.60000610352</ele>
        <time>2020-01-02T15:08:58.000Z</time>
      </trkpt>
      <trkpt lat="49.46884" lon="1.94755">
        <ele>236.39999389648</ele>
        <time>2020-01-02T15:09:03.000Z</time>
      </trkpt>
      <trkpt lat="49.46884" lon="1.94749">
        <ele>236.39999389648</ele>
        <time>2020-01-02T15:09:04.000Z</time>
      </trkpt>
      <trkpt lat="49.46882" lon="1.94727">
        <ele>237.19999694824</ele>
        <time>2020-01-02T15:09:08.000Z</time>
      </trkpt>
      <trkpt lat="49.46877" lon="1.94686">
        <ele>237.39999389648</ele>
        <time>2020-01-02T15:09:14.000Z</time>
      </trkpt>
      <trkpt lat="49.46877" lon="1.9468">
        <ele>237.60000610352</ele>
        <time>2020-01-02T15:09:15.000Z</time>
      </trkpt>
      <trkpt lat="49.46875" lon="1.94652">
        <ele>238.39999389648</ele>
        <time>2020-01-02T15:09:20.000Z</time>
      </trkpt>
      <trkpt lat="49.46872" lon="1.94641">
        <ele>238.80000305176</ele>
        <time>2020-01-02T15:09:23.000Z</time>
      </trkpt>
      <trkpt lat="49.46871" lon="1.94635">
        <ele>239.39999389648</ele>
        <time>2020-01-02T15:09:25.000Z</time>
      </trkpt>
      <trkpt lat="49.46871" lon="1.94632">
        <ele>239.60000610352</ele>
        <time>2020-01-02T15:09:26.000Z</time>
      </trkpt>
      <trkpt lat="49.46868" lon="1.9462">
        <ele>239.80000305176</ele>
        <time>2020-01-02T15:09:29.000Z</time>
      </trkpt>
      <trkpt lat="49.46867" lon="1.94615">
        <ele>239.80000305176</ele>
        <time>2020-01-02T15:09:30.000Z</time>
      </trkpt>
      <trkpt lat="49.46867" lon="1.9461">
        <ele>240</ele>
        <time>2020-01-02T15:09:31.000Z</time>
      </trkpt>
      <trkpt lat="49.46864" lon="1.94588">
        <ele>240.19999694824</ele>
        <time>2020-01-02T15:09:36.000Z</time>
      </trkpt>
      <trkpt lat="49.46864" lon="1.94584">
        <ele>240.19999694824</ele>
        <time>2020-01-02T15:09:37.000Z</time>
      </trkpt>
      <trkpt lat="49.46863" lon="1.94577">
        <ele>240.39999389648</ele>
        <time>2020-01-02T15:09:39.000Z</time>
      </trkpt>
      <trkpt lat="49.46859" lon="1.94562">
        <ele>240.60000610352</ele>
        <time>2020-01-02T15:09:43.000Z</time>
      </trkpt>
      <trkpt lat="49.46857" lon="1.94558">
        <ele>240.80000305176</ele>
        <time>2020-01-02T15:09:44.000Z</time>
      </trkpt>
      <trkpt lat="49.46844" lon="1.94533">
        <ele>241.60000610352</ele>
        <time>2020-01-02T15:09:50.000Z</time>
      </trkpt>
      <trkpt lat="49.4684" lon="1.94523">
        <ele>242</ele>
        <time>2020-01-02T15:09:52.000Z</time>
      </trkpt>
      <trkpt lat="49.46835" lon="1.94511">
        <ele>242.39999389648</ele>
        <time>2020-01-02T15:09:55.000Z</time>
      </trkpt>
      <trkpt lat="49.46824" lon="1.94491">
        <ele>242.80000305176</ele>
        <time>2020-01-02T15:10:00.000Z</time>
      </trkpt>
      <trkpt lat="49.46819" lon="1.94486">
        <ele>243</ele>
        <time>2020-01-02T15:10:02.000Z</time>
      </trkpt>
      <trkpt lat="49.46809" lon="1.94478">
        <ele>244.19999694824</ele>
        <time>2020-01-02T15:10:06.000Z</time>
      </trkpt>
      <trkpt lat="49.46806" lon="1.94477">
        <ele>244.39999389648</ele>
        <time>2020-01-02T15:10:07.000Z</time>
      </trkpt>
      <trkpt lat="49.46795" lon="1.94472">
        <ele>244.60000610352</ele>
        <time>2020-01-02T15:10:11.000Z</time>
      </trkpt>
      <trkpt lat="49.46787" lon="1.94467">
        <ele>245</ele>
        <time>2020-01-02T15:10:14.000Z</time>
      </trkpt>
      <trkpt lat="49.46771" lon="1.94457">
        <ele>245.19999694824</ele>
        <time>2020-01-02T15:10:20.000Z</time>
      </trkpt>
      <trkpt lat="49.46767" lon="1.94457">
        <ele>245.19999694824</ele>
        <time>2020-01-02T15:10:22.000Z</time>
      </trkpt>
      <trkpt lat="49.46757" lon="1.94458">
        <ele>245.39999389648</ele>
        <time>2020-01-02T15:10:25.000Z</time>
      </trkpt>
      <trkpt lat="49.46743" lon="1.94449">
        <ele>245.39999389648</ele>
        <time>2020-01-02T15:10:30.000Z</time>
      </trkpt>
      <trkpt lat="49.46731" lon="1.94437">
        <ele>245.60000610352</ele>
        <time>2020-01-02T15:10:35.000Z</time>
      </trkpt>
      <trkpt lat="49.46727" lon="1.94435">
        <ele>245.60000610352</ele>
        <time>2020-01-02T15:10:36.000Z</time>
      </trkpt>
      <trkpt lat="49.46711" lon="1.94421">
        <ele>245.19999694824</ele>
        <time>2020-01-02T15:10:42.000Z</time>
      </trkpt>
      <trkpt lat="49.46689" lon="1.94399">
        <ele>244.60000610352</ele>
        <time>2020-01-02T15:10:49.000Z</time>
      </trkpt>
      <trkpt lat="49.46683" lon="1.94392">
        <ele>244.19999694824</ele>
        <time>2020-01-02T15:10:51.000Z</time>
      </trkpt>
      <trkpt lat="49.46671" lon="1.94376">
        <ele>243.60000610352</ele>
        <time>2020-01-02T15:10:55.000Z</time>
      </trkpt>
      <trkpt lat="49.46667" lon="1.94368">
        <ele>243.19999694824</ele>
        <time>2020-01-02T15:10:57.000Z</time>
      </trkpt>
      <trkpt lat="49.46661" lon="1.94356">
        <ele>242.19999694824</ele>
        <time>2020-01-02T15:11:00.000Z</time>
      </trkpt>
      <trkpt lat="49.46659" lon="1.94353">
        <ele>242</ele>
        <time>2020-01-02T15:11:01.000Z</time>
      </trkpt>
      <trkpt lat="49.46649" lon="1.94337">
        <ele>241.39999389648</ele>
        <time>2020-01-02T15:11:06.000Z</time>
      </trkpt>
      <trkpt lat="49.46638" lon="1.94322">
        <ele>241</ele>
        <time>2020-01-02T15:11:13.000Z</time>
      </trkpt>
      <trkpt lat="49.46634" lon="1.94316">
        <ele>240.60000610352</ele>
        <time>2020-01-02T15:11:15.000Z</time>
      </trkpt>
      <trkpt lat="49.4663" lon="1.94311">
        <ele>240.19999694824</ele>
        <time>2020-01-02T15:11:17.000Z</time>
      </trkpt>
      <trkpt lat="49.46628" lon="1.94306">
        <ele>239.80000305176</ele>
        <time>2020-01-02T15:11:19.000Z</time>
      </trkpt>
      <trkpt lat="49.46625" lon="1.94302">
        <ele>239.60000610352</ele>
        <time>2020-01-02T15:11:21.000Z</time>
      </trkpt>
      <trkpt lat="49.46623" lon="1.94296">
        <ele>238.60000610352</ele>
        <time>2020-01-02T15:11:24.000Z</time>
      </trkpt>
      <trkpt lat="49.46622" lon="1.94294">
        <ele>238.19999694824</ele>
        <time>2020-01-02T15:11:25.000Z</time>
      </trkpt>
      <trkpt lat="49.46622" lon="1.94291">
        <ele>237.80000305176</ele>
        <time>2020-01-02T15:11:26.000Z</time>
      </trkpt>
      <trkpt lat="49.4662" lon="1.94289">
        <ele>237.39999389648</ele>
        <time>2020-01-02T15:11:27.000Z</time>
      </trkpt>
      <trkpt lat="49.46617" lon="1.94282">
        <ele>236</ele>
        <time>2020-01-02T15:11:30.000Z</time>
      </trkpt>
      <trkpt lat="49.46614" lon="1.94279">
        <ele>235</ele>
        <time>2020-01-02T15:11:32.000Z</time>
      </trkpt>
      <trkpt lat="49.46613" lon="1.94277">
        <ele>234.39999389648</ele>
        <time>2020-01-02T15:11:33.000Z</time>
      </trkpt>
      <trkpt lat="49.46611" lon="1.94272">
        <ele>233.60000610352</ele>
        <time>2020-01-02T15:11:35.000Z</time>
      </trkpt>
      <trkpt lat="49.46609" lon="1.94264">
        <ele>232.39999389648</ele>
        <time>2020-01-02T15:11:38.000Z</time>
      </trkpt>
      <trkpt lat="49.46607" lon="1.94256">
        <ele>231.19999694824</ele>
        <time>2020-01-02T15:11:41.000Z</time>
      </trkpt>
      <trkpt lat="49.46604" lon="1.94251">
        <ele>230.80000305176</ele>
        <time>2020-01-02T15:11:43.000Z</time>
      </trkpt>
      <trkpt lat="49.46601" lon="1.94242">
        <ele>229.80000305176</ele>
        <time>2020-01-02T15:11:46.000Z</time>
      </trkpt>
      <trkpt lat="49.46599" lon="1.94234">
        <ele>229</ele>
        <time>2020-01-02T15:11:49.000Z</time>
      </trkpt>
      <trkpt lat="49.46598" lon="1.94232">
        <ele>228.39999389648</ele>
        <time>2020-01-02T15:11:50.000Z</time>
      </trkpt>
      <trkpt lat="49.46595" lon="1.94224">
        <ele>227.19999694824</ele>
        <time>2020-01-02T15:11:53.000Z</time>
      </trkpt>
      <trkpt lat="49.46592" lon="1.94217">
        <ele>226</ele>
        <time>2020-01-02T15:11:56.000Z</time>
      </trkpt>
      <trkpt lat="49.46589" lon="1.94213">
        <ele>225.39999389648</ele>
        <time>2020-01-02T15:11:58.000Z</time>
      </trkpt>
      <trkpt lat="49.46586" lon="1.94208">
        <ele>224.60000610352</ele>
        <time>2020-01-02T15:12:01.000Z</time>
      </trkpt>
      <trkpt lat="49.46585" lon="1.94205">
        <ele>224</ele>
        <time>2020-01-02T15:12:03.000Z</time>
      </trkpt>
      <trkpt lat="49.46553" lon="1.94155">
        <ele>213.19999694824</ele>
        <time>2020-01-02T15:12:36.000Z</time>
      </trkpt>
      <trkpt lat="49.46549" lon="1.9415">
        <ele>211.80000305176</ele>
        <time>2020-01-02T15:12:38.000Z</time>
      </trkpt>
      <trkpt lat="49.46545" lon="1.94146">
        <ele>210.39999389648</ele>
        <time>2020-01-02T15:12:40.000Z</time>
      </trkpt>
      <trkpt lat="49.4654" lon="1.94144">
        <ele>209.19999694824</ele>
        <time>2020-01-02T15:12:42.000Z</time>
      </trkpt>
      <trkpt lat="49.46534" lon="1.94142">
        <ele>208.19999694824</ele>
        <time>2020-01-02T15:12:44.000Z</time>
      </trkpt>
      <trkpt lat="49.46527" lon="1.94141">
        <ele>206.60000610352</ele>
        <time>2020-01-02T15:12:47.000Z</time>
      </trkpt>
      <trkpt lat="49.46522" lon="1.94139">
        <ele>205.60000610352</ele>
        <time>2020-01-02T15:12:49.000Z</time>
      </trkpt>
      <trkpt lat="49.46516" lon="1.94139">
        <ele>204</ele>
        <time>2020-01-02T15:12:51.000Z</time>
      </trkpt>
      <trkpt lat="49.46511" lon="1.94144">
        <ele>202.80000305176</ele>
        <time>2020-01-02T15:12:53.000Z</time>
      </trkpt>
      <trkpt lat="49.46504" lon="1.94148">
        <ele>202.39999389648</ele>
        <time>2020-01-02T15:12:55.000Z</time>
      </trkpt>
      <trkpt lat="49.46499" lon="1.94149">
        <ele>201.60000610352</ele>
        <time>2020-01-02T15:12:57.000Z</time>
      </trkpt>
      <trkpt lat="49.46493" lon="1.94149">
        <ele>200.60000610352</ele>
        <time>2020-01-02T15:12:59.000Z</time>
      </trkpt>
      <trkpt lat="49.46476" lon="1.9415">
        <ele>200.19999694824</ele>
        <time>2020-01-02T15:13:05.000Z</time>
      </trkpt>
      <trkpt lat="49.46466" lon="1.94143">
        <ele>200.19999694824</ele>
        <time>2020-01-02T15:13:09.000Z</time>
      </trkpt>
      <trkpt lat="49.46451" lon="1.94123">
        <ele>200.19999694824</ele>
        <time>2020-01-02T15:13:15.000Z</time>
      </trkpt>
      <trkpt lat="49.46429" lon="1.94103">
        <ele>199.80000305176</ele>
        <time>2020-01-02T15:13:22.000Z</time>
      </trkpt>
      <trkpt lat="49.46424" lon="1.94099">
        <ele>199.60000610352</ele>
        <time>2020-01-02T15:13:24.000Z</time>
      </trkpt>
      <trkpt lat="49.46416" lon="1.94094">
        <ele>199</ele>
        <time>2020-01-02T15:13:27.000Z</time>
      </trkpt>
      <trkpt lat="49.46401" lon="1.94087">
        <ele>198.19999694824</ele>
        <time>2020-01-02T15:13:31.000Z</time>
      </trkpt>
      <trkpt lat="49.46398" lon="1.94087">
        <ele>198</ele>
        <time>2020-01-02T15:13:32.000Z</time>
      </trkpt>
      <trkpt lat="49.46396" lon="1.94086">
        <ele>198</ele>
        <time>2020-01-02T15:13:33.000Z</time>
      </trkpt>
      <trkpt lat="49.46392" lon="1.94078">
        <ele>197.80000305176</ele>
        <time>2020-01-02T15:13:36.000Z</time>
      </trkpt>
      <trkpt lat="49.46388" lon="1.94062">
        <ele>197.60000610352</ele>
        <time>2020-01-02T15:13:40.000Z</time>
      </trkpt>
      <trkpt lat="49.46385" lon="1.94052">
        <ele>197.39999389648</ele>
        <time>2020-01-02T15:13:42.000Z</time>
      </trkpt>
      <trkpt lat="49.4638" lon="1.94037">
        <ele>197.39999389648</ele>
        <time>2020-01-02T15:13:45.000Z</time>
      </trkpt>
      <trkpt lat="49.46377" lon="1.94033">
        <ele>197.19999694824</ele>
        <time>2020-01-02T15:13:46.000Z</time>
      </trkpt>
      <trkpt lat="49.46375" lon="1.94031">
        <ele>197</ele>
        <time>2020-01-02T15:13:47.000Z</time>
      </trkpt>
      <trkpt lat="49.46369" lon="1.94024">
        <ele>196.39999389648</ele>
        <time>2020-01-02T15:13:49.000Z</time>
      </trkpt>
      <trkpt lat="49.46366" lon="1.94019">
        <ele>196</ele>
        <time>2020-01-02T15:13:50.000Z</time>
      </trkpt>
      <trkpt lat="49.46362" lon="1.9401">
        <ele>195.80000305176</ele>
        <time>2020-01-02T15:13:52.000Z</time>
      </trkpt>
      <trkpt lat="49.46359" lon="1.94003">
        <ele>195.60000610352</ele>
        <time>2020-01-02T15:13:54.000Z</time>
      </trkpt>
      <trkpt lat="49.46353" lon="1.93996">
        <ele>195.39999389648</ele>
        <time>2020-01-02T15:13:56.000Z</time>
      </trkpt>
      <trkpt lat="49.46345" lon="1.93977">
        <ele>195</ele>
        <time>2020-01-02T15:14:01.000Z</time>
      </trkpt>
      <trkpt lat="49.46339" lon="1.93961">
        <ele>195</ele>
        <time>2020-01-02T15:14:04.000Z</time>
      </trkpt>
      <trkpt lat="49.46336" lon="1.93958">
        <ele>195</ele>
        <time>2020-01-02T15:14:05.000Z</time>
      </trkpt>
      <trkpt lat="49.46321" lon="1.93945">
        <ele>194.19999694824</ele>
        <time>2020-01-02T15:14:10.000Z</time>
      </trkpt>
      <trkpt lat="49.46318" lon="1.93936">
        <ele>193.80000305176</ele>
        <time>2020-01-02T15:14:13.000Z</time>
      </trkpt>
      <trkpt lat="49.46316" lon="1.93929">
        <ele>193.60000610352</ele>
        <time>2020-01-02T15:14:15.000Z</time>
      </trkpt>
      <trkpt lat="49.46315" lon="1.93925">
        <ele>193.39999389648</ele>
        <time>2020-01-02T15:14:16.000Z</time>
      </trkpt>
      <trkpt lat="49.46312" lon="1.93917">
        <ele>193.19999694824</ele>
        <time>2020-01-02T15:14:18.000Z</time>
      </trkpt>
      <trkpt lat="49.46306" lon="1.93911">
        <ele>193.19999694824</ele>
        <time>2020-01-02T15:14:20.000Z</time>
      </trkpt>
      <trkpt lat="49.46296" lon="1.939">
        <ele>192.80000305176</ele>
        <time>2020-01-02T15:14:24.000Z</time>
      </trkpt>
      <trkpt lat="49.46293" lon="1.93895">
        <ele>192.39999389648</ele>
        <time>2020-01-02T15:14:26.000Z</time>
      </trkpt>
      <trkpt lat="49.4629" lon="1.93892">
        <ele>192.19999694824</ele>
        <time>2020-01-02T15:14:28.000Z</time>
      </trkpt>
      <trkpt lat="49.4629" lon="1.93886">
        <ele>192.19999694824</ele>
        <time>2020-01-02T15:14:30.000Z</time>
      </trkpt>
      <trkpt lat="49.46295" lon="1.93875">
        <ele>192</ele>
        <time>2020-01-02T15:14:33.000Z</time>
      </trkpt>
      <trkpt lat="49.463" lon="1.93864">
        <ele>192</ele>
        <time>2020-01-02T15:14:36.000Z</time>
      </trkpt>
      <trkpt lat="49.46304" lon="1.93853">
        <ele>191.60000610352</ele>
        <time>2020-01-02T15:14:39.000Z</time>
      </trkpt>
      <trkpt lat="49.46307" lon="1.93838">
        <ele>191</ele>
        <time>2020-01-02T15:14:42.000Z</time>
      </trkpt>
      <trkpt lat="49.46309" lon="1.93812">
        <ele>190.39999389648</ele>
        <time>2020-01-02T15:14:46.000Z</time>
      </trkpt>
      <trkpt lat="49.46309" lon="1.93804">
        <ele>190.19999694824</ele>
        <time>2020-01-02T15:14:47.000Z</time>
      </trkpt>
      <trkpt lat="49.46309" lon="1.93789">
        <ele>189.60000610352</ele>
        <time>2020-01-02T15:14:49.000Z</time>
      </trkpt>
      <trkpt lat="49.46307" lon="1.93768">
        <ele>189</ele>
        <time>2020-01-02T15:14:52.000Z</time>
      </trkpt>
      <trkpt lat="49.46306" lon="1.93761">
        <ele>188.60000610352</ele>
        <time>2020-01-02T15:14:53.000Z</time>
      </trkpt>
      <trkpt lat="49.46304" lon="1.93742">
        <ele>187.60000610352</ele>
        <time>2020-01-02T15:14:56.000Z</time>
      </trkpt>
      <trkpt lat="49.46303" lon="1.93725">
        <ele>186.80000305176</ele>
        <time>2020-01-02T15:14:59.000Z</time>
      </trkpt>
      <trkpt lat="49.46302" lon="1.9372">
        <ele>186.39999389648</ele>
        <time>2020-01-02T15:15:00.000Z</time>
      </trkpt>
      <trkpt lat="49.46302" lon="1.93705">
        <ele>185.19999694824</ele>
        <time>2020-01-02T15:15:03.000Z</time>
      </trkpt>
      <trkpt lat="49.46301" lon="1.93701">
        <ele>185.19999694824</ele>
        <time>2020-01-02T15:15:04.000Z</time>
      </trkpt>
      <trkpt lat="49.46298" lon="1.9367">
        <ele>184.39999389648</ele>
        <time>2020-01-02T15:15:09.000Z</time>
      </trkpt>
      <trkpt lat="49.46297" lon="1.93665">
        <ele>184</ele>
        <time>2020-01-02T15:15:10.000Z</time>
      </trkpt>
      <trkpt lat="49.46296" lon="1.9365">
        <ele>183.39999389648</ele>
        <time>2020-01-02T15:15:13.000Z</time>
      </trkpt>
      <trkpt lat="49.46297" lon="1.93646">
        <ele>183</ele>
        <time>2020-01-02T15:15:14.000Z</time>
      </trkpt>
      <trkpt lat="49.46297" lon="1.9364">
        <ele>181.80000305176</ele>
        <time>2020-01-02T15:15:16.000Z</time>
      </trkpt>
      <trkpt lat="49.46297" lon="1.93638">
        <ele>181.60000610352</ele>
        <time>2020-01-02T15:15:17.000Z</time>
      </trkpt>
      <trkpt lat="49.46296" lon="1.93635">
        <ele>181.39999389648</ele>
        <time>2020-01-02T15:15:18.000Z</time>
      </trkpt>
      <trkpt lat="49.46293" lon="1.93628">
        <ele>181</ele>
        <time>2020-01-02T15:15:20.000Z</time>
      </trkpt>
      <trkpt lat="49.46291" lon="1.93613">
        <ele>180.39999389648</ele>
        <time>2020-01-02T15:15:24.000Z</time>
      </trkpt>
      <trkpt lat="49.46291" lon="1.936">
        <ele>179.80000305176</ele>
        <time>2020-01-02T15:15:28.000Z</time>
      </trkpt>
      <trkpt lat="49.46291" lon="1.93594">
        <ele>179.60000610352</ele>
        <time>2020-01-02T15:15:30.000Z</time>
      </trkpt>
      <trkpt lat="49.46292" lon="1.93579">
        <ele>178.80000305176</ele>
        <time>2020-01-02T15:15:35.000Z</time>
      </trkpt>
      <trkpt lat="49.46293" lon="1.93575">
        <ele>178.60000610352</ele>
        <time>2020-01-02T15:15:36.000Z</time>
      </trkpt>
      <trkpt lat="49.46296" lon="1.9356">
        <ele>177.39999389648</ele>
        <time>2020-01-02T15:15:40.000Z</time>
      </trkpt>
      <trkpt lat="49.46297" lon="1.93554">
        <ele>176.60000610352</ele>
        <time>2020-01-02T15:15:42.000Z</time>
      </trkpt>
      <trkpt lat="49.46297" lon="1.93552">
        <ele>176</ele>
        <time>2020-01-02T15:15:43.000Z</time>
      </trkpt>
      <trkpt lat="49.46297" lon="1.93544">
        <ele>174.60000610352</ele>
        <time>2020-01-02T15:15:47.000Z</time>
      </trkpt>
      <trkpt lat="49.46297" lon="1.93542">
        <ele>174.39999389648</ele>
        <time>2020-01-02T15:15:48.000Z</time>
      </trkpt>
      <trkpt lat="49.46296" lon="1.93535">
        <ele>173.60000610352</ele>
        <time>2020-01-02T15:15:52.000Z</time>
      </trkpt>
      <trkpt lat="49.46296" lon="1.93532">
        <ele>173.19999694824</ele>
        <time>2020-01-02T15:15:54.000Z</time>
      </trkpt>
      <trkpt lat="49.46296" lon="1.93527">
        <ele>172.39999389648</ele>
        <time>2020-01-02T15:15:58.000Z</time>
      </trkpt>
      <trkpt lat="49.46297" lon="1.9351">
        <ele>172</ele>
        <time>2020-01-02T15:16:07.000Z</time>
      </trkpt>
      <trkpt lat="49.46297" lon="1.93507">
        <ele>172</ele>
        <time>2020-01-02T15:16:08.000Z</time>
      </trkpt>
      <trkpt lat="49.46299" lon="1.93501">
        <ele>171.80000305176</ele>
        <time>2020-01-02T15:16:11.000Z</time>
      </trkpt>
      <trkpt lat="49.46299" lon="1.93498">
        <ele>171.80000305176</ele>
        <time>2020-01-02T15:16:13.000Z</time>
      </trkpt>
      <trkpt lat="49.46304" lon="1.93459">
        <ele>167.19999694824</ele>
        <time>2020-01-02T15:16:36.000Z</time>
      </trkpt>
      <trkpt lat="49.46307" lon="1.9345">
        <ele>166</ele>
        <time>2020-01-02T15:16:40.000Z</time>
      </trkpt>
      <trkpt lat="49.46309" lon="1.93438">
        <ele>164.80000305176</ele>
        <time>2020-01-02T15:16:44.000Z</time>
      </trkpt>
      <trkpt lat="49.46309" lon="1.93435">
        <ele>164.60000610352</ele>
        <time>2020-01-02T15:16:45.000Z</time>
      </trkpt>
      <trkpt lat="49.46309" lon="1.93425">
        <ele>163.80000305176</ele>
        <time>2020-01-02T15:16:48.000Z</time>
      </trkpt>
      <trkpt lat="49.46309" lon="1.93421">
        <ele>163.80000305176</ele>
        <time>2020-01-02T15:16:49.000Z</time>
      </trkpt>
      <trkpt lat="49.46309" lon="1.93418">
        <ele>163.60000610352</ele>
        <time>2020-01-02T15:16:50.000Z</time>
      </trkpt>
      <trkpt lat="49.46309" lon="1.93407">
        <ele>162.80000305176</ele>
        <time>2020-01-02T15:16:54.000Z</time>
      </trkpt>
      <trkpt lat="49.4631" lon="1.934">
        <ele>162.60000610352</ele>
        <time>2020-01-02T15:16:57.000Z</time>
      </trkpt>
      <trkpt lat="49.46311" lon="1.93391">
        <ele>161.80000305176</ele>
        <time>2020-01-02T15:17:02.000Z</time>
      </trkpt>
      <trkpt lat="49.46312" lon="1.93381">
        <ele>161.39999389648</ele>
        <time>2020-01-02T15:17:06.000Z</time>
      </trkpt>
      <trkpt lat="49.46315" lon="1.93366">
        <ele>160.80000305176</ele>
        <time>2020-01-02T15:17:13.000Z</time>
      </trkpt>
      <trkpt lat="49.46316" lon="1.93363">
        <ele>160.60000610352</ele>
        <time>2020-01-02T15:17:14.000Z</time>
      </trkpt>
      <trkpt lat="49.46317" lon="1.9335">
        <ele>159.80000305176</ele>
        <time>2020-01-02T15:17:18.000Z</time>
      </trkpt>
      <trkpt lat="49.46318" lon="1.93343">
        <ele>159.39999389648</ele>
        <time>2020-01-02T15:17:21.000Z</time>
      </trkpt>
      <trkpt lat="49.46318" lon="1.93334">
        <ele>158.80000305176</ele>
        <time>2020-01-02T15:17:25.000Z</time>
      </trkpt>
      <trkpt lat="49.46319" lon="1.93328">
        <ele>158.80000305176</ele>
        <time>2020-01-02T15:17:28.000Z</time>
      </trkpt>
      <trkpt lat="49.46318" lon="1.93323">
        <ele>158.39999389648</ele>
        <time>2020-01-02T15:17:31.000Z</time>
      </trkpt>
      <trkpt lat="49.46318" lon="1.93319">
        <ele>158.39999389648</ele>
        <time>2020-01-02T15:17:33.000Z</time>
      </trkpt>
      <trkpt lat="49.46328" lon="1.9326">
        <ele>157.60000610352</ele>
        <time>2020-01-02T15:18:08.000Z</time>
      </trkpt>
      <trkpt lat="49.4633" lon="1.93255">
        <ele>157.19999694824</ele>
        <time>2020-01-02T15:18:10.000Z</time>
      </trkpt>
      <trkpt lat="49.46331" lon="1.93252">
        <ele>157.19999694824</ele>
        <time>2020-01-02T15:18:11.000Z</time>
      </trkpt>
      <trkpt lat="49.46333" lon="1.93242">
        <ele>156.80000305176</ele>
        <time>2020-01-02T15:18:16.000Z</time>
      </trkpt>
      <trkpt lat="49.46333" lon="1.93234">
        <ele>156.39999389648</ele>
        <time>2020-01-02T15:18:19.000Z</time>
      </trkpt>
      <trkpt lat="49.46335" lon="1.93224">
        <ele>156</ele>
        <time>2020-01-02T15:18:23.000Z</time>
      </trkpt>
      <trkpt lat="49.46336" lon="1.93213">
        <ele>155.60000610352</ele>
        <time>2020-01-02T15:18:28.000Z</time>
      </trkpt>
      <trkpt lat="49.46337" lon="1.93207">
        <ele>155.39999389648</ele>
        <time>2020-01-02T15:18:30.000Z</time>
      </trkpt>
      <trkpt lat="49.46337" lon="1.93199">
        <ele>155.19999694824</ele>
        <time>2020-01-02T15:18:33.000Z</time>
      </trkpt>
      <trkpt lat="49.46341" lon="1.93187">
        <ele>154.80000305176</ele>
        <time>2020-01-02T15:18:39.000Z</time>
      </trkpt>
      <trkpt lat="49.46342" lon="1.93184">
        <ele>154.60000610352</ele>
        <time>2020-01-02T15:18:41.000Z</time>
      </trkpt>
      <trkpt lat="49.46346" lon="1.93164">
        <ele>153.80000305176</ele>
        <time>2020-01-02T15:18:49.000Z</time>
      </trkpt>
      <trkpt lat="49.46346" lon="1.93158">
        <ele>153.60000610352</ele>
        <time>2020-01-02T15:18:51.000Z</time>
      </trkpt>
      <trkpt lat="49.46347" lon="1.93155">
        <ele>153.39999389648</ele>
        <time>2020-01-02T15:18:52.000Z</time>
      </trkpt>
      <trkpt lat="49.46346" lon="1.93148">
        <ele>152.80000305176</ele>
        <time>2020-01-02T15:18:54.000Z</time>
      </trkpt>
      <trkpt lat="49.46347" lon="1.93141">
        <ele>152.39999389648</ele>
        <time>2020-01-02T15:18:56.000Z</time>
      </trkpt>
      <trkpt lat="49.46347" lon="1.93129">
        <ele>152</ele>
        <time>2020-01-02T15:19:00.000Z</time>
      </trkpt>
      <trkpt lat="49.46346" lon="1.93109">
        <ele>151.19999694824</ele>
        <time>2020-01-02T15:19:06.000Z</time>
      </trkpt>
      <trkpt lat="49.46345" lon="1.93105">
        <ele>151</ele>
        <time>2020-01-02T15:19:07.000Z</time>
      </trkpt>
      <trkpt lat="49.46342" lon="1.93082">
        <ele>150</ele>
        <time>2020-01-02T15:19:14.000Z</time>
      </trkpt>
      <trkpt lat="49.46333" lon="1.93064">
        <ele>149.80000305176</ele>
        <time>2020-01-02T15:19:19.000Z</time>
      </trkpt>
      <trkpt lat="49.46317" lon="1.93042">
        <ele>149.60000610352</ele>
        <time>2020-01-02T15:19:24.000Z</time>
      </trkpt>
      <trkpt lat="49.46306" lon="1.93022">
        <ele>149</ele>
        <time>2020-01-02T15:19:27.000Z</time>
      </trkpt>
      <trkpt lat="49.46294" lon="1.93">
        <ele>148</ele>
        <time>2020-01-02T15:19:30.000Z</time>
      </trkpt>
      <trkpt lat="49.46289" lon="1.92992">
        <ele>147.60000610352</ele>
        <time>2020-01-02T15:19:31.000Z</time>
      </trkpt>
      <trkpt lat="49.46275" lon="1.92966">
        <ele>146.60000610352</ele>
        <time>2020-01-02T15:19:34.000Z</time>
      </trkpt>
      <trkpt lat="49.46266" lon="1.92949">
        <ele>145.60000610352</ele>
        <time>2020-01-02T15:19:36.000Z</time>
      </trkpt>
      <trkpt lat="49.46261" lon="1.9294">
        <ele>145</ele>
        <time>2020-01-02T15:19:37.000Z</time>
      </trkpt>
      <trkpt lat="49.46251" lon="1.92923">
        <ele>143.80000305176</ele>
        <time>2020-01-02T15:19:39.000Z</time>
      </trkpt>
      <trkpt lat="49.46241" lon="1.92906">
        <ele>142.60000610352</ele>
        <time>2020-01-02T15:19:41.000Z</time>
      </trkpt>
      <trkpt lat="49.46232" lon="1.9289">
        <ele>141.39999389648</ele>
        <time>2020-01-02T15:19:43.000Z</time>
      </trkpt>
      <trkpt lat="49.46227" lon="1.92882">
        <ele>140.80000305176</ele>
        <time>2020-01-02T15:19:44.000Z</time>
      </trkpt>
      <trkpt lat="49.46223" lon="1.92874">
        <ele>140</ele>
        <time>2020-01-02T15:19:45.000Z</time>
      </trkpt>
      <trkpt lat="49.46214" lon="1.9286">
        <ele>138.19999694824</ele>
        <time>2020-01-02T15:19:47.000Z</time>
      </trkpt>
      <trkpt lat="49.4621" lon="1.92854">
        <ele>137.80000305176</ele>
        <time>2020-01-02T15:19:48.000Z</time>
      </trkpt>
      <trkpt lat="49.46207" lon="1.92847">
        <ele>137.39999389648</ele>
        <time>2020-01-02T15:19:49.000Z</time>
      </trkpt>
      <trkpt lat="49.46204" lon="1.92842">
        <ele>137</ele>
        <time>2020-01-02T15:19:50.000Z</time>
      </trkpt>
      <trkpt lat="49.46196" lon="1.92837">
        <ele>136</ele>
        <time>2020-01-02T15:19:52.000Z</time>
      </trkpt>
      <trkpt lat="49.46188" lon="1.92844">
        <ele>135.39999389648</ele>
        <time>2020-01-02T15:19:55.000Z</time>
      </trkpt>
      <trkpt lat="49.46176" lon="1.92864">
        <ele>135.19999694824</ele>
        <time>2020-01-02T15:20:00.000Z</time>
      </trkpt>
      <trkpt lat="49.46158" lon="1.92896">
        <ele>135</ele>
        <time>2020-01-02T15:20:07.000Z</time>
      </trkpt>
      <trkpt lat="49.46137" lon="1.92931">
        <ele>135</ele>
        <time>2020-01-02T15:20:14.000Z</time>
      </trkpt>
      <trkpt lat="49.46133" lon="1.92935">
        <ele>135</ele>
        <time>2020-01-02T15:20:15.000Z</time>
      </trkpt>
      <trkpt lat="49.46126" lon="1.92944">
        <ele>135</ele>
        <time>2020-01-02T15:20:17.000Z</time>
      </trkpt>
      <trkpt lat="49.46109" lon="1.92959">
        <ele>134.80000305176</ele>
        <time>2020-01-02T15:20:21.000Z</time>
      </trkpt>
      <trkpt lat="49.46082" lon="1.92984">
        <ele>134.60000610352</ele>
        <time>2020-01-02T15:20:28.000Z</time>
      </trkpt>
      <trkpt lat="49.46068" lon="1.93001">
        <ele>134.39999389648</ele>
        <time>2020-01-02T15:20:32.000Z</time>
      </trkpt>
      <trkpt lat="49.46057" lon="1.93017">
        <ele>134.39999389648</ele>
        <time>2020-01-02T15:20:35.000Z</time>
      </trkpt>
      <trkpt lat="49.46053" lon="1.93022">
        <ele>134.19999694824</ele>
        <time>2020-01-02T15:20:36.000Z</time>
      </trkpt>
      <trkpt lat="49.46044" lon="1.93026">
        <ele>134.19999694824</ele>
        <time>2020-01-02T15:20:38.000Z</time>
      </trkpt>
      <trkpt lat="49.46034" lon="1.93025">
        <ele>134</ele>
        <time>2020-01-02T15:20:40.000Z</time>
      </trkpt>
      <trkpt lat="49.46029" lon="1.93024">
        <ele>134</ele>
        <time>2020-01-02T15:20:41.000Z</time>
      </trkpt>
      <trkpt lat="49.46021" lon="1.93023">
        <ele>132.60000610352</ele>
        <time>2020-01-02T15:20:43.000Z</time>
      </trkpt>
      <trkpt lat="49.46012" lon="1.93025">
        <ele>131.60000610352</ele>
        <time>2020-01-02T15:20:46.000Z</time>
      </trkpt>
      <trkpt lat="49.46009" lon="1.93028">
        <ele>131.39999389648</ele>
        <time>2020-01-02T15:20:47.000Z</time>
      </trkpt>
      <trkpt lat="49.46008" lon="1.93045">
        <ele>130.39999389648</ele>
        <time>2020-01-02T15:20:50.000Z</time>
      </trkpt>
      <trkpt lat="49.4601" lon="1.93057">
        <ele>130</ele>
        <time>2020-01-02T15:20:52.000Z</time>
      </trkpt>
      <trkpt lat="49.46014" lon="1.93087">
        <ele>129.80000305176</ele>
        <time>2020-01-02T15:20:57.000Z</time>
      </trkpt>
      <trkpt lat="49.46015" lon="1.93105">
        <ele>129.80000305176</ele>
        <time>2020-01-02T15:21:00.000Z</time>
      </trkpt>
      <trkpt lat="49.46015" lon="1.93132">
        <ele>130.19999694824</ele>
        <time>2020-01-02T15:21:04.000Z</time>
      </trkpt>
      <trkpt lat="49.46007" lon="1.93178">
        <ele>130.80000305176</ele>
        <time>2020-01-02T15:21:11.000Z</time>
      </trkpt>
      <trkpt lat="49.45998" lon="1.93199">
        <ele>131.39999389648</ele>
        <time>2020-01-02T15:21:16.000Z</time>
      </trkpt>
      <trkpt lat="49.45996" lon="1.93203">
        <ele>131.39999389648</ele>
        <time>2020-01-02T15:21:17.000Z</time>
      </trkpt>
      <trkpt lat="49.45988" lon="1.93222">
        <ele>131.80000305176</ele>
        <time>2020-01-02T15:21:22.000Z</time>
      </trkpt>
      <trkpt lat="49.45984" lon="1.93225">
        <ele>131.80000305176</ele>
        <time>2020-01-02T15:21:24.000Z</time>
      </trkpt>
      <trkpt lat="49.45982" lon="1.93225">
        <ele>132</ele>
        <time>2020-01-02T15:21:26.000Z</time>
      </trkpt>
      <trkpt lat="49.45982" lon="1.93225">
        <ele>132</ele>
        <time>2020-01-02T15:21:27.000Z</time>
      </trkpt>
    </trkseg>
  </trk>
</gpx>